     2              OBSERVATION DATA    GPS                 RINEX VERSION / TYPE
ASRINEXO V2.4.4 UX USGS 23-APR-96 11:18                     PGM / RUN BY / DATE
                                                            COMMENT
HI's are vertical to base of antenna                        COMMENT
HI's are vertical to base of antenna                        COMMENT
Original Marker Name: patt Pattiway_1938_USC&GS             COMMENT
Campaign Name: usgs.cuyama.monit                            COMMENT
4-Character Station Name: PATT                              COMMENT
6-Character Antenna Code: ASHP12                            COMMENT
Vertical Measurement Point: EGP                             COMMENT
Vertical Offset to Rinex Ref. Point: 0.0593                 COMMENT
Radial Measurement Point: EGP                               COMMENT
Radial Offset to Rinex Ref. Point: 0.1425                   COMMENT
Antenna Height from Field Measurement: 1.2775 m             COMMENT
Additional Antenna Identification Info.:                    COMMENT
Ashtech L1/L2 Revision B                                    COMMENT
Original XYZ: -2430662.7100 -4679017.6700 3579060.0700      COMMENT
New XYZ position is based on association with SCEC monument COMMENT
E1E9U0W5+0011. Position of that monument is believed to be  COMMENT
valid to within 1 m horizontally; vertical accuracy         COMMENT
should be no worse than 3-times this value.                 COMMENT
                                                            COMMENT
Revised Rinex header created by UCSD GPS archive for        COMMENT
GSAC on 12-Nov-1999 (1999:316) 18:06:49 GMT                 COMMENT
For assistance contact dagnew@ucsd.edu or hjohnson@ucsd.edu COMMENT
                                                            COMMENT
PATT PATTIWAY_1938_USC&GS                                   MARKER NAME
JMS US GEOLOGICAL SURVEY                                    OBSERVER / AGENCY
600 ASHTECH Z-XII3 1F00                                     REC # / TYPE / VERS
36 ASHTECH GEODETIC P                                       ANT # / TYPE
 -2571863.0000 -4558303.0000  3634771.0000                  APPROX POSITION XYZ
        1.2102        0.0000        0.0000                  ANTENNA: DELTA H/E/N
     1     1     0                                          WAVELENGTH FACT L1/2
     5    C1    L1    L2    P1    P2                        # / TYPES OF OBSERV
    30                                                      INTERVAL
  1996     4    20    14     9   30.000000                  TIME OF FIRST OBS
  1996     4    20    23    55   30.000000                  TIME OF LAST OBS
                                                            END OF HEADER
 96  4 20 14  9 30.0000000  0 10 22 19  3 31 29 28 27  4 18 14
  19999425.937      113353.12119     34911.64459                  19999430.7724
  17722726.240       10631.53919      5823.51259                  17722732.2514
  20015690.601       13454.89519
  19998618.247      -16183.65319
  17211435.676       68516.35319     35847.17959                  17211441.6074
  20166507.810       20337.56719
  20458218.211       -9932.52819
  21877137.423       80909.56119
  16622063.036       19913.95419     10894.18159                  16622068.2644
  19548172.849       52851.47119
 96  4 20 14 10  0.0000000  0 10 22 19  3 31 29 28 27  4 18 14
  20030199.710      275077.78759    160930.83949  20030200.0664   20030206.4774
  17725504.978       25239.88859     17206.65449  17725506.6364   17725511.8784
  20018550.131       28452.309 9     20173.09259                  20018557.8504
  19994124.973      -39787.463 9    -26716.31459                  19994132.1764
  17229631.656      164138.44559    110357.88149  17229633.2144   17229637.8254
  20172437.115       51480.214 9     36155.90559                  20172440.6284
  20455305.559      -25271.040 9    -17192.51359                  20455310.1984
  21899742.344      199641.655 9
  16627460.086       48277.44159     32995.59149  16627460.8014   16627465.8674
  19580344.905      221908.575 9
 96  4 20 14 10 30.0000000  0  9 22 19  3 31 29 28 27 18 14
  23957956.588      435114.53949    285634.75349  23957956.5514   23957963.5154
  21625278.576       38229.52049     27328.44649  21625280.3724   21625285.7744
  23918433.573       42009.75259     30737.32549  23918433.2774   23918439.5364
  23886615.380      -65086.06559    -46429.45449  23886613.1344   23886620.9964
  21144841.200      258241.37649    183684.82149  21144842.2204   21144847.0674
  24075396.306       81221.62419     59331.029 9  24075396.838    24075401.349
  24349349.972      -42376.59059    -30521.50049  24349349.8444   24349357.9284
  20529878.615       75167.55949     53948.92949  20529879.5544   20529884.7574
  23509475.043      389184.773 9
 96  4 20 14 11  0.0000000  0  9 22 19  3 31 29 28 27 18 14
  23988112.405      593601.11459    409130.74759  23988114.0104   23988121.5914
  21627447.319       49620.81959     36204.79459  21627447.7804   21627453.5714
  23920743.257       54135.89059     40186.26259  23920741.1814   23920748.0994
  23881476.644      -92091.49659    -67472.62959  23881476.2384   23881482.1124
  21162475.137      350911.87959    255895.58759  21162477.0294   21162481.9094
  24080796.297      109600.96519     81444.80119  24080796.336    24080802.447
  24345758.487      -61254.54659    -45231.59459  24345757.9694   24345764.6134
  20534723.694      100630.56259     73790.23059  20534724.9774   20534730.1984
  23541000.103      554847.561 9
 96  4 20 14 11 30.0000000  0  9 22 19  3 31 29 28 27 18 14
  24017971.658      750494.08549    531384.97349  24017970.8964   24017976.7414
  21629322.300       59476.46549     43884.51849  21629323.6424   21629329.1764
  23922778.230       64847.13749     48532.68849  23922779.5674   23922785.3494
  23876022.222     -120743.57649    -89798.89149  23876021.8394   23876029.5904
  21179840.897      442167.92749    327004.17649  21179842.5104   21179847.4424
  24085944.973      136661.180 9    102530.678 9  24085945.777    24085952.069
  24341840.033      -81837.88249    -61270.56749  24341841.1864   24341848.4504
  20539308.133      124717.75149     92559.46349  20539309.0144   20539314.1514
  23572214.689      718880.728 9    126760.39859                  23572223.7854
 96  4 20 14 12  0.0000000  0  9 22 19  3 31 29 28 27 18 14
  24047534.523      905854.05449    652444.64449  24047534.7004   24047541.3484
  21630917.636       67861.79949     50418.55249  21630919.3254   21630925.2734
  23924562.359       74223.84949     55839.20949  23924562.8984   23924570.0504
  23870272.980     -150948.96149   -113335.52649  23870274.6874   23870282.6224
  21196952.511      532089.95449    397073.27049  21196954.1144   21196958.9904
  24090859.599      162483.667 9    122652.091 9  24090860.313    24090865.694
  24337615.389     -104042.27749    -78572.69749  24337616.6474   24337623.2474
  20543642.819      147496.47849    110309.11649  20543643.6294   20543648.9054
  23603134.012      881359.22359    253366.95759  23603135.0794   23603141.7704
 96  4 20 14 12 30.0000000  0  9 22 19  3 31 29 28 27 18 14
  24076826.475     1059782.43749    772388.79449  24076826.4504   24076832.9554
  21632251.737       74870.85349     55880.16149  21632253.1624   21632258.9664
  23926114.051       82377.84249     62192.95249  23926115.4034   23926121.3454
  23864252.043     -182593.71949   -137993.75849  23864252.7364   23864259.4974
  21213832.877      620798.05549    466196.44849  21213834.2994   21213839.5174
  24095557.608      187176.690 9    141893.393 9  24095558.557    24095564.439
  24333102.380     -127763.00449    -97056.38949  24333102.7054   24333109.0344
  20547746.436      169061.98449    127113.40349  20547747.3644   20547752.5624
  23633776.807     1042387.47759    378843.47949  23633778.4534   23633784.6924
 96  4 20 14 13  0.0000000  0  9 22 19  3 31 29 28 27 18 14
  24105854.293     1212322.99049    891251.52049  24105854.1564   24105860.2544
  21633330.088       80537.50549     60295.73849  21633331.4714   21633337.1954
  23927439.808       89340.07349     67618.07549  23927441.0674   23927445.7094
  23857967.427     -215621.58849   -163729.74349  23857967.7984   23857975.5704
  21230494.963      708356.71349    534423.95449  21230495.9414   21230501.4144
  24100051.050      210789.871 9    160293.257 9  24100051.951    24100057.966
  24328304.557     -152970.56249   -116698.64749  24328306.3144   24328312.5894
  20551626.225      189450.11449    143000.24849  20551627.2454   20551632.4514
  23664150.065     1202000.38149    503217.13049  23664151.3174   23664158.0414
 96  4 20 14 13 30.0000000  0  9 22 19  3 31 29 28 27 18 14
  24134632.504     1363552.97049   1009093.02449  24134632.4064   24134638.7094
  21634164.886       84926.46649     63715.70749  21634166.3324   21634172.4914
  23928552.591       95190.46749     72176.81649  23928553.0614   23928560.0584
  23851433.296     -249957.52449   -190485.00349  23851434.2104   23851440.8364
  21246952.775      794846.16749    601818.31849  21246954.5634   21246959.6594
  24104353.075      233393.217 9    177906.246 9  24104353.342    24104359.749
  24323238.822     -179593.46749   -137443.76949  24323240.0654   24323245.9484
  20555293.416      208720.69749    158016.28049  20555294.2244   20555299.3584
  23694266.285     1360263.45049    626538.95849  23694267.5834   23694274.4474
 96  4 20 14 14  0.0000000  0  9 22 19  3 31 29 28 27 18 14
  24163177.130     1513562.31449   1125983.37949  24163178.4634   24163185.2754
  21634767.450       88091.84649     66182.24049  21634768.9174   21634774.8464
  23929474.864      100033.41949     75950.55549  23929475.5604   23929481.2574
  23844664.776     -285525.27949   -218200.12949  23844666.1214   23844672.5554
  21263220.889      880333.54749    668431.84249  21263222.6714   21263227.5664
  24108475.127      255060.937 9    194790.174 9  24108476.668    24108483.105
  24317920.858     -207539.91849   -159220.22149  24317922.2004   24317928.7354
  20558760.251      226938.87249    172212.25349  20558761.2354   20558766.1494
  23724140.174     1517249.75849    748865.90849  23724141.5414   23724147.6084
 96  4 20 14 14 30.0000000  0  9 22 19  3 31 29 28 27 18 14
  24191509.203     1662444.63249   1241995.52749  24191509.9884   24191516.7164
  21635152.239       90115.87149     67759.40749  21635153.9544   21635160.2524
  23930221.181      103964.20749     79013.50049  23930222.8714   23930228.3644
  23837673.135     -322260.97249   -246825.35649  23837675.3194   23837682.1924
  21279311.998      964892.50649    734321.91949  21279313.5694   21279318.7344
  24112436.511      275874.094 9    211008.210 9  24112437.534    24112443.460
  24312368.573     -236712.47949   -181952.08249  24312370.2024   24312376.7654
  20562044.057      244196.38049    185659.65549  20562045.1134   20562050.2084
  23753785.246     1673036.45149    870258.09049  23753786.3464   23753793.0954
 96  4 20 14 15  0.0000000  0  9 22 19  3 31 29 28 27 18 14
  24219631.801     1810231.13649   1357153.80349  24219632.3764   24219638.9594
  21635330.796       91052.78549     68489.46949  21635332.3084   21635338.1654
  23930805.008      107030.18349     81402.58349  23930807.6954   23930814.0614
  23830467.940     -360131.30949   -276334.70949  23830469.0124   23830475.6974
  21295231.220     1048549.52249    799509.18649  21295233.2074   21295238.3684
  24116242.175      295872.755 9    226591.571 9  24116243.089    24116249.081
  24306595.184     -267053.39349   -205594.33649  24306596.2014   24306603.0414
  20565154.098      260539.70949    198394.71249  20565155.2224   20565160.4304
  23783208.115     1827655.52549    990740.44849  23783209.7024   23783214.4474
 96  4 20 14 15 30.0000000  0  9 22 19  3 31 29 28 27 18 14
  24247556.496     1956975.99849   1471500.41049  24247557.7614   24247563.9144
  21635317.550       90984.49949     68436.25749  21635319.3394   21635325.7594
  23931238.958      109310.28649     83179.28749  23931240.9284   23931247.4784
  23823056.030     -399078.38249   -306683.08449  23823058.7524   23823063.4774
  21310989.726     1131359.19249    864036.18249  21310991.5464   21310996.5854
  24119906.212      315124.373 9    241592.824 9  24119906.624    24119912.496
  24300615.819     -298477.66049   -230080.78849  24300616.4634   24300623.2214
  20568103.590      276039.41249    210472.39749  20568104.7884   20568109.7194
  23812420.651     1981170.04749   1110362.11049  23812423.3564   23812428.6594
 96  4 20 14 16  0.0000000  0  9 22 19  3 31 29 28 27 18 14
  24275296.776     2102753.16949   1585092.98049  24275297.6574   24275304.3984
  21635127.374       89984.81249     67657.27549  21635128.9764   21635134.9364
  23931535.772      110873.70849     84397.54549  23931538.4044   23931545.4684
  23815455.747     -439020.51349   -337806.80949  23815457.2764   23815462.3454
  21326598.625     1213384.22149    927951.77049  21326600.5964   21326605.6124
  24123440.470      333705.037 9    256071.258 9  24123442.392    24123448.670
  24294442.811     -330918.72849   -255359.52549  24294444.0964   24294450.4604
  20570908.367      290779.63549    221958.28349  20570909.6224   20570914.6234
  23841435.694     2133637.75549   1229168.07149  23841436.8914   23841443.1484
 96  4 20 14 16 30.0010000  0  8 19  3 31 29 28 27 18 14
  21634775.113       88133.48249     66214.68249  21634777.1424   21634783.0174
  23931707.652      111771.62849     85097.23149  23931708.8584   23931715.9414
  23807677.800     -479893.75749   -369656.08649  23807679.7864   23807685.3644
  21342069.941     1294686.31249    991304.02649  21342071.8774   21342076.7904
  24126862.505      351681.121 9    270078.604 9  24126863.052    24126869.589
  24288081.814     -364344.55249   -281405.65149  24288082.6324   24288088.7274
  20573583.351      304835.55749    232910.94049  20573584.5984   20573589.7144
  23870261.807     2285126.22949   1347210.99649  23870263.7494   23870268.8554
 96  4 20 14 17  0.0010000  0  9 22 19  3 31 29 28 27 18 14
  24330266.626      144960.79019     98143.58859                  24330273.0314
  21634270.446       85480.87849     64147.71749  21634272.2174   21634278.0314
  23931757.070      112036.87649     85303.90949  23931758.9614   23931767.6734
  23799736.886     -521620.97749   -402170.79049  23799737.6754   23799744.5564
  21357413.579     1375317.62849   1054133.60249  21357415.4374   21357420.5194
  24130178.669      369109.326 9    283659.013 9  24130179.695    24130186.043
  24281541.880     -398710.56049   -308184.33849  24281542.3044   24281548.8004
  20576138.599      318265.93249    243376.16449  20576140.0404   20576145.3814
  23898910.645     2435676.58649   1464522.91349  23898911.7894   23898919.1614
 96  4 20 14 17 30.0010000  0  9 22 19  3 31 29 28 27 18 14
  24357515.628      288152.71659    209721.74249  24357516.7374   24357523.7574
  21633620.883       82068.41849     61488.66449  21633622.8424   21633628.7504
  23931698.980      111725.84549     85061.56049  23931700.9004   23931707.3894
  23791646.660     -564134.03049   -435297.82449  23791647.9994   23791655.3074
  21372640.342     1455334.62549   1116484.48849  21372642.2244   21372647.4904
  24133399.930      386043.865 9    296854.755 9  24133402.475    24133408.416
  24274830.564     -433978.10249   -335665.53449  24274830.6914   24274838.6974
  20578586.256      331127.17949    253397.91049  20578587.2284   20578592.9134
  23927390.062     2585336.33949   1581140.85249  23927390.9974   23927398.0664
 96  4 20 14 18  0.0010000  0  9 22 19  3 31 29 28 27 18 14
  24384618.352      430576.57649    320701.34149  24384619.0934   24384626.1504
  21632832.308       77923.95049     58259.21249  21632834.0944   21632840.1654
  23931539.328      110887.44849     84408.26749  23931541.4054   23931548.7534
  23783416.812     -607382.22049   -468997.69549  23783417.5794   23783424.7824
  21387757.006     1534773.26349   1178384.71149  21387758.9094   21387763.9244
  24136537.523      402521.850 9    309694.756 9  24136538.055    24136544.332
  24267952.240     -470122.21949   -363829.77849  24267953.5454   24267960.5124
  20580933.675      343463.28049    263010.45749  20580934.9364   20580940.3094
  23955707.224     2734146.51949   1697096.77749  23955708.7664   23955716.2084
 96  4 20 14 18 30.0010000  0  9 22 19  3 31 29 28 27 18 14
  24411581.167      572263.86359    431106.99159  24411581.8164   24411588.1854
  21631911.649       73087.07749     54490.21949  21631913.7804   21631919.6194
  23931289.990      109578.58049     83388.37849  23931292.4864   23931298.8504
  23775055.921     -651318.24049   -503233.51749  23775057.0704   23775063.0634
  21402774.883     1613693.57649   1239881.04649  21402776.8564   21402781.9724
  24139594.325      418591.557 9    322216.627 9  24139595.779    24139602.240
  24260918.650     -507088.94349   -392635.01749  24260918.8734   24260925.7704
  20583190.151      355321.14049    272250.35049  20583191.5214   20583197.0254
  23983875.477     2882166.50649   1812436.98149  23983876.6824   23983882.4594
 96  4 20 14 19  0.0010000  0  9 22 19  3 31 29 28 27 18 14
  24438409.793      713254.00849    540969.41349  24438410.9374   24438418.5944
  21630867.633       67600.83749     50215.22349  21630869.7414   21630875.6554
  23930963.177      107858.93749     82048.41349  23930964.8404   23930970.9754
  23766576.027     -695881.06149   -537957.77949  23766577.6124   23766584.3474
  21417707.706     1692165.09649   1301027.66749  21417709.6264   21417714.8284
  24142584.107      434305.593 9    334461.351 9  24142586.139    24142592.605
  24253740.487     -544805.76249   -422024.74949  24253742.1004   24253748.7064
  20585364.165      366744.84649    281151.94149  20585365.4394   20585370.7894
  24011901.472     3029446.08049   1927200.22849  24011902.8834   24011909.4044
 96  4 20 14 19 30.0010000  0  9 22 19  3 31 29 28 27 18 14
  24465110.566      853568.63949    650305.42449  24465112.2504   24465119.7054
  21629710.103       61516.05849     45473.84249  21629712.0144   21629717.4184
  23930567.337      105780.11749     80428.54849  23930568.1104   23930575.2844
  23757979.908     -741049.71149   -573154.11749  23757982.3374   23757988.6404
  21432562.004     1770226.72749   1361854.88649  21432564.1224   21432569.2794
  24145514.110      449700.480 9    346457.362 9  24145515.532    24145522.327
  24246425.479     -583241.18449   -451974.44349  24246427.4804   24246433.8124
  20587462.086      377769.75749    289742.77349  20587463.7274   20587468.6754
  24039794.453     3176028.07949   2041419.90649  24039796.8334   24039803.6754
 96  4 20 14 20  0.0010000  0  9 22 19  3 31 29 28 27 18 14
  24491693.574      993261.49149    759156.94049  24491694.7334   24491702.5084
  21628447.198       54880.35449     40303.17149  21628449.0794   21628454.6254
  23930111.205      103384.23649     78561.66749  23930113.1634   23930119.8704
  23749276.885     -786788.99949   -608795.11349  23749279.3234   23749285.3984
  21447347.764     1847927.23849   1422400.73549  21447350.1074   21447355.1554
  24148392.674      464825.904 9    358243.418 9  24148394.098    24148400.064
  24238983.895     -622350.63149   -482449.33449  24238984.9364   24238990.4974
  20589491.825      388436.10149    298054.20149  20589493.2154   20589498.3024
  24067566.850     3321962.79049   2155135.21749  24067567.6534   24067574.1254
 96  4 20 14 20 30.0010000  0  9 22 19  3 31 29 28 27 18 14
  24518163.907     1132363.36949    867547.98049  24518165.7154   24518172.0524
  21627087.374       47735.78349     34735.97149  21627089.4114   21627095.2334
  23929601.838      100704.73949     76473.75849  23929603.8034   23929609.0324
  23740470.111     -833067.98149   -644856.63449  23740471.0054   23740478.1054
  21462072.348     1925303.58049   1482693.97349  21462074.6034   21462079.4254
  24151226.469      479723.335 9    369851.814 9  24151228.599    24151235.153
  24231422.471     -662085.24149   -513411.37449  24231424.1944   24231429.8584
  20591459.055      398774.71249    306110.25649  20591460.5384   20591465.5874
  24095218.132     3467275.63049   2268365.94849  24095219.4374   24095226.7894
 96  4 20 14 21  0.0010000  0  9 22 19  3 31 29 28 27 18 14
  24544532.813     1270929.94149    975521.90949  24544534.0864   24544539.9264
  21625640.078       40128.87449     28808.51549  21625641.8284   21625647.7844
  23929044.328       97777.78949     74193.03649  23929046.4324   23929053.0704
  23731566.235     -879859.02649   -681317.17149  23731568.3994   23731573.3734
  21476738.224     2002372.81849   1542747.90449  21476740.0994   21476745.3974
  24154026.556      494429.620 9    381311.270 9  24154027.201    24154033.648
  24223748.643     -702414.57449   -544836.84049  24223750.0754   24223755.2564
  20593371.224      408821.34949    313938.80549  20593372.4704   20593377.8154
  24122755.553     3611985.55649   2381126.87449  24122757.4224   24122763.8204
 96  4 20 14 21 30.0010000  0  9 22 19  3 31 29 28 27 18 14
  24570805.750     1408996.93949   1083106.55149  24570806.9084   24570813.9874
  21624107.723       32076.89649     22534.25049  21624109.5904   21624115.3294
  23928444.555       94622.58749     71734.46749  23928447.1264   23928452.7634
  23722567.974     -927144.29549   -718162.80449  23722569.4674   23722576.7424
  21491345.610     2079135.01449   1602562.59349  21491347.5844   21491352.6834
  24156791.684      508965.674 9    392638.080 9  24156793.167    24156799.914
  24215962.732     -743329.03449   -576718.24049  24215964.3554   24215969.4454
  20595230.436      418594.31849    321554.10449  20595232.1634   20595237.0544
  24150180.163     3756102.76349   2493425.93049  24150181.7194   24150188.5124
 96  4 20 14 22  0.0010000  0  9 22 19  3 31 29 28 27 18 14
  24596988.387     1546589.31949   1190321.36149  24596989.0834   24596996.2344
  21622491.588       23584.64149     15916.91149  21622493.6334   21622499.7084
  23927804.025       91257.52549     69112.36749  23927805.2674   23927812.1494
  23713482.483     -974886.97049   -755364.85849  23713485.1314   23713491.0804
  21505898.071     2155611.30649   1662154.49449  21505900.6404   21505905.7244
  24159529.774      523352.611 9    403848.683 9  24159531.235    24159537.606
  24208069.858     -784801.27249   -609034.28249  24208071.9414   24208078.3904
  20597041.219      428108.67949    328967.88549  20597042.7304   20597047.8644
  24177493.687     3899636.69949   2605270.50449  24177496.3614   24177502.0414
 96  4 20 14 22 30.0010000  0  9 22 19  3 31 29 28 27 18 14
  24623084.679     1683720.27249   1297176.63149  24623085.8534   24623092.6214
  21620796.388       14675.95749      8975.08749  21620798.6354   21620804.3004
  23927128.544       87709.82849     66347.94749  23927130.8324   23927136.7694
  23704317.871    -1023049.87849   -792894.36149  23704319.7014   23704325.9024
  21520402.171     2231828.97849   1721544.87449  21520404.2774   21520409.3854
  24162243.584      537612.758 9    414960.502 9  24162244.726    24162251.156
  24200080.483     -826795.11849   -641756.75049  24200080.7794   24200086.3534
  20598808.610      437395.64349    336204.47649  20598810.1524   20598815.1654
  24204703.420     4042624.28249   2716689.34549  24204705.3074   24204712.0974
 96  4 20 14 23  0.0010000  0  9 22 19  3 31 29 28 27 18 14
  24649092.535     1820397.78449   1403678.58449  24649094.2724   24649101.3494
  21619023.082        5357.49249      1713.95049  21619025.3674   21619031.1044
  23926421.139       83992.33549     63451.20949  23926423.2374   23926429.3654
  23695078.112    -1071603.39149   -830728.23449  23695080.6054   23695086.8684
  21534860.465     2307808.45649   1780749.65249  21534862.5674   21534867.7794
  24164934.451      551756.161 9    425981.346 9  24164935.901    24164942.233
  24191990.307     -869303.90749   -674880.49149  24191991.2254   24191998.9224
  20600536.083      446473.95449    343278.48149  20600537.6494   20600542.8314
  24231813.558     4185089.78449   2827701.36749  24231815.4204   24231822.0764
 96  4 20 14 23 30.0010000  0  9 22 19  3 31 29 28 27 18 14
  24675010.936     1956601.26049   1509811.12149  24675012.6364   24675020.0894
  21617172.711       -4367.61349     -5864.04449  21617174.7684   21617180.6294
  23925681.696       80109.44149     60425.59449  23925683.5304   23925690.1894
  23685767.664    -1120528.43549   -868851.61049  23685770.0574   23685776.3844
  21549277.924     2383573.00749   1839786.95149  21549280.1484   21549285.1474
  24167605.342      565793.647 9    436919.666 9  24167607.010    24167613.883
  24183807.437     -912306.67149   -708389.13549  24183809.0034   24183814.9104
  20602225.970      455355.40449    350199.09249  20602227.6194   20602232.8464
  24258827.431     4327046.77449   2938317.16349  24258830.6284   24258835.6004
 96  4 20 14 24  0.0010000  0  9 22 19  3 31 29 28 27 18 14
  24700838.799     2092328.97449   1615572.92849  24700841.1034   24700847.6814
  21615246.746      -14488.51049    -13750.45149  21615248.7994   21615254.5944
  23924915.558       76076.81049     57283.29549  23924917.1684   23924923.1784
  23676390.918    -1169807.19149   -907250.59149  23676392.2924   23676398.9194
  21563657.840     2459140.35749   1898670.58249  21563660.2104   21563665.4054
  24170259.638      579740.997 9    447787.742 9  24170261.464    24170268.323
  24175534.954     -955782.34349   -742266.27049  24175535.4314   24175541.7764
  20603884.854      464072.07049    356991.29649  20603886.2584   20603891.5184
  24285747.233     4468511.00449   3048548.97349  24285750.1844   24285756.0684
 96  4 20 14 24 30.0010000  0  9 22 19  3 31 29 28 27 18 14
  24726581.106     2227602.01349   1720980.46249  24726582.4134   24726589.7924
  21613249.844      -24981.62849    -21926.90649  21613251.8084   21613257.8924
  23924124.394       71921.41049     54045.33049  23924125.5204   23924132.8794
  23666951.481    -1219409.64149   -945901.80949  23666954.1294   23666960.2574
  21578004.617     2534531.05549   1957416.56549  21578006.6854   21578011.8144
  24172902.771      593626.685 9    458607.769 9  24172903.878    24172910.588
  24167176.001     -999705.28349   -776491.95349  24167178.5844   24167183.9764
  20605519.631      472661.80749    363684.59649  20605521.0984   20605526.2944
  24312576.655     4609495.23749   3158406.76049  24312577.3904   24312583.9134
 96  4 20 14 25  0.0010000  0  9 22 19  3 31 29 28 27 18 14
  24752241.483     2362447.15849   1826054.57549  24752242.3334   24752249.7314
  21611186.154      -35825.53149    -30376.69649  21611188.3074   21611194.2074
  23923312.368       67656.96949     50722.40449  23923314.7164   23923320.6374
  23657454.347    -1269318.33649   -984791.65249  23657456.5114   23657462.3684
  21592320.988     2609764.07849   2016039.68549  21592323.0454   21592328.2234
  24175535.981      607475.196 9    469398.831 9  24175538.273    24175545.984
  24158735.157    -1044064.66349   -811057.69449  24158735.7984   24158742.2944
  20607134.445      481148.29049    370297.44249  20607136.0564   20607141.1984
  24339309.563     4749979.69649   3267875.11449  24339311.3364   24339317.6784
 96  4 20 14 25 30.0010000  0  9 22 19  3 31 29 28 27 18 14
  24777823.424     2496880.96749   1930808.17149  24777823.1234   24777832.0014
  21609060.039      -46998.05249    -39082.55149  21609062.3514   21609068.1054
  23922482.991       63300.25149     47327.57049  23922485.7824   23922492.0904
  23647901.166    -1319522.96549  -1023912.08249  23647903.2764   23647909.2794
  21606610.531     2684854.97349   2074552.05249  21606612.5644   21606617.5404
  24178169.393      621307.593 9    480177.340 9  24178170.925    24178178.036
  24150212.971    -1088842.15549   -845949.25549  24150215.8574   24150220.4044
  20608733.821      489553.53549    376846.98649  20608735.6084   20608740.6944
  24365946.185     4889953.59349   3376945.61749  24365946.3044   24365954.3554
 96  4 20 14 26  0.0010000  0  9 22 19  3 31 29 28 27 18 14
  24803331.662     2630934.20649   2035265.21049  24803333.8794   24803342.0124
  21606875.572      -58477.99949    -48027.96349  21606877.8494   21606883.7404
  23921642.393       58883.35749     43885.85049  23921645.4124   23921651.4044
  23638298.550    -1369986.67449  -1063234.40849  23638300.0654   23638305.9994
  21620877.035     2759826.82149   2132971.66149  21620879.0514   21620884.3044
  24180802.273      635145.002 9    490959.752 9  24180804.020    24180811.078
  24141612.769    -1134037.70949   -881166.56149  24141615.0954   24141621.0804
  20610321.222      497895.26349    383347.03049  20610322.7514   20610327.9014
  24392485.851     5029419.59349   3485620.36149  24392487.3474   24392492.8814
 96  4 20 14 26 30.0010000  0  9 22 19  3 31 29 28 27 18 14
  24828772.528     2764625.78949   2139440.43649  24828775.0834   24828782.0814
  21604638.211      -70234.22049    -57188.65249  21604640.5694   21604646.5984
  23920796.512       54434.17149     40418.95949  23920798.0564   23920804.8304
  23628650.655    -1420686.55149  -1102740.75849  23628652.0324   23628657.9764
  21635126.224     2834706.93849   2191319.79449  21635128.4084   21635133.3194
  24183440.252      649009.514 9    501763.278 9  24183442.735    24183449.436
  24132935.519    -1179636.18049   -916697.82349  24132938.3744   24132945.0974
  20611897.149      506176.80749    389800.17949  20611898.7664   20611903.9634
  24418930.073     5168389.15049   3593908.25949  24418931.6424   24418938.8684
 96  4 20 14 27  0.0010000  0  9 22 19  3 31 29 28 27 18 14
  24854147.359     2897965.05549   2243341.15749  24854148.8424   24854155.4984
  21602358.054      -82216.70749    -66525.65049  21602360.2794   21602366.0164
  23919950.983       49988.45449     36954.77849  23919951.4564   23919959.1024
  23618959.359    -1471609.87449  -1142421.21749  23618961.9944   23618967.6054
  21649363.011     2909523.16049   2249618.14049  21649365.3104   21649370.4354
  24186088.630      662925.226 9    512606.700 9  24186090.297    24186097.770
  24124186.574    -1225614.88549   -952525.38049  24124187.8224   24124194.7264
  20613466.079      514420.67649    396223.97049  20613467.6524   20613472.7694
  24445290.584     5306911.72149   3701847.86249  24445291.8894   24445298.7254
 96  4 20 14 27 30.0010000  0  9 22 19  3 31 29 28 27 18 14
  24879453.560     3030952.58049   2346967.77549  24879455.8884   24879460.9504
  21600040.254      -94398.71349    -76018.11849  21600042.3484   21600048.2224
  23919111.904       45580.50549     33520.03149  23919114.1974   23919120.9344
  23609232.727    -1522726.45249  -1182252.27249  23609234.4284   23609240.8274
  21663590.192     2984286.19849   2307875.04149  21663592.2214   21663597.4114
  24188749.583      676914.238 9    523507.231 9  24188752.266    24188759.769
  24115368.865    -1271954.62349   -988634.26149  24115370.1434   24115376.2804
  20615031.072      522644.89849    402632.45649  20615032.4954   20615037.7434
  24471576.019     5445048.54549   3809486.88149  24471578.3294   24471585.5904
 96  4 20 14 28  0.0010000  0  9 22 19  3 31 29 28 27 18 14
  24904694.897     3163595.47149   2450325.83149  24904695.6474   24904701.6654
  21597686.264     -106768.62549    -85657.00649  21597688.3134   21597694.3114
  23918282.882       41225.89749     30126.84949  23918285.7494   23918291.2854
  23599471.950    -1574018.81749  -1222220.30849  23599473.3514   23599480.2024
  21677807.849     3059001.50249   2366094.75249  21677810.0274   21677815.2294
  24191429.061      690990.629 9    534475.855 9  24191430.738    24191438.082
  24106482.800    -1318646.16249  -1025017.26349  24106485.0484   24106491.5244
  20616594.504      530861.98849    409035.38349  20616596.1934   20616601.3094
  24497797.490     5582842.23149   3916858.52649  24497799.8134   24497806.4834
 96  4 20 14 28 30.0010000  0  9 22 19  3 31 29 28 27 18 14
  24929874.385     3295917.05549   2553433.51349  24929875.0364   24929882.8044
  21595301.000     -119303.12649    -95424.14749  21595303.2044   21595308.9834
  23917467.992       36941.63049     26788.47049  23917469.9304   23917476.0024
  23589679.669    -1625480.91249  -1262320.60349  23589680.5134   23589687.0324
  21692019.250     3133683.74249   2424288.69249  21692021.8894   21692027.0694
  24194129.345      705177.727 9    545530.741 9  24194130.679    24194137.977
  24097539.049    -1365651.99249  -1061645.17749  24097539.6614   24097545.9644
  20618162.393      539100.47249    415454.98149  20618164.1634   20618169.2584
  24523963.978     5720344.30749   4024002.94249  24523965.6214   24523972.4034
 96  4 20 14 29  0.0010000  0  9 22 19  3 31 29 28 27 18 14
  24955000.250     3427956.08649   2656321.01849  24955001.7734   24955008.7194
  21592888.966     -131979.71749   -105302.00149  21592891.0174   21592896.5424
  23916669.291       32751.83049     23523.72349  23916672.2814   23916679.5334
  23579860.658    -1677069.29649  -1302519.28349  23579863.7194   23579869.1494
  21706229.894     3208360.20449   2482478.13449  21706232.1614   21706237.4474
  24196855.795      719508.873 9    556697.866 9  24196857.916    24196865.347
  24088540.357    -1412937.72149  -1098491.19549  24088540.6834   24088547.9474
  20619741.583      547398.38549    421920.88149  20619743.0454   20619748.1754
  24550078.369     5857582.35249   4130941.60749  24550080.6084   24550088.3704
 96  4 20 14 29 30.0010000  0  9 22 19  3 31 29 28 27 18 14
  24980077.130     3559732.00249   2759003.51149  24980078.7724   24980085.6274
  21590445.552     -144819.43049   -115306.96449  21590447.6614   21590453.2394
  23915890.662       28656.65549     20332.69849  23915892.5784   23915899.7724
  23570025.027    -1728762.21649  -1342799.45049  23570027.1184   23570033.6654
  21720441.130     3283041.86749   2540671.62749  21720443.5274   21720448.6014
  24199611.743      733990.449 9    567982.208 9  24199613.278    24199621.150
  24079488.861    -1460503.41149  -1135555.34949  24079489.8984   24079496.5844
  20621330.804      555751.07749    428429.47349  20621332.4864   20621337.5824
  24576139.064     5994526.90749   4237651.58649  24576141.2514   24576148.2984
 96  4 20 14 30  0.0010000  0  9 22 19  3 31 29 28 27 18 14
  25005108.238     3691270.92849   2861501.35849  25005109.5754   25005117.7074
  21587970.355     -157825.86549   -125441.83549  21587972.5354   21587978.4694
  23915130.210       24657.42949     17216.45849  23915131.3264   23915138.7044
  23560168.264    -1780561.42249  -1383162.42749  23560169.1724   23560175.9014
  21734656.258     3357745.68049   2598882.38249  21734659.1124   21734664.5324
  24202399.894      748627.401 9    579387.631 9  24202398.936    24202406.689
  24070387.487    -1508332.45449  -1172824.73149  24070388.7004   24070395.2254
  20622930.132      564155.17649    434978.12349  20622931.7324   20622936.8234
  24602139.728     6131156.82549   4344116.38549  24602140.9954   24602148.4474
 96  4 20 14 30 30.0010000  0  9 22 19  3 31 29 28 27 18 14
  25030095.604     3822578.36549   2963818.84549  25030097.0054   25030104.4984
  21585464.264     -170995.25949   -135703.70149  21585466.4864   21585472.4124
  23914389.358       20762.47549     14181.45049  23914391.5684   23914397.4714
  23550293.282    -1832453.86849  -1423598.07949  23550294.5474   23550300.9244
  21748878.314     3432477.63849   2657115.06449  21748880.3384   21748885.4444
  24205212.005      763424.994 9    590918.211 9  24205214.661    24205222.606
  24061237.124    -1556416.72749  -1210292.98949  24061238.6774   24061244.6244
  20624538.606      572607.13749    441564.06349  20624540.1714   20624545.2364
  24628074.209     6267450.20049   4450318.94249  24628076.6404   24628083.8394
 96  4 20 14 31  0.0010000  0  9 22 19  3 31 29 28 27 18 14
  25055042.541     3953677.79249   3065974.22149  25055044.7024   25055049.5394
  21582933.786     -184293.38849   -146065.87349  21582935.8554   21582941.5854
  23913674.411       17008.59749     11256.38049  23913676.1504   23913682.7334
  23540410.371    -1884386.28249  -1464064.86449  23540412.1014   23540419.3384
  21763112.681     3507281.49449   2715403.77749  21763114.7714   21763119.9264
  24208066.747      778421.373 9    602603.703 9  24208068.421    24208076.144
  24052042.853    -1604729.40249  -1247939.21349  24052044.8434   24052051.2674
  20626163.812      581148.04949    448219.32149  20626165.4214   20626170.4624
  24653948.696     6403414.62649   4556265.18249  24653949.8474   24653956.8434
 96  4 20 14 31 30.0010000  0  9 22 19  3 31 29 28 27 18 14
  25079951.253     4084568.34549   3167966.81349  25079952.2554   25079958.3684
  21580376.269     -197732.56249   -156537.95349  21580378.5804   21580384.2774
  23912988.052       13403.79049      8447.46249  23912990.3914   23912997.1034
  23530520.873    -1936360.24349  -1504564.03849  23530521.2734   23530528.5104
  21777360.297     3582152.13549   2773744.52149  21777362.4824   21777367.6914
  24210958.175      793617.472 9    614444.817 9  24210960.180    24210967.295
  24042805.276    -1653274.31349  -1285766.39449  24042806.8144   24042813.8934
  20627808.330      589790.29149    454953.52949  20627809.8884   20627814.9504
  24679761.147     6539064.04549   4661965.94449  24679762.5434   24679770.1234
 96  4 20 14 32  0.0010000  0  9 22 19  3 31 29 28 27 18 14
  25104820.327     4215257.50449   3269802.49949  25104822.1104   25104828.2324
  21577793.292     -211305.75249   -167114.45349  21577795.6844   21577801.5714
  23912331.442        9954.79049      5759.96149  23912334.4914   23912341.0414
  23520624.694    -1988363.30449  -1545085.87849  23520625.9834   23520632.2734
  21791619.922     3657087.43149   2832135.64849  21791622.2524   21791627.3054
  24213889.768      809024.679 9    626450.434 9  24213892.264    24213899.505
  24033524.895    -1702044.07049  -1323768.80649  24033526.3064   24033533.1434
  20629477.118      598560.94649    461787.80249  20629478.9254   20629484.0804
  24705518.685     6674422.15549   4767439.73449  24705520.9774   24705528.6884
 96  4 20 14 32 30.0010000  0  9 22 19  3 31 29 28 27 18 14
  25129648.686     4345732.33849   3371471.18849  25129650.4744   25129657.4124
  21575186.414     -225005.65849   -177789.69649  21575188.8344   21575194.4284
  23911708.003        6676.74249      3205.65749  23911709.6784   23911716.6744
  23510726.708    -2040378.66449  -1585617.29849  23510728.7764   23510734.2724
  21805892.906     3732092.23449   2890580.93049  21805895.3654   21805900.4524
  24216865.140      824653.721 9    638628.908 9  24216866.660    24216873.553
  24024201.662    -1751039.40749  -1361946.97649  24024202.9234   24024209.5534
  20631177.567      607496.72149    468750.74049  20631179.2454   20631184.4204
  24731221.543     6809494.18149   4872690.58449  24731224.2344   24731230.7114
 96  4 20 14 33  0.0010000  0  9 22 19  3 31 29 28 27 18 14
  25154435.023     4475989.92249   3472970.58949  25154437.9144   25154443.8704
  21572554.380     -238835.58249   -188566.25049  21572556.8694   21572562.6584
  23911117.721        3573.67349       787.70649  23911119.7004   23911126.2904
  23500823.018    -2092420.84549  -1626169.62549  23500825.1514   23500830.5624
  21820178.263     3807162.56949   2949077.28049  21820180.6204   21820185.8764
  24219880.372      840505.650 9    650981.059 9  24219883.090    24219890.019
  24014836.014    -1800260.53349  -1400301.08949  24014836.8914   24014842.9764
  20632912.017      616611.02849    475852.79649  20632913.7104   20632918.8284
  24756873.308     6944289.46149   4977725.78949  24756875.9664   24756882.1694
 96  4 20 14 33 30.0010000  0  8 19  3 31 29 28 27 18 14
  21569899.462     -252787.04649   -199437.51649  21569902.2784   21569907.9854
  23910565.660         668.98649     -1475.66049  23910567.2334   23910573.5584
  23490914.920    -2144487.63849  -1666741.12349  23490916.4584   23490923.2334
  21834474.886     3882290.75849   3007618.70649  21834477.1474   21834482.4314
  24222940.710      856587.792 9    663512.606 9  24222943.546    24222950.189
  24005428.312    -1849693.04249  -1438819.90749  24005430.7784   24005436.3474
  20634679.816      625900.19449    483091.10849  20634681.5134   20634686.7044
  24782474.359     7078823.95449   5082557.78049  24782476.6984   24782484.2474
 96  4 20 14 34  0.0010000  0  8 19  3 31 29 28 27 18 14
  21567226.739     -266835.46949   -210384.33549  21567228.7904   21567234.4044
  23910053.264       -2023.68549     -3573.83149  23910055.0384   23910061.6904
  23481002.903    -2196575.55249  -1707329.07849  23481004.6124   23481011.3414
  21848783.251     3957482.28449   3066209.48549  21848785.1334   21848790.7094
  24226047.719      872906.034 9    676228.123 9  24226049.130    24226054.903
  23995983.117    -1899326.16749  -1477495.05549  23995985.0054   23995991.7674
  20636479.736      635360.11549    490462.47449  20636481.4714   20636486.6344
  24808024.523     7213090.07749   5187180.64749  24808027.2204   24808032.5554
 96  4 20 14 34 30.0010000  0  8 19  3 31 29 28 27 18 14
  21564537.714     -280963.95849   -221393.54149  21564540.0844   21564546.0774
  23909583.996       -4483.43649     -5490.49849  23909586.8104   23909593.4264
  23471086.631    -2248685.00449  -1747933.81649  23471088.9194   23471093.9964
  21863107.478     4032756.57049   3124864.75449  21863109.9114   21863115.2904
  24229196.843      889462.535 9    689129.305 9  24229199.585    24229205.530
  23986501.204    -1949153.76949  -1516321.73849  23986503.2134   23986510.0004
  20638312.048      644986.51649    497963.56849  20638313.6574   20638318.7854
  24833523.063     7347081.68049   5291589.60149  24833523.8554   24833530.8304
 96  4 20 14 35  0.0010000  0  8 19  3 31 29 28 27 18 14
  21561837.667     -295154.14849   -232450.82949  21561839.8344   21561845.5824
  23909160.970       -6712.71749     -7227.58449  23909162.4194   23909169.0104
  23461171.208    -2300794.77549  -1788538.81649  23461172.5704   23461178.1094
  21877449.029     4108124.22049   3183592.77049  21877451.6994   21877457.1994
  24232395.688      906261.963 9    702219.769 9  24232396.608    24232402.224
  23976982.371    -1999174.82849  -1555299.17849  23976984.9024   23976990.4354
  20640170.760      654755.84749    505576.03549  20640172.5234   20640177.6134
  24858968.986     7480801.09649   5395786.46249  24858970.1404   24858977.5264
 96  4 20 14 35 30.0010000  0  8 19  3 31 29 28 27 18 14
  21559127.684     -309395.22149   -243547.76349  21559129.8464   21559135.5164
  23908778.038       -8718.74749     -8790.70649  23908780.7284   23908787.1104
  23451259.427    -2352875.60349  -1829121.25249  23451262.1884   23451268.1694
  21891812.996     4183603.53149   3242407.80249  21891814.7984   21891819.7864
  24235638.157      923308.270 9    715502.611 9  24235640.118    24235645.651
  23967427.297    -2049389.01249  -1594427.08249  23967429.0244   23967435.3234
  20642055.509      664660.67549    513294.07949  20642057.3684   20642062.4184
  24884358.668     7614229.82049   5499756.81149  24884360.7464   24884367.7874
 96  4 20 14 36  0.0010000  0  8 19  3 31 29 28 27 18 14
  21556410.152     -323674.11349   -254674.16349  21556412.8694   21556418.5994
  23908436.863      -10515.29049    -10190.59549  23908438.8784   23908445.5764
  23441355.946    -2404918.82849  -1869674.39449  23441357.6804   23441364.7654
  21906202.148     4259216.99249   3301327.35649  21906203.5594   21906208.9064
  24238929.529      940603.045 9    728979.049 9  24238931.490    24238936.489
  23957834.697    -2099800.59249  -1633708.82249  23957837.0514   23957841.4214
  20643968.395      674711.74849    521126.08449  20643970.2394   20643975.2514
  24909693.209     7747357.00549   5603492.19749  24909694.7084   24909701.6264
 96  4 20 14 36 30.0010000  0  8 19  3 31 29 28 27 18 14
  21553687.875     -337982.25949   -265823.36549  21553690.0474   21553695.6674
  23908133.016      -12113.28749    -11435.77949  23908134.5624   23908141.4924
  23431460.872    -2456916.87949  -1910192.32349  23431463.1034   23431470.0934
  21920617.852     4334975.50249   3360359.94049  21920620.0634   21920625.3654
  24242268.480      958149.757 9    742651.806 9  24242270.348    24242275.864
  23948206.249    -2150395.65449  -1673133.52649  23948208.2784   23948214.5294
  20645910.466      684917.20649    529078.38949  20645912.2064   20645917.3584
  24934966.573     7880174.91949   5706986.57149  24934967.8624   24934975.5934
 96  4 20 14 37  0.0010000  0  8 19  3 31 29 28 27 18 14
  21550960.743     -352312.38349   -276989.69349  21550963.1484   21550968.6684
  23907864.032      -13522.65349    -12533.98049  23907866.1914   23907873.3474
  23421576.506    -2508863.04649  -1950669.81949  23421578.2894   23421584.3944
  21935058.537     4410861.58949   3419491.93549  21935060.8704   21935066.1664
  24245658.183      975956.748 9    756527.385 9  24245658.841    24245664.174
  23938547.156    -2201156.30849  -1712687.28149  23938548.2144   23938554.7324
  20647883.979      695289.29949    537160.54149  20647885.6654   20647890.8854
  24960185.504     8012697.83149   5810251.10349  24960187.0334   24960194.2634
 96  4 20 14 37 30.0010000  0  8 19  3 31 29 28 27 18 14
  21548228.672     -366669.65449   -288177.17749  21548231.0974   21548236.8694
  23907634.666      -14725.72149    -13471.42449  23907636.4854   23907643.8714
  23411700.621    -2560759.73049  -1991108.75649  23411703.1614   23411709.2424
  21949521.494     4486865.54649   3478715.77749  21949524.0284   21949529.1964
  24249096.141      994032.034 9    770612.017 9  24249098.297    24249103.931
  23928860.340    -2252063.51749  -1752355.23449  23928862.1064   23928868.2024
  20649895.168      705858.01049    545395.89749  20649896.8044   20649902.0524
  24985351.254     8144942.02649   5913298.45649  24985352.4084   24985359.9214
 96  4 20 14 38  0.0010000  0  8 19  3 31 29 28 27 18 14
  21545489.407     -381064.30249   -299393.78449  21545491.7914   21545497.4104
  23907448.374      -15708.10749    -14236.91449  23907449.6974   23907456.0404
  23401832.388    -2612618.31649  -2031518.00949  23401834.4954   23401840.7654
  21964006.303     4562984.00149   3538028.84049  21964008.8554   21964013.9834
  24252587.037     1012376.549 9    784906.441 9  24252589.319    24252595.204
  23919147.822    -2303104.89649  -1792127.73849  23919148.4334   23919154.7764
  20651946.689      716638.26949    553796.09749  20651948.5504   20651953.7154
  25010467.071     8276926.24349   6016143.20449  25010467.9904   25010474.5274
 96  4 20 14 38 30.0010000  0  8 19  3 31 29 28 27 18 14
  21542739.179     -395518.09549   -310656.47749  21542741.3574   21542747.0084
  23907304.144      -16464.41449    -14826.24949  23907306.9404   23907313.4244
  23391972.384    -2664434.85349  -2071894.49549  23391974.3024   23391979.7654
  21978510.606     4639202.64249   3597419.96749  21978512.7034   21978517.9674
  24256129.098     1030992.765 9    799412.581 9  24256131.606    24256137.502
  23909409.422    -2354281.51049  -1832005.60149  23909410.5044   23909416.1254
  20654038.160      727628.81149    562360.15449  20654039.9344   20654045.2274
  25035532.696     8408653.48249   6118787.72949  25035535.3104   25035542.6524
 96  4 20 14 39  0.0010000  0  8 19  3 31 29 28 27 18 14
  21539973.580     -410051.18649   -321980.95949  21539975.7534   21539981.5344
  23907206.895      -16979.06849    -15227.27049  23907208.2894   23907215.1154
  23382122.875    -2716191.67449  -2112224.43649  23382124.0944   23382130.2214
  21993033.217     4715519.96049   3656887.99549  21993035.5424   21993040.7864
  24259725.058     1049886.170 9    814134.711 9  24259727.117    24259733.363
  23899640.337    -2405612.91449  -1872004.08149  23899641.7104   23899648.1134
  20656169.970      738832.43549    571090.25549  20656171.8004   20656176.9924
  25060551.571     8540132.31849   6221238.69449  25060555.3744   25060562.7004
 96  4 20 14 39 30.0010000  0  8 19  3 31 29 28 27 18 14
  21537191.343     -424671.03249   -333373.04249  21537193.6454   21537199.0674
  23907159.157      -17227.41049    -15420.76649  23907160.9064   23907168.0974
  23372289.101    -2767865.69049  -2152489.86449  23372291.6344   23372297.6534
  22007579.371     4791960.31549   3716451.89649  22007581.7964   22007586.7834
  24263376.244     1069068.245 9    829081.780 9  24263377.695    24263383.386
  23889843.109    -2457099.27749  -1912123.30349  23889844.7194   23889849.6094
  20658343.922      750256.11749    579991.82449  20658345.6184   20658350.7784
  25085524.492     8671357.62949   6323492.10249  25085526.5464   25085533.2904
 96  4 20 14 40  0.0010000  0  8 19  3 31 29 28 27 18 14
  21534395.806     -439361.07649   -344819.82849  21534398.2964   21534403.9364
  23907167.606      -17177.79449    -15382.08749  23907171.1554   23907177.8834
  23362475.455    -2819438.88449  -2192676.72949  23362477.7074   23362484.0614
  22022154.507     4868553.10649   3776134.57749  22022156.9644   22022162.0414
  24267085.730     1088563.122 9    844272.598 9  24267087.610    24267093.617
  23880017.777    -2508727.58749  -1952353.13749  23880019.7414   23880025.8564
  20660563.548      761920.32549    589080.81649  20660565.4414   20660570.6234
  25110449.502     8802340.26849   6425556.41749  25110451.9094   25110460.3604
 96  4 20 14 40 30.0010000  0  8 19  3 31 29 28 27 18 14
  21531592.076     -454097.09149   -356302.43149  21531594.0244   21531599.7184
  23907236.023      -16820.37749    -15103.56849  23907238.4014   23907246.1754
  23352683.511    -2870896.67549  -2232773.66749  23352684.7744   23352691.1904
  22036757.284     4945292.47749   3835931.47649  22036759.8544   22036764.6624
  24270856.889     1108380.454 9    859714.675 9  24270858.771    24270863.833
  23870165.098    -2560506.61249  -1992700.40149  23870166.7134   23870172.2384
  20662830.008      773830.98149    598361.84349  20662831.7364   20662837.0084
  25135330.388     8933086.87949   6527436.80849  25135331.6394   25135339.1414
 96  4 20 14 41  0.0010000  0  8 19  3 31 29 28 27 18 14
  21528776.686     -468890.47649   -367829.73649  21528779.1304   21528784.5244
  23907359.492      -16179.65349    -14604.28649  23907360.6944   23907366.0524
  23342905.448    -2922279.37749  -2272812.10449  23342907.9194   23342913.4724
  22051381.727     5022143.96749   3895815.74749  22051384.1684   22051389.4434
  24274684.051     1128488.536 9    875383.314 9  24274685.363    24274690.612
  23860279.213    -2612455.54249  -2033180.06249  23860281.6894   23860286.9704
  20665138.428      785961.62549    607814.29449  20665140.3094   20665145.4054
  25160159.031     9063567.25349   6629109.72449  25160161.2414   25160169.3654
 96  4 20 14 41 30.0010000  0  8 19  3 31 29 28 27 18 14
  21525956.274     -483710.87549   -379378.09349  21525959.0014   21525964.6754
  23907534.958      -15249.32749    -13879.33849  23907538.3104   23907544.0774
  23333141.191    -2973589.05549  -2312793.63349  23333143.3014   23333149.4064
  22066029.315     5099118.27949   3955795.72349  22066031.9944   22066037.1114
  24278567.228     1148898.056 9    891286.841 9  24278568.944    24278573.983
  23850365.384    -2664553.38849  -2073775.76849  23850367.5024   23850373.0094
  20667490.265      798320.67349    617444.72349  20667492.0984   20667497.3434
  25184941.545     9193795.02649   6730585.81049  25184943.4374   25184950.3944
 96  4 20 14 42  0.0010000  0  8 19  3 31 29 28 27 18 14
  21523137.754     -498523.27149   -390920.21349  21523140.1794   21523145.7574
  23907768.451      -14026.16249    -12926.20149  23907769.6254   23907777.5124
  23323394.650    -3024808.58849  -2352704.92049  23323397.2494   23323403.7044
  22080703.388     5176231.60149   4015884.01449  22080705.8774   22080711.3714
  24282510.608     1169622.840 9    907436.027 9  24282512.601    24282517.227
  23840426.815    -2716782.30249  -2114473.62349  23840428.3734   23840433.5704
  20669887.495      810916.77549    627259.86549  20669889.2024   20669894.3614
  25209679.346     9323789.16449   6831879.86149  25209680.2134   25209688.1524
 96  4 20 14 42 30.0010000  0  8 19  3 31 29 28 27 18  2
  21520323.743     -513311.45249   -402443.46349  21520325.8954   21520331.5614
  23908055.371      -12519.39849    -11752.08849  23908058.0154   23908064.4854
  23313670.456    -3075912.14049  -2392525.83149  23313670.9344   23313677.7894
  22095407.155     5253497.55549   4076091.24749  22095409.2984   22095414.2494
  24286515.570     1190669.980 9    923836.407 9  24286517.443    24286521.774
  23830466.028    -2769126.48449  -2155261.27449  23830467.7924   23830473.3904
  20672327.714      823742.07749    637253.60449  20672329.6964   20672334.8494
  25500348.996    -2935434.98159  -2279677.81759  25500350.4284   25500357.4494
 96  4 20 14 43  0.0010000  0  8 19  3 31 29 28 27 18  2
  21517518.419     -528051.17549   -413928.95649  21517520.9364   21517526.5844
  23908402.405      -10693.27049    -10329.10749  23908404.8274   23908410.8324
  23303976.709    -3126848.42449  -2432216.40549  23303979.4824   23303986.0764
  22110148.955     5330966.39149   4136456.56649  22110151.1694   22110156.3104
  24290590.184     1212082.147 9    940521.223 9  24290591.824    24290596.952
  23820491.926    -2821538.47149  -2196101.76349  23820494.8624   23820499.7544
  20674819.772      836838.14349    647458.32649  20674821.7854   20674827.0184
  25485274.031    -3014655.83149  -2341408.32249  25485274.4934   25485282.0164
 96  4 20 14 43 30.0010000  0  8 19  3 31 29 28 27 18  2
  21514724.409     -542735.27449   -425371.10449  21514726.7304   21514732.5634
  23908815.815       -8522.91749     -8637.91149  23908817.3944   23908823.9974
  23294326.637    -3177565.71549  -2471736.33849  23294327.8754   23294333.2614
  22124934.618     5408666.27449   4197001.92149  22124937.3294   22124942.3134
  24294738.433     1233883.879 9    957509.600 9  24294740.711    24294746.118
  23810507.508    -2874008.77449  -2236987.70349  23810509.7474   23810515.7964
  20677368.394      850229.65349    657893.26749  20677370.0714   20677375.2144
  25470185.375    -3093941.28349  -2403189.16349  25470187.4694   25470195.1094
 96  4 20 14 44  0.0010000  0  8 19  3 31 29 28 27 18  2
  21511935.919     -557389.21049   -436789.74749  21511938.2694   21511943.7844
  23909293.236       -6007.52849     -6677.85649  23909296.6544   23909303.3314
  23284715.890    -3228066.74549  -2511087.74449  23284717.8614   23284724.8494
  22139761.233     5486580.98449   4257714.67049  22139763.5244   22139769.0724
  24298959.988     1256064.054 9    974792.863 9  24298961.825    24298966.751
  23800509.134    -2926549.99849  -2277928.89749  23800511.1594   23800516.8504
  20679970.417      863905.34249    668549.64549  20679972.3394   20679977.6384
  25455081.979    -3173312.61349  -2465036.93049  25455083.6884   25455090.4504
 96  4 20 14 44 30.0010000  0  8 19  3 31 29 28 27 18  2
  21509148.637     -572034.40549   -448201.57849  21509151.1814   21509156.9304
  23909837.606       -3155.41949     -4455.42149  23909838.4664   23909846.1204
  23275144.407    -3278360.78549  -2550277.86649  23275146.5744   23275154.0804
  22154625.286     5564690.48549   4318579.20749  22154627.4694   22154632.6134
  24303250.299     1278608.525 9    992359.992 9  24303252.172    24303257.132
  23790494.555    -2979177.22149  -2318937.09649  23790496.6814   23790502.0474
  20682626.802      877863.22549    679425.91949  20682628.4674   20682633.7554
  25439960.820    -3252765.41649  -2526948.17849  25439964.2404   25439971.8884
 96  4 20 14 45  0.0010000  0  8 19  3 31 29 28 27 18  2
  21506362.722     -586675.70849   -459610.37449  21506365.1494   21506370.7934
  23910444.709          41.35849     -1964.40149  23910448.0624   23910454.2934
  23265613.782    -3328449.24249  -2589307.80749  23265616.0094   23265621.7864
  22169523.527     5642984.33549   4379587.38549  22169526.1484   22169531.4354
  24307608.666     1301514.431 9   1010208.756 9  24307610.860    24307616.326
  23780460.900    -3031905.16749  -2360023.80549  23780463.1814   23780469.6224
  20685338.571      892113.43549    690529.97649  20685340.2404   20685345.4834
  25424831.048    -3332288.13749  -2588913.91949  25424831.3864   25424838.8694
 96  4 20 14 45 30.0010000  0  8 19  3 31 29 28 27 18  2
  21503577.445     -601313.57649   -471016.49249  21503579.5884   21503585.1354
  23911119.570        3587.87649       799.13049  23911121.8454   23911127.5394
  23256119.440    -3378345.09649  -2628187.65549  23256120.3224   23256127.2724
  22184457.895     5721463.67349   4440740.10449  22184460.3644   22184465.5484
  24312035.773     1324776.897 9   1028335.359 9  24312037.408    24312043.154
  23770407.744    -3084735.94449  -2401190.62949  23770408.8584   23770414.8974
  20688105.234      906653.21949    701859.68149  20688107.0314   20688112.5564
  25409684.774    -3411879.88249  -2650933.44249  25409685.8604   25409692.9734
 96  4 20 14 46  0.0010000  0  8 19  3 31 29 28 27 18  2
  21500794.040     -615939.32949   -482413.17249  21500796.6364   21500802.1524
  23911858.874        7470.74749      3824.75349  23911861.5574   23911867.9224
  23246657.373    -3428064.70649  -2666930.17549  23246659.3384   23246665.8014
  22199428.146     5800131.50049   4502039.69549  22199430.5644   22199435.3374
  24316529.741     1348392.160 9   1046736.873 9  24316531.392    24316537.050
  23760336.195    -3137661.03049  -2442430.93249  23760338.1414   23760343.7634
  20690926.466      921479.22149    713412.41649  20690928.4224   20690933.6114
  25394526.031    -3491524.95049  -2712994.51649  25394529.7434   25394537.7574
 96  4 20 14 46 30.0010000  0  8 19  3 31 29 28 27 18  2
  21498013.017     -630552.81549   -493800.29149  21498015.6054   21498021.0854
  23912660.247       11677.68349      7102.89349  23912661.5084   23912668.0464
  23237228.369    -3477619.91749  -2705544.59149  23237228.9664   23237234.9024
  22214434.795     5878994.39049   4563491.28149  22214437.5024   22214442.5064
  24321088.989     1372353.605 9   1065408.132 9  24321091.000    24321096.723
  23750243.348    -3190695.42349  -2483756.42549  23750245.8854   23750252.2984
  20693802.969      936595.74949    725191.53249  20693805.0194   20693810.4274
  25379363.544    -3571206.74049  -2775084.20549  25379366.4974   25379374.7654
 96  4 20 14 47  0.0010000  0  8 19  3 31 29 28 27 18  2
  21495233.843     -645158.98549   -505181.71049  21495236.2224   21495241.6514
  23913523.504       16215.49449     10638.87949  23913525.9004   23913531.7394
  23227827.650    -3527017.88749  -2744036.47049  23227828.9104   23227835.6724
  22229479.555     5958053.89649   4625096.07549  22229482.0554   22229487.3454
  24325715.111     1396665.330 9   1084352.338 9  24325716.697    24325722.778
  23740131.347    -3243836.76349  -2525165.23849  23740132.9564   23740139.1094
  20696735.965      952007.37649    737200.59249  20696737.5204   20696743.0604
  25364194.654    -3650931.13349  -2837207.08749  25364195.5814   25364203.0274
 96  4 20 14 47 30.0020000  0  8 19  3 31 29 28 27 18  2
  21492455.504     -659757.47649   -516557.14949  21492458.2824   21492463.7524
  23914447.558       21071.96249     14423.16049  23914449.5784   23914456.1714
  23218455.856    -3576266.21349  -2782411.74349  23218457.4914   23218463.9004
  22244562.173     6037313.01049   4686856.40949  22244564.5514   22244569.5034
  24330407.078     1421326.097 9   1103568.521 9  24330409.653    24330415.257
  23730000.426    -3297076.89349  -2566651.04149  23730002.6204   23730007.7944
  20699723.741      967709.23949    749435.81249  20699725.6484   20699730.9094
  25349016.005    -3730695.89749  -2899361.43049  25349016.6424   25349024.8614
 96  4 20 14 48  0.0020000  0  8 19  3 31 29 28 27 18  2
  21489678.923     -674349.66549   -527927.67449  21489681.3794   21489686.9664
  23915430.221       26237.97549     18448.64549  23915432.6604   23915439.0904
  23209114.290    -3625356.35649  -2820663.76849  23209116.3394   23209121.9734
  22259678.751     6116751.01449   4748756.13349  22259681.1364   22259686.3434
  24335165.969     1446328.082 9   1123050.573 9  24335167.846    24335173.157
  23719848.183    -3350426.74549  -2608222.34549  23719848.9344   23719856.4404
  20702763.894      983685.51049    761884.86049  20702765.7794   20702771.1584
  25333828.191    -3810502.13249  -2961548.07949  25333830.8964   25333838.0134
 96  4 20 14 48 30.0020000  0  8 19  3 31 29 28 27 18  2
  21486902.130     -688940.38649   -539297.05949  21486904.7294   21486910.4794
  23916475.857       31728.12349     22726.69049  23916477.2534   23916483.7964
  23199805.696    -3674276.67649  -2858783.45849  23199807.1554   23199813.2664
  22274828.358     6196364.23349   4810792.39649  22274830.9484   22274836.1984
  24339989.495     1471675.092 9   1142801.479 9  24339991.457    24339996.862
  23709674.722    -3403889.26149  -2649881.44149  23709676.3334   23709682.0244
  20705857.043      999938.98849    774549.91049  20705858.7344   20705864.1624
  25318628.842    -3890371.52949  -3023783.95449  25318631.9954   25318639.1744
 96  4 20 14 49  0.0020000  0  8 19  3 31 29 28 27 18  2
  21484126.266     -703527.47049   -550663.61249  21484128.9264   21484134.6854
  23917581.759       37545.21649     27259.50749  23917584.4094   23917591.3184
  23190532.948    -3723001.91649  -2896751.14849  23190535.2884   23190541.3544
  22290008.900     6276138.20649   4872953.91349  22290011.4384   22290016.8754
  24344880.086     1497372.863 9   1162825.706 9  24344881.942    24344887.461
  23699482.203    -3457449.88549  -2691616.97649  23699484.1524   23699490.3104
  20709002.656     1016469.99349    787431.21649  20709004.6414   20709009.8074
  25303416.969    -3970312.15749  -3086075.34049  25303420.3924   25303426.9664
 96  4 20 14 49 30.0020000  0  8 19  3 31 29 28 27 18  2
  21481353.154     -718101.03049   -562019.62749  21481355.7174   21481361.5364
  23918755.710       43710.13649     32063.34549  23918757.9894   23918763.2304
  23181301.094    -3771513.48449  -2934552.33749  23181303.5214   23181309.3644
  22305220.688     6356078.07449   4935244.69649  22305223.3654   22305228.2484
  24349838.184     1523427.516 9   1183128.031 9  24349839.559    24349845.771
  23689273.324    -3511099.07949  -2733421.54349  23689275.6064   23689280.4374
  20712201.597     1033281.65349    800531.21549  20712203.6484   20712208.8154
  25288194.631    -4050314.45549  -3148414.79349  25288195.8484   25288203.0394
 96  4 20 14 50  0.0020000  0  8 19  3 31 29 28 27 18  2
  21478582.749     -732660.93349   -573365.00249  21478585.1164   21478590.9594
  23919999.038       50247.52349     37157.43549  23920001.6604   23920007.4704
  23172112.318    -3819803.46449  -2972180.85449  23172113.7494   23172120.0314
  22320463.761     6436179.21849   4997661.15549  22320466.1794   22320471.3384
  24354864.114     1549841.122 9   1203710.052 9  24354865.967    24354872.093
  23679046.433    -3564838.28649  -2775296.23749  23679048.0764   23679055.7204
  20715456.124     1050383.68749    813857.48049  20715458.1474   20715463.5244
  25272955.990    -4130389.51749  -3210810.93749  25272958.7734   25272965.2014
 96  4 20 14 50 30.0020000  0  8 19  3 31 29 28 27 18  2
  21475813.367     -747213.84049   -584704.92849  21475815.5874   21475821.3394
  23921313.389       57153.79949     42538.96149  23921314.9704   23921323.2794
  23162965.635    -3867870.02149  -3009635.27949  23162967.1424   23162973.1084
  22335736.413     6516437.93549   5060200.40149  22335739.1474   22335744.2174
  24359958.254     1576611.099 9   1224569.768 9  24359960.249    24359966.361
  23668805.896    -3618654.08449  -2817230.62049  23668808.2134   23668813.6084
  20718767.610     1067785.67849    827417.47149  20718769.7624   20718774.8174
  25257705.860    -4210531.32149  -3273259.09249  25257708.1194   25257714.7314
 96  4 20 14 51  0.0020000  0  8 19  3 31 29 28 27 18  2
  21473043.865     -761767.15749   -596045.16749  21473046.4934   21473052.0574
  23922696.252       64423.32349     48203.52149  23922698.6864   23922704.8624
  23153859.614    -3915720.35749  -3046921.23249  23153861.7204   23153867.4424
  22351037.491     6596846.13049   5122856.12249  22351040.6694   22351045.9314
  24365118.902     1603731.528 9   1245702.565 9  24365120.875    24365127.230
  23658549.072    -3672553.22149  -2859229.93349  23658551.4834   23658558.1624
  20722137.440     1085493.61049    841215.85849  20722139.4844   20722144.7284
  25242447.011    -4290721.41349  -3335744.87049  25242449.1134   25242454.9954
 96  4 20 14 51 30.0020000  0  8 19  3 31 29 28 27 18  2
  21470274.631     -776318.58749   -607383.94049  21470277.3054   21470282.8904
  23924148.158       72047.38049     54144.33349  23924149.0664   23924155.1414
  23144792.648    -3963370.76749  -3084051.39149  23144793.8624   23144799.8414
  22366370.374     6677418.69349   5185639.91149  22366372.9124   22366378.2234
  24370345.745     1631200.069 9   1267106.616 9  24370347.671    24370353.826
  23648275.884    -3726538.71649  -2901296.54649  23648277.5884   23648284.0974
  20725565.013     1103506.49649    855251.87249  20725567.0714   20725572.3094
  25227179.898    -4370945.37649  -3398257.03449  25227181.7274   25227188.0914
 96  4 20 14 52  0.0020000  0  8 19  3 31 29 28 27 18  2
  21467507.454     -790861.11449   -618715.77549  21467510.0704   21467515.6584
  23925660.416       79999.11549     60340.49849  23925662.7544   23925669.6684
  23135763.407    -4010814.35749  -3121020.39649  23135765.5134   23135771.0704
  22381734.164     6758156.96949   5248552.83249  22381736.4914   22381741.8784
  24375639.069     1659018.043 9   1288782.954 9  24375641.327    24375646.702
  23637984.826    -3780617.51349  -2943435.85149  23637986.9634   23637993.0624
  20729049.999     1121818.49949    869520.96149  20729051.7034   20729056.9244
  25211908.025    -4451197.76949  -3460791.35449  25211910.5714   25211917.1814
 96  4 20 14 52 30.0020000  0  8 19  3 31 29 28 27 18  2
  21464741.956     -805395.17449   -630041.01249  21464744.2384   21464749.7894
  23927232.160       88257.99949     66775.98549  23927234.6774   23927240.4854
  23126773.829    -4058056.70949  -3157832.59049  23126776.0664   23126781.7654
  22397130.098     6839062.33249   5311595.95049  22397132.4824   22397137.9104
  24381000.144     1687186.768 9   1310732.604 9  24381001.706    24381007.051
  23627675.087    -3834795.06149  -2985652.11549  23627676.8594   23627684.1394
  20732590.664     1140424.62249    884019.23349  20732592.4434   20732597.6294
  25196633.998    -4531469.87249  -3523341.03549  25196635.6654   25196641.9224
 96  4 20 14 53  0.0020000  0  8 19  3 31 29 28 27 18  2
  21461977.762     -819920.38349   -641359.35249  21461980.1514   21461985.5014
  23928861.712       96819.85549     73447.56249  23928863.9264   23928869.8684
  23117817.367    -4105121.38049  -3194506.33849  23117819.1784   23117825.1224
  22412558.373     6920139.15849   5374772.67849  22412560.7784   22412565.7744
  24386425.853     1715701.336 9   1332951.745 9  24386427.693    24386432.723
  23617343.629    -3889090.19849  -3027960.00549  23617345.3984   23617352.4274
  20736183.037     1159304.10049    898730.51449  20736185.0804   20736190.1824
  25181351.451    -4611781.87049  -3585921.78249  25181353.2284   25181358.7834
 96  4 20 14 53 30.0020000  0  8 19  3 31 29 28 27 18  2
  21459216.591     -834429.29449   -652664.99449  21459219.0934   21459224.7684
  23930546.709      105675.70749     80348.21749  23930548.6244   23930555.9074
  23108894.291    -4152011.95949  -3231044.42249  23108896.3704   23108902.4644
  22428019.844     7001392.02549   5438086.58249  22428022.7184   22428028.3694
  24391916.987     1744558.141 9   1355437.565 9  24391918.869    24391924.371
  23606989.126    -3943502.83049  -3070359.44749  23606990.9594   23606997.6414
  20739822.705     1178429.46049    913633.38649  20739824.5364   20739829.6784
  25166056.234    -4692153.23249  -3648548.80549  25166057.9114   25166064.9864
 96  4 20 14 54  0.0020000  0  8 19  3 31 29 28 27 18  2
  21456457.621     -848927.97649   -663962.66449  21456460.2304   21456465.6914
  23932291.101      114839.81449     87489.08249  23932293.0814   23932299.3314
  23100007.907    -4198712.52549  -3267434.44949  23100009.7734   23100016.2274
  22443513.713     7082809.53549   5501528.77649  22443515.8884   22443520.8894
  24397473.150     1773758.323 9   1378190.952 9  24397475.673    24397481.322
  23596611.815    -3998035.02649  -3112852.05849  23596614.9464   23596619.2504
  20743508.231     1197797.90749    928725.67949  20743510.1904   20743515.3104
  25150749.104    -4772597.65249  -3711232.74749  25150749.7564   25150756.4804
 96  4 20 14 54 30.0020000  0  8 19  3 31 29 28 27 18  2
  21453700.340     -863419.03349   -675254.39449  21453702.8204   21453708.1754
  23934098.613      124340.23049     94891.98149  23934100.3764   23934106.8774
  23091158.035    -4245217.71549  -3303672.23449  23091160.2164   23091166.2134
  22459041.423     7164408.59149   5565112.43549  22459043.9944   22459048.9884
  24403097.177     1803306.945 9   1401215.844 9  24403098.487    24403105.146
  23586214.962    -4052672.00349  -3155426.31249  23586217.2694   23586222.8504
  20747243.279     1217425.48149    944019.88749  20747245.0874   20747250.3814
  25135427.341    -4853102.87749  -3773964.07849  25135429.7844   25135437.0644
 96  4 20 14 55  0.0020000  0  8 19  3 31 29 28 27 18  2
  21450947.095     -877886.17349   -686527.48849  21450949.6314   21450955.1264
  23935974.472      134201.40749    102576.01649  23935977.6584   23935983.7704
  23082351.574    -4291496.43449  -3339733.54649  23082353.5264   23082359.7194
  22474606.833     7246207.22349   5628851.61149  22474609.6534   22474614.7514
  24408788.298     1833214.552 9   1424520.461 9  24408790.448    24408795.995
  23575800.741    -4107399.81349  -3198071.35449  23575802.3004   23575808.3294
  20751031.644     1237333.69549    959532.77949  20751033.6234   20751038.7514
  25120100.148    -4933660.61749  -3836736.32749  25120100.2454   25120107.4184
 96  4 20 14 55 30.0020000  0  8 19  3 31 29 28 27 18  2
  21448199.922     -892322.31649   -697776.42449  21448202.5854   21448208.0514
  23937922.994      144438.19249    110552.72849  23937925.2384   23937931.4554
  23073597.559    -4337501.14049  -3375581.34749  23073599.1324   23073605.3564
  22490209.027     7328193.97949   5692737.37749  22490211.3924   22490216.4394
  24414549.332     1863488.792 9   1448110.772 9  24414551.263    24414557.298
  23565369.351    -4162213.53549  -3240783.33649  23565372.5084   23565377.0674
  20754879.167     1257553.08749    975288.14749  20754881.1454   20754886.5254
  25104762.049    -5014255.16349  -3899537.25449  25104763.2954   25104771.0784
 96  4 20 14 56  0.0020000  0  8 19  3 31 29 28 27 18  2
  21445458.429     -906729.27949   -709002.62649  21445461.0554   21445466.7464
  23939946.551      155073.90949    118840.28849  23939949.8024   23939956.0394
  23064898.702    -4383214.30049  -3411201.97349  23064901.1234   23064906.7554
  22505846.685     7410372.95749   5756772.92849  22505849.5044   22505854.6864
  24420382.142     1894138.667 9   1471993.789 9  24420383.953    24420389.543
  23554922.719    -4217113.78149  -3283562.72749  23554924.3634   23554931.1704
  20758792.995     1278119.53949    991313.95349  20758794.9924   20758800.1644
  25089420.435    -5094872.57849  -3962355.99949  25089421.9394   25089429.8464
 96  4 20 14 56 30.0020000  0  8 19  3 31 29 28 27 18  2
  21442725.496     -921090.06949   -720192.84649  21442728.2334   21442733.8204
  23942046.425      166106.23649    127436.90149  23942049.9264   23942055.0194
  23056255.220    -4428635.44849  -3446595.05549  23056257.0584   23056263.1834
  22521524.758     7492759.78549   5820970.43449  22521526.9964   22521532.2124
  24426287.985     1925172.546 9   1496176.025 9  24426289.270    24426294.641
  23544463.347    -4272081.81749  -3326394.95349  23544464.8044   23544470.7814
  20762776.210     1299051.97249   1007624.93949  20762778.1154   20762783.2724
  25074078.609    -5175495.17049  -4025178.77349  25074080.5414   25074087.3684
 96  4 20 14 57  0.0020000  0  8 19  3 31 29 28 27 18  2
  21440003.376     -935395.69349   -731340.08349  21440005.8644   21440011.5404
  23944220.634      177533.21549    136341.03049  23944223.3414   23944230.0914
  23047667.283    -4473764.48449  -3481760.51049  23047669.5234   23047674.8244
  22537239.996     7575344.30249   5885321.98049  22537242.7234   22537247.8524
  24432266.104     1956597.452 9   1520662.952 9  24432268.696    24432274.340
  23533989.064    -4327121.59949  -3369283.07949  23533991.8494   23533996.8574
  20766829.294     1320350.71349   1024221.36149  20766831.0754   20766836.3134
  25058735.110    -5256121.78249  -4088004.66549  25058737.3914   25058744.8264
 96  4 20 14 57 30.0020000  0  8 19  3 31 29 28 27 18  2
  21437288.280     -949664.16049   -742458.36249  21437290.8674   21437296.4074
  23946469.194      189348.28349    145547.56449  23946470.6054   23946477.9394
  23039131.316    -4518618.91149  -3516711.98749  23039133.9014   23039139.5594
  22552990.963     7658118.09949   5949821.02149  22552993.7894   22552999.2454
  24438320.672     1988410.696 9   1545452.471 9  24438322.699    24438328.976
  23523501.709    -4382233.19849  -3412227.16549  23523503.8294   23523508.6044
  20770951.157     1342010.41049   1041099.04549  20770953.0274   20770958.2474
  25043392.767    -5336745.91849  -4150828.64149  25043395.4434   25043402.5254
 96  4 20 14 58  0.0020000  0  8 19  3 31 29 28 27 18  2
  21434579.626     -963898.45649   -753550.01749  21434581.9604   21434587.4934
  23948790.998      201552.48349    155057.32249  23948793.5434   23948800.7224
  23030642.981    -4563226.18649  -3551470.87349  23030644.7074   23030650.9724
  22568782.477     7741099.87549   6014482.12249  22568784.8664   22568790.2264
  24444450.096     2020616.643 9   1570547.998 9  24444451.500    24444457.965
  23513004.716    -4437395.42449  -3455210.70449  23513006.1754   23513012.0124
  20775141.149     1364029.07749   1058256.44449  20775142.8864   20775148.0784
  25028053.249    -5417349.87549  -4213636.89349  25028057.5684   25028064.6234
 96  4 20 14 58 30.0020000  0  8 19  3 31 29 28 27 18  2
  21431879.447     -978087.00249   -764606.02549  21431881.9734   21431887.5904
  23951186.074      214134.22349    164861.27249  23951187.7454   23951193.3014
  23022201.318    -4607589.16349  -3586039.40649  23022202.4984   23022209.2624
  22584611.346     7824281.18249   6079298.71549  22584613.5214   22584618.8084
  24450654.474     2053220.027 9   1595953.222 9  24450655.924    24450661.870
  23502499.883    -4492596.02249  -3498224.15049  23502502.2294   23502507.8334
  20779399.308     1386406.04649   1075693.04149  20779401.2914   20779406.2874
  25012723.732    -5497918.09049  -4276417.28949  25012725.7204   25012732.9894
 96  4 20 14 59  0.0020000  0  8 19  3 31 29 28 27 18  2
  21429186.912     -992237.52549   -775632.40049  21429189.2504   21429194.8994
  23953655.231      227110.23649    174972.44949  23953657.6744   23953663.5664
  23013808.245    -4651693.30449  -3620406.24849  23013809.8754   23013816.6874
  22600478.588     7907661.53749   6144270.39749  22600480.7344   22600485.9694
  24456934.152     2086221.042 9   1621668.293 9  24456936.184    24456941.431
  23491985.165    -4547852.44049  -3541281.09549  23491986.6324   23491992.9444
  20783725.902     1409141.20449   1093408.75149  20783727.6384   20783732.6594
  24997397.320    -5578455.49349  -4339173.67949  24997400.0264   24997406.7864
 96  4 20 14 59 30.0020000  0  8 19  3 31 29 28 27 18  2
  21426501.222    -1006349.92449   -786629.07149  21426503.8014   21426509.4424
  23956199.358      240482.86149    185392.67649  23956202.2864   23956208.6644
  23005468.435    -4695517.71549  -3654555.11849  23005470.5124   23005476.2334
  22616384.213     7991251.02249   6209405.03449  22616386.9834   22616392.4114
  24463289.696     2119622.033 9   1647695.031 9  24463291.400    24463296.896
  23481461.929    -4603151.60349  -3584371.34049  23481463.7514   23481469.9374
  20788122.195     1432244.58249   1111411.38049  20788123.8354   20788129.0564
  24982078.136    -5658957.35649  -4401902.37949  24982080.7964   24982087.9054
 96  4 20 15  0  0.0020000  0  8 19  3 31 29 28 27 18  2
  21423826.354    -1020406.86449   -797582.52949  21423829.0054   21423834.4264
  23958817.195      254241.06649    196113.36249  23958820.8274   23958826.9364
  22997186.304    -4739043.30649  -3688471.14049  22997188.0774   22997193.3364
  22632329.528     8075041.80749   6274696.53749  22632332.1374   22632337.2864
  24469721.972     2153424.840 9   1674034.871 9  24469723.728    24469729.600
  23470929.842    -4658497.86849  -3627498.28949  23470931.8874   23470937.8784
  20792588.061     1455713.42449   1129698.78549  20792590.1064   20792595.2354
  24966766.966    -5739421.06949  -4464601.34649  24966769.3544   24966776.5584
 96  4 20 15  0 30.0020000  0  8 19  3 31 29 28 27 18  2
  21421162.637    -1034405.65149   -808490.67449  21421164.8494   21421170.4964
  23961510.607      268386.87649    207136.08249  23961512.1444   23961516.9604
  22988964.942    -4782245.80849  -3722135.39849  22988966.9714   22988972.6124
  22648312.744     8159032.43049   6340143.74849  22648314.9044   22648320.0494
  24476230.452     2187630.404 9   1700688.549 9  24476232.900    24476239.213
  23460386.904    -4713902.67149  -3670670.84849  23460389.2484   23460394.7684
  20797121.437     1479535.85149   1148261.71149  20797123.2734   20797128.3224
  24951460.591    -5819856.16449  -4527278.01549  24951462.7374   24951469.6944
 96  4 20 15  1  0.0020000  0  8 19  3 31 29 28 27 18  2
  21418508.275    -1048354.42049   -819359.84349  21418510.5214   21418516.2014
  23964279.768      282940.43149    218476.53349  23964281.9794   23964287.1614
  22980809.783    -4825102.32049  -3755530.05649  22980811.3974   22980817.1374
  22664335.853     8243233.47649   6405754.93049  22664338.0744   22664342.9604
  24482817.523     2222239.597 9   1727656.749 9  24482819.221    24482825.303
  23449834.220    -4769360.92649  -3713885.05549  23449835.1254   23449841.7374
  20801718.195     1503695.30049   1167087.25249  20801720.7294   20801725.8274
  24936158.741    -5900267.29849  -4589936.01049  24936160.8934   24936168.3164
 96  4 20 15  1 30.0020000  0  8 19  3 31 29 28 27 18  2
  21415866.165    -1062239.54549   -830179.42149  21415868.2034   21415873.8094
  23967126.180      297904.47449    230136.83949  23967129.5404   23967135.2924
  22972720.581    -4867613.69049  -3788655.76949  22972721.8734   22972727.5324
  22680396.399     8327635.44049   6471522.67749  22680399.0884   22680404.6034
  24489480.983     2257257.706 9   1754943.580 9  24489482.656    24489489.412
  23439273.674    -4824850.07849  -3757123.33449  23439276.3844   23439282.1084
  20806379.465     1528188.18249   1186172.61149  20806381.4554   20806386.7104
  24920862.801    -5980642.32249  -4652565.85749  24920865.5834   24920873.8784
 96  4 20 15  2  0.0020000  0  8 19  3 31 29 28 27 18  2
  21413237.589    -1076051.47049   -840941.95949  21413239.9834   21413245.7234
  23970054.926      313292.90949    242127.84749  23970058.0954   23970063.7614
  22964694.599    -4909787.40249  -3821518.38249  22964695.9614   22964701.4974
  22696494.040     8412229.51949   6537440.11449  22696496.6074   22696501.9424
  24496222.070     2292682.341 9   1782547.181 9  24496223.877    24496229.787
  23428707.920    -4880376.58849  -3800390.72549  23428709.9424   23428715.6344
  20811101.554     1553003.67949   1205509.35849  20811103.5724   20811108.8984
  24905573.357    -6060992.48549  -4715176.33849  24905575.4774   24905583.5314
 96  4 20 15  2 30.0020000  0  8 19  3 31 29 28 27 18  2
  21410621.421    -1089798.05549   -851653.58149  21410624.1014   21410629.8764
  23973069.934      329130.88549    254469.14249  23973072.2114   23973077.6224
  22956732.269    -4951631.48349  -3854124.13049  22956733.6524   22956739.5354
  22712631.129     8497029.76149   6603518.20149  22712633.4604   22712638.8514
  24503039.050     2328510.019 9   1810464.850 9  24503041.331    24503047.038
  23418135.857    -4935933.21349  -3843681.58349  23418137.4714   23418143.6394
  20815884.174     1578135.44149   1225092.55249  20815886.1954   20815891.1024
  24890286.781    -6141332.74549  -4777779.09249  24890287.5764   24890294.2704
 96  4 20 15  3  0.0020000  0  8 19  3 31 29 28 27 18  2
  21408019.117    -1103473.89349   -862310.07549  21408021.5914   21408027.3454
  23976168.015      345417.24949    267159.82949  23976170.1374   23976176.3194
  22948831.549    -4993147.82649  -3886474.50449  22948833.0984   22948839.3554
  22728806.527     8582033.31149   6669754.71149  22728809.3874   22728814.6294
  24509934.342     2364741.080 9   1838696.848 9  24509936.334    24509941.124
  23407558.293    -4991519.06749  -3886995.21349  23407560.5414   23407565.9954
  20820729.224     1603596.67149   1244932.46649  20820731.1124   20820736.2544
  24874998.597    -6221663.52549  -4840374.47449  24875001.2994   24875008.4284
 96  4 20 15  3 30.0020000  0  8 19  3 31 29 28 27 18  2
  21405433.651    -1117062.35249   -872898.48449  21405435.9094   21405441.6854
  23979349.742      362140.00649    280190.56149  23979351.3184   23979358.7994
  22940992.133    -5034342.93949  -3918574.56149  22940994.0294   22941000.0604
  22745022.592     8667249.02949   6736156.54649  22745025.3004   22745030.0734
  24516907.877     2401383.261 9   1867249.205 9  24516908.937    24516914.491
  23396973.948    -5047137.17349  -3930333.97549  23396976.1224   23396982.1344
  20825641.593     1629411.45049   1265047.87649  20825643.5554   20825648.7954
  24859716.781    -6301974.27449  -4902954.24949  24859718.4514   24859725.9574
 96  4 20 15  4  0.0020000  0  8 19  3 31 29 28 27 18  2
  21402862.885    -1130571.29349   -883424.93449  21402865.3954   21402870.9754
  23982613.613      379284.57449    293549.97549  23982615.6204   23982621.6844
  22933215.589    -5075207.12449  -3950416.76349  22933218.7114   22933224.0764
  22761282.319     8752693.25849   6802736.43949  22761285.0254   22761290.4194
  24523957.802     2438438.716 9   1896123.577 9  24523960.312    24523967.182
  23386383.352    -5102792.71849  -3973701.91549  23386385.3634   23386390.9434
  20830622.509     1655586.87149   1285444.30649  20830624.6394   20830629.7584
  24844441.349    -6382251.56649  -4965507.95349  24844442.8034   24844450.0844
 96  4 20 15  4 30.0020000  0  8 19  3 31 29 28 27 18  2
  21400304.835    -1144013.52949   -893899.40449  21400307.4834   21400313.1664
  23985952.184      396829.64349    307221.45949  23985954.2214   23985960.1434
  22925504.619    -5115732.07149  -3981994.62049  22925506.5294   22925512.0254
  22777586.501     8838373.97949   6869500.61649  22777589.3734   22777594.8144
  24531088.521     2475909.060 9   1925321.229 9  24531090.369    24531097.322
  23375786.834    -5158478.79149  -4017093.64349  23375788.6854   23375794.2214
  20835674.294     1682132.58749   1306129.27349  20835676.1244   20835681.0964
  24829176.371    -6462465.05149  -5028011.94049  24829178.3554   24829185.3694
 96  4 20 15  5  0.0020000  0  8 19  3 31 29 28 27 18  2
  21397760.497    -1157385.57749   -904319.18249  21397762.7054   21397768.5314
  23989362.152      414754.86549    321189.17049  23989364.7984   23989370.7144
  22917859.048    -5155911.41349  -4013303.17249  22917860.9774   22917866.6844
  22793934.586     8924282.36749   6936442.19449  22793937.0714   22793942.6214
  24538298.155     2513794.520 9   1954842.356 9  24538300.357    24538306.060
  23365183.755    -5214198.39349  -4060511.49849  23365185.7714   23365191.6724
  20840800.153     1709069.04949   1327118.72449  20840801.9154   20840807.0104
  24813929.255    -6542591.92049  -5090448.44149  24813930.4604   24813937.3584
 96  4 20 15  5 30.0020000  0  8 19  3 31 29 28 27 18  2
  21395227.353    -1170696.05649   -914690.98649  21395229.9134   21395235.3494
  23992845.819      433056.51949    335450.20949  23992848.0734   23992853.4514
  22910278.534    -5195745.01049  -4044342.31749  22910280.3384   22910285.8594
  22810325.480     9010416.26249   7003559.49249  22810328.1484   22810333.6894
  24545586.465     2552091.481 9   1984684.155 9  24545588.153    24545592.821
  23354574.583    -5269948.59249  -4103953.18949  23354576.6104   23354582.7264
  20845999.249     1736391.26449   1348408.76349  20846001.1024   20846006.1784
  24798697.193    -6622630.27249  -5152815.96449  24798699.0504   24798707.2844
 96  4 20 15  6  0.0020000  0  8 19  3 31 29 28 27 18  2
  21392706.188    -1183944.81749   -925014.69449  21392708.6214   21392714.0574
  23996402.210      451748.69549    350015.53749  23996404.1084   23996410.7654
  22902768.116    -5235214.78749  -4075097.96249  22902770.0194   22902775.5644
  22826757.615     9096767.42449   7070846.09049  22826760.0034   22826765.4524
  24552951.423     2590798.308 9   2014845.328 9  24552953.139    24552959.429
  23343961.251    -5325721.35849  -4147412.46149  23343963.4774   23343969.5104
  20851271.707     1764097.74149   1369998.21949  20851273.5164   20851278.7684
  24783483.586    -6702580.18449  -5215114.57149  24783485.3294   24783492.0314
 96  4 20 15  6 30.0020000  0  8 19  3 31 29 28 27 18  2
  21390199.894    -1197115.60649   -935277.64749  21390202.4434   21390207.9004
  24000039.753      470862.98149    364909.79149  24000041.7004   24000047.7794
  22895327.793    -5274313.43449  -4105564.43049  22895329.5804   22895335.7284
  22843230.466     9183333.44049   7138300.10549  22843233.0164   22843238.6644
  24560395.370     2629916.681 9   2045327.166 9  24560397.477    24560404.405
  23333343.875    -5381516.67349  -4190889.32049  23333345.8034   23333352.0924
  20856619.472     1792200.37249   1391896.36649  20856621.3814   20856626.4104
  24768282.980    -6782461.00749  -5277359.34949  24768285.3124   24768291.9564
 96  4 20 15  7  0.0020000  0  8 19  3 31 29 28 27 18  2
  21387710.789    -1210195.95049   -945470.12249  21387713.3074   21387718.6904
  24003761.639      490421.89449    380150.48349  24003763.7344   24003770.0784
  22887957.610    -5313040.65649  -4135741.48149  22887959.5094   22887965.1954
  22859743.827     9270109.58049   7205917.84849  22859746.4194   22859751.1144
  24567918.791     2669447.317 9   2076130.254 9  24567920.337    24567926.633
  23322722.054    -5437334.96449  -4234384.07649  23322724.1884   23322729.4434
  20862042.342     1820698.35349   1414102.57949  20862044.2974   20862049.3534
  24753091.655    -6862294.86549  -5339567.52449  24753092.3614   24753099.4834
 96  4 20 15  7 30.0020000  0  8 19  3 31 29 28 27 18  2
  21385238.675    -1223184.82149   -955591.31849  21385241.5534   21385247.2394
  24007569.787      510434.73949    395744.90949  24007571.8054   24007578.3624
  22880658.721    -5351400.10749  -4165631.94449  22880660.4694   22880666.0724
  22876295.096     9357090.33449   7273695.03549  22876297.8374   22876303.0164
  24575517.822     2709386.456 9   2107251.653 9  24575520.037    24575525.809
  23312094.115    -5493183.46949  -4277902.37249  23312096.4604   23312101.9254
  20867537.827     1849577.07349   1436605.47049  20867539.7974   20867544.9974
  24737906.338    -6942090.49649  -5401745.91349  24737908.2604   24737915.3374
 96  4 20 15  8  0.0020000  0  9 19  3 31 29 28 27 16 18  2
  21382786.196    -1236075.54649   -965636.03649  21382788.5604   21382794.1394
  24011465.834      530909.15849    411698.99949  24011467.9494   24011475.6554
  22873427.310    -5389401.08149  -4195243.07849  22873429.4004   22873434.7484
  22892885.562     9444275.64349   7341631.61249  22892888.7414   22892894.0944
  24583195.744     2749732.088 9   2138689.809 9  24583197.599    24583202.927
  23301460.023    -5549066.02849  -4321447.21449  23301462.2544   23301468.0554
  25429543.155    -4608252.48359  -3581232.64659  25429543.8594   25429552.5214
  20873107.128     1878843.29449   1459410.31249  20873109.0274   20873114.0094
  24722730.469    -7021840.00949  -5463888.35449  24722732.0584   24722739.2444
 96  4 20 15  8 30.0020000  0  9 19  3 31 29 28 27 16 18  2
  21380350.016    -1248876.93349   -975611.14549  21380352.4154   21380358.2714
  24015447.349      551835.53449    428005.25549  24015450.4764   24015456.9594
  22866260.717    -5427061.88949  -4224589.15049  22866262.7594   22866268.4234
  22909516.461     9531669.43649   7409730.63949  22909519.2034   22909524.1994
  24590949.851     2790482.310 9   2170443.226 9  24590952.243    24590958.420
  23290819.513    -5604983.21649  -4365019.03249  23290822.2984   23290827.5714
  25417774.362    -4670093.58449  -3629420.51849  25417777.3014   25417784.5144
  20878750.448     1908499.96149   1482519.39149  20878752.5174   20878757.4854
  24707564.895    -7101542.07749  -5525993.82249  24707566.2074   24707572.6224
 96  4 20 15  9  0.0020000  0  9 19  3 31 29 28 27 16 18  2
  21377929.641    -1261597.08449   -985522.94949  21377931.9034   21377937.4514
  24019511.786      573192.22749    444646.83949  24019514.2614   24019520.4604
  22859158.777    -5464381.62049  -4253669.44249  22859160.8784   22859166.2354
  22926186.376     9619268.65449   7477989.74549  22926188.9724   22926194.0894
  24598783.247     2831642.864 9   2202516.377 9  24598785.178    24598791.396
  23280173.590    -5660929.39649  -4408613.44349  23280175.1654   23280181.2124
  25406060.304    -4731658.66449  -3677393.30349  25406063.0474   25406069.0434
  20884468.502     1938548.79849   1505934.06349  20884470.7584   20884475.7064
  24692410.629    -7181174.18449  -5588044.77749  24692412.2004   24692418.9834
 96  4 20 15  9 30.0020000  0  9 19  3 31 29 28 27 16 18  2
  21375523.196    -1274242.65649   -995376.64049  21375525.7134   21375531.0294
  24023655.379      594964.93449    461612.59649  24023657.8934   24023663.9264
  22852122.348    -5501356.45749  -4282480.99849  22852124.2884   22852130.5144
  22942893.591     9707066.06549   7546403.30049  22942896.0194   22942901.5934
  24606693.996     2873215.532 9   2234910.657 9  24606695.661    24606702.500
  23269520.547    -5716909.44049  -4452234.24449  23269523.1214   23269528.5494
  25394396.352    -4792959.63649  -3725160.30349  25394397.6884   25394404.2514
  20890262.053     1968994.03049   1529657.61449  20890264.0204   20890269.2644
  24677272.003    -7260726.12849  -5650033.26449  24677274.1604   24677280.3984
 96  4 20 15 10  0.0020000  0  9 19  3 31 29 28 27 16 18  2
  21373128.821    -1286824.42049  -1005180.60949  21373131.2814   21373136.9374
  24027877.140      617149.76749    478899.48549  24027879.7984   24027885.2624
  22845155.044    -5537970.29949  -4311011.26249  22845156.8484   22845163.1094
  22959639.157     9795064.41749   7614973.42849  22959641.4024   22959647.4314
  24614682.768     2915204.090 9   2267629.001 9  24614685.513    24614691.920
  23258863.275    -5772913.72649  -4495873.93149  23258865.4254   23258871.3694
  25382780.916    -4853993.50849  -3772719.12649  25382784.5294   25382788.7914
  20896130.161     1999831.51949   1553686.81549  20896132.2694   20896137.4834
  24662145.705    -7340208.77049  -5711967.75949  24662149.3544   24662155.6414
 96  4 20 15 10 30.0020000  0  9 19  3 31 29 28 27 16 18  2
  21370746.089    -1299346.07749  -1014937.74649  21370748.7494   21370754.3534
  24032174.877      639732.94149    496496.76049  24032176.8804   24032183.3644
  22838260.378    -5574201.66749  -4339243.48449  22838262.4544   22838268.4584
  22976421.325     9883255.63249   7683693.83149  22976423.7334   22976429.1294
  24622752.362     2957605.799 9   2300669.300 9  24622754.974    24622760.628
  23248201.431    -5828942.38349  -4539532.60749  23248203.6324   23248209.4694
  25371217.925    -4914755.99349  -3820066.52449  25371219.7694   25371226.8474
  20902069.267     2031041.34949   1578006.16349  20902071.2404   20902076.4604
  24647031.538    -7419635.71849  -5773858.84049  24647034.1334   24647041.1064
 96  4 20 15 11  0.0020000  0  9 19  3 31 29 28 27 16 18  2
  21368375.378    -1311804.95849  -1024645.96849  21368377.8264   21368383.0474
  24036549.041      662721.54749    514409.95549  24036551.7034   24036557.6244
  22831442.801    -5610027.83249  -4367159.96949  22831444.6934   22831450.7014
  22993240.463     9971640.72549   7752565.31149  22993242.7634   22993248.0744
  24630900.525     3000422.649 9   2334033.067 9  24630902.441    24630909.394
  23237535.067    -5884992.93949  -4583208.34649  23237538.1694   23237543.0854
  25359708.533    -4975236.70649  -3867194.37249  25359710.6774   25359717.8224
  20908077.167     2062613.68449   1602607.97249  20908079.2524   20908084.6214
  24631931.156    -7498994.29149  -5835696.66749  24631933.2934   24631939.4854
 96  4 20 15 11 30.0020000  0  9 19  3 31 29 28 27 16 18  2
  21366017.779    -1324193.79249  -1034299.60549  21366020.1734   21366025.9454
  24041005.903      686144.94049    532661.94149  24041008.4804   24041015.6304
  22824705.620    -5645431.40449  -4394747.15649  22824707.9074   22824713.6544
  23010100.196    10060239.37349   7821603.19149  23010102.9074   23010108.2644
  24639126.790     3043658.679 9   2367723.437 9  24639129.698    24639137.220
  23226868.839    -5941047.03149  -4626886.84549  23226870.9664   23226876.6154
  25348261.026    -5035406.17449  -3914079.67349  25348262.0954   25348268.7764
  20914154.275     2094548.25349   1627492.04449  20914156.3034   20914161.3604
  24616844.606    -7578274.52749  -5897473.44549  24616846.6604   24616853.5614
 96  4 20 15 12  0.0020000  0  9 19  3 31 29 28 27 16 18  2
  21363675.730    -1336502.14449  -1043890.52549  21363678.1964   21363683.7304
  24045550.211      710021.91949    551267.39549  24045551.9164   24045558.1964
  22818051.865    -5680399.68949  -4421995.16449  22818053.8464   22818059.5204
  23027006.863    10149082.18449   7890831.32549  23027009.3444   23027014.7574
  24647436.848     3087318.862 9   2401744.341 9  24647438.987    24647444.592
  23216202.277    -5997096.85849  -4670562.02649  23216204.8974   23216210.6114
  25336873.386    -5095242.41749  -3960705.32049  25336875.2024   25336881.8254
  20920300.932     2126848.42449   1652660.99549  20920302.7394   20920307.8864
  24601775.368    -7657464.95649  -5959180.24849  24601776.7254   24601784.1974
 96  4 20 15 12 30.0020000  0  9 19  3 31 29 28 27 16 18  2
  21361351.421    -1348713.96749  -1053406.22949  21361354.2784   21361359.6064
  24050183.847      734369.59149    570239.61549  24050185.7994   24050191.7464
  22811480.322    -5714932.05849  -4448903.48649  22811482.4084   22811487.9534
  23043960.530    10238174.72949   7960254.06449  23043962.9034   23043968.3764
  24655826.362     3131406.452 9   2436098.300 9  24655827.962    24655833.479
  23205535.889    -6053151.07549  -4714240.62849  23205538.1034   23205543.6614
  25325550.160    -5154739.61949  -4007066.77549  25325552.1564   25325558.9124
  20926519.672     2159530.55649   1678127.58749  20926521.9694   20926527.2074
  24586728.641    -7736536.37649  -6020794.30449  24586730.1544   24586736.7914
 96  4 20 15 13  0.0020000  0  9 19  3 31 29 28 27 16 18  2
  21359046.896    -1360826.79249  -1062844.79549  21359049.0734   21359054.7734
  24054907.494      759202.70649    589590.07949  24054910.7114   24054918.1344
  22804988.131    -5749049.64649  -4475488.61649  22804989.3994   22804995.8394
  23060960.579    10327513.05249   8029868.30949  23060963.3854   23060969.2214
  24664295.525     3175919.386 9   2470783.672 9  24664298.148    24664305.158
  23194867.592    -6109213.05549  -4757925.27649  23194870.0084   23194875.4144
  25314292.535    -5213894.76249  -4053161.68849  25314295.1044   25314303.5194
  20932815.591     2192615.42449   1703907.99649  20932817.8114   20932823.1114
  24571705.443    -7815481.75149  -6082310.15649  24571707.0794   24571714.0144
 96  4 20 15 13 30.0020000  0  9 19  3 31 29 28 27 16 18  2
  21356763.438    -1372825.01949  -1072194.05749  21356765.9524   21356771.4914
  24059726.540      784519.84749    609317.71349  24059728.5344   24059735.7484
  22798572.352    -5782763.68049  -4501759.27649  22798574.3584   22798580.1804
  23078007.429    10417093.01149   8099670.84349  23078009.6164   23078015.7834
  24672849.254     3220858.831 9   2505801.388 9  24672850.616    24672856.948
  23184196.130    -6165293.01349  -4801623.93349  23184197.8164   23184203.4424
  25303100.398    -5272718.74849  -4098998.57749  25303102.1094   25303109.9504
  20939189.213     2226107.17249   1730005.45249  20939190.9324   20939196.1574
  24556701.845    -7894323.66749  -6143745.39549  24556704.2244   24556710.8484
 96  4 20 15 14  0.0020000  0  9 19  3 31 29 28 27 16 18  2
  21354507.536    -1384679.92449  -1081431.64749  21354509.9054   21354515.5524
  24064634.366      810305.57449    629410.50049  24064636.4724   24064641.5944
  22792233.996    -5816072.11549  -4527713.88949  22792235.9274   22792242.0144
  23095098.011    10506904.40449   8169653.72649  23095100.5334   23095105.6534
  24681482.592     3266230.578 9   2541155.981 9  24681484.162    24681490.112
  23173518.827    -6221402.87349  -4845345.88949  23173520.8844   23173526.5804
  25291966.264    -5331226.01849  -4144588.65749  25291968.2234   25291974.7394
  20945641.838     2260016.92449   1756428.62649  20945643.9284   20945649.1224
  24541718.397    -7973059.08549  -6205097.65049  24541720.9314   24541728.2974
 96  4 20 15 14 30.0020000  0  9 19  3 31 29 28 27 16 18  2
  21352279.390    -1396389.87649  -1090556.28049  21352281.9154   21352287.2434
  24069628.047      836554.47949    649864.20149  24069629.9924   24069636.6594
  22785971.093    -5848982.61849  -4553358.42249  22785973.3264   22785979.3614
  23112226.915    10596920.07349   8239795.78049  23112230.0714   23112235.4104
  24690197.827     3312033.947 9   2576846.908 9  24690200.140    24690206.071
  23162837.179    -6277535.37149  -4889085.48449  23162839.2194   23162844.3614
  25280892.569    -5389413.10649  -4189929.23349  25280895.6914   25280902.4034
  20952174.254     2294345.31849   1783178.01549  20952176.4154   20952181.5824
  24526757.056    -8051688.37549  -6266367.20449  24526758.6434   24526765.5634
 96  4 20 15 15  0.0020000  0  9 19  3 31 29 28 27 16 18  2
  21350076.865    -1407963.31349  -1099574.53949  21350079.5674   21350085.0864
  24074708.998      863253.80849    670668.86049  24074711.8244   24074718.9014
  22779783.243    -5881503.62849  -4578699.45349  22779785.1164   22779790.5744
  23129395.210    10687137.59149   8310095.11649  23129397.4934   23129403.4734
  24698996.851     3358270.782 9   2612875.587 9  24698999.395    24699005.767
  23152154.258    -6333670.77249  -4932827.34549  23152156.8704   23152162.5524
  25269881.852    -5447278.16649  -4235018.90149  25269884.1254   25269891.3604
  20958785.341     2329086.22349   1810248.84249  20958787.5704   20958792.4684
  24511812.620    -8130223.45149  -6327563.34949  24511814.6634   24511820.2884
 96  4 20 15 15 30.0020000  0  9 19  3 31 29 28 27 16 18  2
  21347898.403    -1419411.50949  -1108495.21249  21347900.8754   21347906.3244
  24079875.505      890398.89149    691820.86049  24079877.7564   24079883.8134
  22773673.133    -5913610.30949  -4603717.63349  22773675.1674   22773680.7884
  23146603.321    10777567.99949   8380560.33449  23146606.2974   23146611.0444
  24707879.301     3404946.220 9   2649246.038 9  24707880.765    24707887.538
  23141473.715    -6389800.40349  -4976564.71249  23141475.8794   23141481.1864
  25258932.320    -5504813.94349  -4279851.97749  25258934.3934   25258942.4824
  20965473.436     2364230.46249   1837633.95049  20965475.2094   20965480.2794
  24496889.037    -8208647.81649  -6388673.22149  24496890.7884   24496896.9784
 96  4 20 15 16  0.0020000  0  9 19  3 31 29 28 27 16 18  2
  21345739.087    -1430759.00749  -1117337.42149  21345741.7374   21345746.9884
  24085126.224      917999.60649    713327.89549  24085128.8364   24085134.7624
  22767644.970    -5945288.06649  -4628401.58649  22767647.1004   22767652.8584
  23163854.500    10868221.52749   8451199.42149  23163857.2834   23163862.5224
  24716843.620     3452059.735 9   2685957.852 9  24716846.173    24716851.837
  23130797.632    -6445902.99749  -5020281.00749  23130800.2024   23130804.9704
  25248052.487    -5561992.42449  -4324406.63849  25248054.6564   25248061.6374
  20972239.431     2399786.35049   1865339.82649  20972241.3064   20972246.3934
  24481990.889    -8286931.51849  -6449673.48049  24481993.0184   24481999.9394
 96  4 20 15 16 30.0020000  0  9 19  3 31 29 28 27 16 18  2
  21343593.428    -1442033.59749  -1126122.81849  21343596.0644   21343601.5474
  24090468.517      946074.60349    735204.50049  24090471.2174   24090478.0464
  22761700.504    -5976525.99149  -4652742.81849  22761703.0994   22761708.4774
  23181149.769    10959109.53649   8522021.21149  23181152.8454   23181158.1124
  24725894.574     3499614.326 9   2723013.373 9  24725896.360    24725902.315
  23120131.305    -6501955.49849  -5063958.26449  23120133.7724   23120138.8414
  25237241.486    -5618807.14949  -4368677.86949  25237243.6114   25237249.6634
  20979084.475     2435759.35749   1893370.73249  20979086.8844   20979091.7984
  24467122.374    -8365065.48249  -6510557.06149  24467124.7144   24467131.9654
 96  4 20 15 17  0.0020000  0  9 19  3 31 29 28 27 16 18  2
  21341462.464    -1453232.76549  -1134849.44449  21341464.9534   21341470.5244
  24095902.157      974620.30649    757447.90149  24095904.0684   24095910.8064
  22755843.264    -6007306.80949  -4676727.86349  22755845.0564   22755850.7374
  23198491.376    11050242.66949   8593034.00949  23198493.9664   23198500.0504
  24735026.997     3547608.902 9   2760411.724 9  24735028.944    24735035.478
  23109475.835    -6557951.31049  -5107591.34849  23109477.5134   23109483.2184
  25226497.274    -5675271.27549  -4412675.88449  25226499.1794   25226505.5084
  20986010.823     2472156.97049   1921732.50449  20986012.8654   20986018.1274
  24452282.875    -8443047.04249  -6571321.88449  24452284.8794   24452292.3294
 96  4 20 15 17 30.0020000  0  9 19  3 31 29 28 27 16 18  2
  21339349.413    -1464337.13949  -1143502.20149  21339351.9524   21339357.4504
  24101424.361     1003643.51749    780063.36549  24101426.6394   24101433.2024
  22750077.466    -6037609.06049  -4700339.99149  22750079.5034   22750084.6024
  23215882.264    11141629.68549   8664244.63649  23215884.5874   23215890.2944
  24744244.520     3596046.858 9   2798155.573 9  24744246.336    24744252.106
  23098829.863    -6613894.82549  -5151183.68549  23098832.1324   23098837.5834
  25215820.340    -5731376.52649  -4456394.26649  25215822.9364   25215829.6534
  20993020.344     2508992.23449   1950435.30049  20993022.4004   20993027.7134
  24437475.543    -8520864.49549  -6631958.82449  24437477.6134   24437483.3814
 96  4 20 15 18  0.0020000  0  9 19  3 31 29 28 27 16 18  2
  21337258.198    -1475327.11949  -1152065.82349  21337260.6154   21337265.9884
  24107038.868     1033146.06249    803052.34949  24107040.6504   24107046.3564
  22744400.563    -6067437.37649  -4723582.83249  22744402.7724   22744408.8824
  23233319.408    11233265.71149   8735649.30049  23233322.2804   23233328.4874
  24753545.103     3644924.423 9   2836241.978 9  24753548.006    24753553.435
  23088193.549    -6669788.24149  -5194736.98249  23088195.5084   23088201.6104
  25205211.295    -5787126.44449  -4499835.76149  25205213.9084   25205219.7564
  21000115.508     2546278.09649   1979489.20749  21000117.7444   21000123.0164
  24422695.101    -8598532.41349  -6692479.25949  24422697.6174   24422704.7924
 96  4 20 15 18 30.0020000  0  9 19  3 31 29 28 27 16 18  2
  21335194.743    -1486171.20449  -1160515.75949  21335197.1384   21335202.5164
  24112742.424     1063120.21249    826408.82149  24112745.4464   24112750.7724
  22738815.181    -6096788.39749  -4746453.74349  22738817.0924   22738823.0244
  23250804.424    11325147.60449   8807245.55849  23250806.8964   23250813.0864
  24762931.120     3694247.146 9   2874675.266 9  24762932.770    24762940.109
  23077565.279    -6725644.01649  -5238260.95149  23077566.8574   23077572.0954
  25194668.846    -5842526.33449  -4543004.49849  25194671.2824   25194679.0484
  21007297.538     2584017.73849   2008896.70749  21007299.3684   21007304.6614
  24407943.018    -8676058.53549  -6752889.19749  24407944.2504   24407951.4474
 96  4 20 15 19  0.0020000  0  9 19  3 31 29 28 27 16 18  2
  21333161.993    -1496851.06649  -1168837.73649  21333164.8714   21333170.2554
  24118535.627     1093561.46749    850129.26649  24118538.2384   24118543.9194
  22733321.401    -6125660.96249  -4768951.83749  22733323.2554   22733329.3074
  23268335.592    11417271.85649   8879030.67049  23268337.5514   23268343.3874
  24772401.473     3744012.340 9   2913453.325 9  24772403.587    24772410.012
  23066940.144    -6781476.78849  -5281766.99749  23066942.0534   23066947.6874
  25184196.208    -5897561.29949  -4585888.91049  25184198.4034   25184204.9624
  21014564.046     2622203.59349   2038651.91249  21014565.9524   21014571.2324
  24393214.166    -8753455.02749  -6813198.14149  24393216.8034   24393223.5784
 96  4 20 15 19 30.0020000  0  9 19  3 31 29 28 27 16 18  2
  21331161.051    -1507367.73549  -1177032.54649  21331163.5054   21331168.9564
  24124418.239     1124477.20949    874219.44449  24124420.9904   24124427.3284
  22727919.630    -6154047.13749  -4791070.92249  22727921.7494   22727927.4924
  23285911.185    11509635.83449   8951002.58149  23285913.4914   23285919.4914
  24781955.429     3794221.113 9   2952577.044 9  24781957.628    24781963.376
  23056317.798    -6837294.76449  -5325261.51049  23056320.7184   23056326.3434
  25173796.663    -5952218.91049  -4628479.22949  25173797.7044   25173802.7074
  21021915.886     2660838.40749   2068756.95149  21021917.9704   21021923.2214
  24378510.479    -8830728.05349  -6873410.86849  24378512.8634   24378518.8374
 96  4 20 15 20  0.0020000  0  9 19  3 31 29 28 27 16 18  2
  21329190.148    -1517724.50549  -1185102.76149  21329192.6474   21329198.0254
  24130394.053     1155879.86749    898689.05149  24130395.6264   24130402.3884
  22722612.136    -6181937.56449  -4812803.70849  22722614.1164   22722619.5634
  23303532.119    11602232.80649   9023156.03849  23303535.3424   23303540.2524
  24791595.261     3844877.183 9   2992049.294 9  24791597.077    24791603.736
  23045700.928    -6893086.03149  -5368735.21549  23045703.3204   23045709.1164
  25163466.631    -6006494.81449  -4670772.13449  25163468.7184   25163475.7944
  21029352.432     2699917.36149   2099208.07649  21029354.5634   21029359.4104
  24363830.294    -8907875.51349  -6933525.75349  24363831.6134   24363837.9304
 96  4 20 15 20 30.0020000  0  9 19  3 31 29 28 27 16 18  2
  21327248.036    -1527930.66649  -1193055.61649  21327250.6404   21327256.1164
  24136462.480     1187768.73549    923537.51149  24136465.1484   24136470.1734
  22717399.541    -6209331.43149  -4834149.56249  22717401.5574   22717407.3694
  23321196.216    11695057.47549   9095486.92949  23321199.0604   23321204.4284
  24801320.837     3895983.351 9   3031872.271 9  24801322.572    24801328.971
  23035088.619    -6948857.28349  -5412193.32149  23035090.8614   23035096.1444
  25153211.196    -6060383.51849  -4712763.34549  25153213.7484   25153221.7354
  21036870.395     2739425.32649   2129993.50149  21036872.3244   21036877.3434
  24349173.799    -8984891.16249  -6993537.91949  24349176.2084   24349182.8594
 96  4 20 15 21  0.0020000  0  9 19  3 31 29 28 27 16 18  2
  21325332.749    -1537996.50849  -1200899.13449  21325335.2714   21325340.5214
  24142625.848     1220155.54349    948773.98549  24142628.2544   24142633.1564
  22712280.687    -6236227.48749  -4855107.52049  22712282.9024   22712288.5784
  23338905.019    11788116.20149   9168000.18949  23338907.2304   23338912.6374
  24811130.548     3947538.488 9   3072045.105 9  24811132.966    24811138.565
  23024480.999    -7004599.77949  -5455629.02949  23024483.4644   23024488.8224
  25143032.520    -6113883.65649  -4754451.75849  25143034.1884   25143040.4144
  21044470.299     2779362.24749   2161113.16649  21044472.3814   21044477.3484
  24334543.052    -9061776.79849  -7053448.78949  24334545.1434   24334552.0394
 96  4 20 15 21 30.0020000  0  9 19  3 31 29 28 27 16 18  2
  21323442.023    -1547929.97849  -1208639.49949  21323444.7114   21323450.0674
  24148880.989     1253034.91149    974394.27249  24148883.9274   24148891.2404
  22707255.022    -6262638.87249  -4875687.80949  22707257.2214   22707263.0434
  23356657.415    11881405.46749   9240693.10049  23356659.6884   23356664.4934
  24821026.733     3999539.129 9   3112565.084 9  24821028.762    24821035.028
  23013878.459    -7060318.64949  -5499046.32749  23013880.5244   23013886.3154
  25132922.811    -6167006.91849  -4795846.50449  25132925.1894   25132931.1934
  21052150.554     2819723.12349   2192563.18749  21052152.6904   21052157.8834
  24319939.781    -9138519.31049  -7113248.13049  24319941.2184   24319948.0804
 96  4 20 15 22  0.0020000  0  9 19  3 31 29 28 27 16 18  2
  21321579.558    -1557718.08249  -1216266.59649  21321582.0294   21321587.5424
  24155232.776     1286405.93149   1000397.66049  24155235.0124   24155240.5624
  22702319.649    -6288576.25449  -4895898.74149  22702321.7914   22702326.5724
  23374456.116    11974938.54649   9313575.98049  23374459.3794   23374463.6934
  24831008.073     4051991.086 9   3153436.734 9  24831009.668    24831016.012
  23003280.441    -7116011.17749  -5542443.09749  23003282.7164   23003288.4034
  25122885.555    -6219748.27549  -4836943.67249  25122888.0754   25122894.5234
  21059910.612     2860503.43149   2224340.04949  21059912.8244   21059917.8484
  24305365.960    -9215101.16949  -7172922.29349  24305368.0254   24305375.2184
 96  4 20 15 22 30.0020000  0  9 19  3 31 29 28 27 16 18  2
  21319743.770    -1567366.55849  -1223784.89149  21319746.1244   21319751.4504
  24161671.674     1320246.31549   1026766.78549  24161675.7244   24161680.7184
  22697470.904    -6314055.90249  -4915752.99849  22697473.2954   22697478.9094
  23392302.208    12068721.07149   9386653.24349  23392304.6824   23392310.4554
  24841073.129     4104884.078 9   3194652.061 9  24841074.811    24841081.043
  22992685.689    -7171686.90649  -5585826.77749  22992687.6044   22992693.0744
  25112918.925    -6272111.51649  -4877746.18949  25112923.6384   25112930.3094
  21067752.819     2901713.32249   2256451.64849  21067754.7144   21067760.0494
  24290823.382    -9291525.24549  -7232473.50049  24290825.2524   24290831.7954
 96  4 20 15 23  0.0020000  0  9 19  3 31 29 28 27 16 18  2
  21317936.158    -1576865.35149  -1231186.55249  21317938.5804   21317943.9204
  24168199.620     1354552.84249   1053499.14249  24168202.2704   24168208.8424
  22692710.036    -6339074.19949  -4935247.76449  22692712.4694   22692717.4724
  23410197.425    12162762.55449   9459932.29649  23410200.5614   23410205.5594
  24851222.502     4158220.938 9   3236213.236 9  24851224.673    24851231.018
  22982098.349    -7227325.19249  -5629181.27849  22982100.0224   22982105.9994
  25103030.492    -6324089.05049  -4918248.16849  25103032.0804   25103038.9764
  21075679.503     2943369.06449   2288910.65649  21075681.5404   21075686.8494
  24276313.046    -9367779.73649  -7291892.56749  24276313.8704   24276321.5604
 96  4 20 15 23 30.0020000  0  9 19  3 31 29 28 27 16 18  2
  21316157.921    -1586208.65549  -1238467.05149  21316160.5494   21316165.9554
  24174815.766     1389316.38249   1080587.60049  24174817.8114   24174824.2094
  22688037.628    -6363627.42249  -4954380.12749  22688039.5704   22688044.9814
  23428139.902    12257048.55349   9533401.88049  23428142.3704   23428147.0204
  24861456.530     4212001.500 9   3278120.167 9  24861458.396    24861464.435
  22971518.683    -7282917.82249  -5672500.20749  22971521.0604   22971526.4924
  25093214.672    -6375674.05349  -4958444.27149  25093217.2914   25093223.0014
  21083693.803     2985484.11449   2321727.56749  21083695.8684   21083701.0984
  24261837.159    -9443846.03949  -7351164.98549  24261838.4554   24261845.7164
 96  4 20 15 24  0.0020000  0  9 19  3 31 29 28 27 16 18  2
  21314408.334    -1595404.12749  -1245632.35649  21314410.6174   21314416.2854
  24181518.407     1424541.56749   1108035.79449  24181520.9204   24181527.6934
  22683456.608    -6387701.70149  -4973139.29349  22683458.4054   22683464.0894
  23446128.415    12351579.78649   9607062.55249  23446130.7644   23446136.2234
  24871774.891     4266225.011 9   3320372.264 9  24871777.052    24871783.355
  22960952.337    -7338446.59049  -5715769.37149  22960954.0594   22960960.2354
  25083476.765    -6426852.79249  -4998323.82949  25083478.4224   25083484.6694
  21091797.791     3028071.56149   2354912.58149  21091800.0014   21091805.3504
  24247396.725    -9519730.18749  -7410295.45949  24247399.3764   24247405.4774
 96  4 20 15 24 30.0020000  0  9 19  3 31 29 28 27 16 18  2
  21312683.921    -1604464.22149  -1252692.17549  21312686.5744   21312692.1674
  24188310.463     1460236.19049   1135849.77049  24188313.0704   24188319.6104
  22678967.952    -6411286.42149  -4991516.98249  22678970.3154   22678976.0404
  23464161.047    12446340.91149   9680902.36449  23464163.6874   23464168.9984
  24882176.832     4320888.478 9   3362967.152 9  24882179.266    24882185.215
  22950398.726    -7393903.94849  -5758982.89049  22950400.8974   22950406.8334
  25073816.405    -6477615.68149  -5037879.31649  25073817.2624   25073824.2144
  21099991.507     3071128.75549   2388463.62649  21099993.4404   21099998.5654
  24232990.514    -9595437.16649  -7469287.89049  24232992.9744   24232999.9324
 96  4 20 15 25  0.0020000  0  9 19  3 31 29 28 27 16 18  2
  21310984.048    -1613398.04349  -1259653.59649  21310986.6574   21310992.2084
  24195194.442     1496404.04049   1164032.52749  24195196.3014   24195202.6854
  22674574.231    -6434379.73749  -5009511.75749  22674575.4244   22674581.4884
  23482233.200    12541310.54149   9754904.64149  23482236.1064   23482241.5134
  24892661.958     4375986.062 9   3405900.350 9  24892664.035    24892669.425
  22939857.090    -7449303.82549  -5802151.62049  22939859.1084   22939864.1504
  25064230.996    -6527970.98249  -5077117.21849  25064234.5374   25064241.9004
  21108270.373     3114633.58049   2422363.47849  21108272.4754   21108277.4224
  24218614.783    -9670977.37749  -7528150.37149  24218617.0914   24218624.4364
 96  4 20 15 25 30.0020000  0  9 19  3 31 29 28 27 16 18  2
  21309305.574    -1622220.05149  -1266527.88849  21309308.0054   21309313.1964
  24202166.146     1533049.17749   1192587.16449  24202169.1364   24202175.4534
  22670273.730    -6456976.12849  -5027119.31449  22670276.0324   22670281.5804
  23500343.543    12636478.97749   9829061.84149  23500346.0784   23500351.2994
  24903226.606     4431508.702 9   3449164.724 9  24903229.205    24903236.069
  22929324.205    -7504653.93849  -5845281.56549  22929326.4044   22929331.3254
  25054726.757    -6577932.84249  -5116048.56149  25054726.7884   25054734.8324
  21116631.674     3158574.06849   2456602.80649  21116633.8064   21116639.1104
  24204271.158    -9746365.56449  -7586894.38349  24204271.3474   24204279.3424
 96  4 20 15 26  0.0020000  0  9 19  3 31 29 28 27 16 18  2
  21307648.571    -1630926.87949  -1273312.43449  21307651.2154   21307656.4384
  24209233.461     1570184.69649   1221523.92649  24209236.1894   24209242.0814
  22666070.205    -6479065.74049  -5044331.98649  22666072.2654   22666078.4904
  23518494.682    12731865.53749   9903388.99549  23518497.3314   23518502.5794
  24913876.139     4487463.048 9   3492765.504 9  24913877.829    24913882.969
  22918799.803    -7559957.81849  -5888375.49249  22918801.8964   22918807.7524
  25045294.650    -6627493.98049  -5154667.63049  25045297.7564   25045302.8314
  21125073.340     3202934.03749   2491168.99949  21125075.4144   21125080.5094
  24189951.642    -9821609.89549  -7645526.31349  24189952.9814   24189959.3634
 96  4 20 15 26 30.0020000  0  9 19  3 31 29 28 27 16 18  2
  21306015.796    -1639506.22149  -1279997.63849  21306018.3774   21306023.8244
  24216392.265     1607797.83649   1250832.88049  24216393.5554   24216399.6054
  22661963.352    -6500647.89349  -5061149.23649  22661965.2994   22661971.7064
  23536687.865    12827470.75849   9977886.53449  23536690.7874   23536695.8944
  24924604.512     4543847.638 9   3536701.533 9  24924606.779    24924612.685
  22908282.067    -7615227.78349  -5931442.99249  22908284.3714   22908290.2894
  25035935.537    -6676667.26849  -5192984.48749  25035939.6874   25035946.3684
  21133593.159     3247706.09849   2526056.30649  21133595.0204   21133600.4984
  24175660.630    -9896701.09749  -7704038.91449  24175663.8774   24175671.0754
 96  4 20 15 27  0.0020000  0  9 19  3 31 29 28 27 16 18  2
  21304410.124    -1647943.99849  -1286572.52849  21304412.8644   21304418.2954
  24223639.261     1645889.15449   1280514.41749  24223642.6954   24223648.6894
  22657952.665    -6521723.74749  -5077571.96349  22657955.0744   22657960.9584
  23554923.878    12923301.53249  10052559.83049  23554926.7144   23554931.9114
  24935417.822     4600665.829 9   3580975.434 9  24935419.623    24935425.118
  22897772.962    -7670456.20049  -5974478.11249  22897775.1554   22897780.2374
  25026651.804    -6725456.18449  -5231001.82649  25026655.4374   25026661.9484
  21142192.771     3292897.28649   2561270.20549  21142194.7944   21142199.9014
  24161404.374    -9971622.52649  -7762419.22449  24161406.7394   24161414.1124
 96  4 20 15 27 30.0020000  0  9 19  3 31 29 28 27 16 18  2
  21302829.852    -1656249.26249  -1293044.16349  21302832.3474   21302837.7204
  24230979.091     1684454.05149   1310564.99849  24230981.8754   24230988.3134
  22654038.595    -6542295.05349  -5093601.53849  22654040.3514   22654046.0544
  23573202.150    13019354.95049  10127406.61149  23573204.7474   23573209.6294
  24946310.310     4657913.387 9   3625583.909 9  24946312.513    24946318.649
  22887272.689    -7725638.15849  -6017477.03149  22887274.2374   22887280.2374
  25017442.143    -6773850.70649  -5268711.86249  25017445.8924   25017452.6434
  21150871.038     3338501.29049   2596805.78249  21150872.7844   21150878.1934
  24147182.217   -10046367.67149  -7820662.17149  24147183.3064   24147190.6164
 96  4 20 15 28  0.0020000  0  9 19  3 31 29 28 27 16 18  2
  21301276.321    -1664413.56149  -1299405.95749  21301278.7274   21301284.3004
  24238405.416     1723484.66149   1340978.45149  24238407.3894   24238414.7674
  22650219.542    -6562364.14549  -5109239.78249  22650221.1394   22650226.9704
  23591521.982    13115627.40949  10202424.07849  23591525.0574   23591530.4744
  24957286.677     4715588.213 9   3670525.319 9  24957288.621    24957293.889
  22876777.713    -7780787.28849  -6060450.36849  22876779.3434   22876785.1634
  25008316.076    -6821836.55149  -5306103.44649  25008315.4494   25008321.8264
  21159626.765     3384514.02149   2632659.84549  21159628.8664   21159634.1864
  24132992.545   -10120928.23449  -7878761.30249  24132994.7684   24133001.5884
 96  4 20 15 28 30.0020000  0  9 19  3 31 29 28 27 16 18  2
  21299749.849    -1672434.79749  -1305656.27549  21299752.4284   21299757.7974
  24245921.987     1762983.51949   1371756.77749  24245924.0394   24245931.0504
  22646496.204    -6581929.45949  -5124485.46349  22646497.8724   22646503.9504
  23609880.795    13212103.19549  10277599.96849  23609884.0334   23609889.6034
  24968340.478     4773687.481 9   3715797.465 9  24968343.082    24968349.510
  22866289.818    -7835900.40949  -6103395.65049  22866291.8394   22866297.9354
  24999259.369    -6869418.65849  -5343180.39449  24999261.6384   24999267.1214
  21168464.375     3430956.65749   2668848.89649  21168466.5524   21168471.8954
  24118841.529   -10195294.72749  -7936709.19449  24118843.5514   24118849.8794
 96  4 20 15 29  0.0020000  0  9 19  3 31 29 28 27 16 18  2
  21298248.552    -1680323.33349  -1311803.19149  21298251.2734   21298256.6864
  24253532.803     1802972.42049   1402916.95249  24253533.7504   24253541.1844
  22642871.209    -6600978.53449  -5139328.88449  22642873.0804   22642878.7034
  23628278.451    13308783.63849  10352935.34349  23628281.4624   23628286.6534
  24979479.855     4832214.189 9   3761402.662 9  24979481.483    24979487.848
  22855809.437    -7890974.11649  -6146310.21949  22855811.8234   22855817.6534
  24990280.769    -6916587.16649  -5379935.06149  24990283.5264   24990292.0044
  21177386.456     3477841.24049   2705382.32049  21177388.6364   21177393.7324
  24104724.541   -10269478.42349  -7994514.65849  24104726.3194   24104734.0174
 96  4 20 15 29 30.0020000  0  9 19  3 31 29 28 27 16 18  2
  21296775.089    -1688068.26849  -1317838.20749  21296777.4444   21296782.7634
  24261234.772     1843457.43849   1434463.71449  24261238.3804   24261244.8154
  22639349.112    -6619483.62649  -5153748.42349  22639351.9604   22639357.0824
  23646719.946    13405693.52049  10428449.50549  23646722.4204   23646728.3494
  24990698.928     4891178.200 9   3807348.627 9  24990701.190    24990706.949
  22845337.839    -7946002.57449  -6189189.54249  22845340.0224   22845345.4654
  24981389.075    -6963316.45449  -5416347.51249  24981391.5134   24981398.4294
  21186394.606     3525179.12349   2742268.96549  21186396.7104   21186402.0584
  24090640.734   -10343488.75649  -8052185.04049  24090643.8444   24090648.9644
 96  4 20 15 30  0.0020000  0  9 19  3 31 29 28 27 16 18  2
  21295331.308    -1695655.07949  -1323750.01449  21295333.7614   21295339.2304
  24269033.156     1884426.37349   1466387.55249  24269035.0744   24269041.4474
  22635930.123    -6637454.07849  -5167751.35749  22635931.9604   22635938.0774
  23665205.779    13502838.23749  10504146.65549  23665208.0334   23665213.7564
  25002001.288     4950570.374 9   3853628.223 9  25002003.769    25002010.939
  22834873.050    -8000996.22949  -6232041.73649  22834875.3354   22834881.0414
  24972578.449    -7009625.45049  -5452432.45149  24972579.5104   24972587.3414
  21195489.376     3572972.46649   2779510.52049  21195491.4214   21195496.4874
  24076589.172   -10417336.84949  -8109728.99349  24076590.3074   24076597.2414
 96  4 20 15 30 30.0020000  0  9 19  3 31 29 28 27 16 18  2
  21293913.753    -1703103.11449  -1329553.68049  21293916.3574   21293921.7714
  24276919.055     1925877.02249   1498686.74849  24276922.4374   24276928.8644
  22632610.678    -6654898.13549  -5181344.12749  22632612.3964   22632618.3594
  23683734.229    13600204.66949  10580016.55849  23683737.0984   23683741.9844
  25013383.657     5010378.812 9   3900232.173 9  25013384.759    25013389.568
  22824414.316    -8055957.47249  -6274868.67449  22824416.5484   22824422.1954
  24963843.921    -7055522.98149  -5488196.76549  24963845.7674   24963852.7074
  21204670.417     3621219.24949   2817105.40149  21204672.5204   21204677.8244
  24062563.400   -10491039.55349  -8167159.64449  24062564.1464   24062572.1644
 96  4 20 15 31  0.0020000  0  9 19  3 31 29 28 27 16 18  2
  21292526.319    -1710394.26949  -1335235.10349  21292528.8764   21292534.4864
  24284900.628     1967813.95849   1531364.86349  24284903.4984   24284907.9464
  22629393.577    -6671804.21849  -5194517.69049  22629395.4574   22629401.1184
  23702309.128    13697815.35449  10656076.78849  23702311.3374   23702317.8834
  25024844.198     5070611.662 9   3947166.845 9  25024846.956    25024853.502
  22813964.358    -8110873.17649  -6317660.12449  22813966.3874   22813972.1704
  24955194.626    -7100978.95149  -5523616.99149  24955195.6524   24955201.6314
  21213934.912     3669904.76749   2855042.15449  21213937.1784   21213942.2544
  24048564.979   -10564596.58749  -8224476.80949  24048567.4964   24048573.3414
 96  4 20 15 31 30.0020000  0  9 19  3 31 29 28 27 16 18  2
  21291172.840    -1717505.39649  -1340776.24749  21291175.5004   21291181.0674
  24292971.977     2010234.13849   1564419.54049  24292974.5794   24292981.9984
  22626277.067    -6688181.94449  -5207279.55549  22626278.8304   22626284.6834
  23720929.086    13795662.74649  10732321.46949  23720932.1764   23720937.3134
  25036388.815     5131271.009 9   3994433.837 9  25036389.993    25036395.810
  22803523.361    -8165740.19449  -6360413.64449  22803525.3544   22803531.7224
  24946630.523    -7145976.54149  -5558680.07049  24946633.2114   24946640.7984
  21223281.475     3719021.51449   2893314.93349  21223283.5324   21223288.9244
  24034600.169   -10637986.67049  -8281663.87149  24034601.7684   24034608.0864
 96  4 20 15 32  0.0020000  0  9 19  3 31 29 28 27 16 18  2
  21289851.746    -1724448.52049  -1346186.47949  21289854.4084   21289859.9544
  24301140.518     2053156.30749   1597865.36749  24301143.2254   24301149.4644
  22623259.846    -6704036.95249  -5219634.10349  22623261.5294   22623267.7154
  23739589.700    13893725.38849  10808733.87949  23739591.6624   23739598.4454
  25048011.880     5192356.245 9   4042032.706 9  25048014.738    25048020.041
  22793090.983    -8220559.43949  -6403129.93349  22793093.6514   22793099.6704
  24938155.347    -7190518.27249  -5593387.91249  24938156.0894   24938163.4664
  21232711.759     3768578.71749   2931930.92449  21232713.9824   21232719.1444
  24020669.671   -10711192.73149  -8338707.54349  24020672.1254   24020677.9114
 96  4 20 15 32 30.0020000  0  9 19  3 31 29 28 27 16 18  2
  21288557.577    -1731250.01749  -1351486.35149  21288560.2264   21288565.6544
  24309405.132     2096588.58149   1631708.69249  24309407.2854   24309413.5044
  22620341.924    -6719370.83749  -5231582.58249  22620343.2424   22620349.6764
  23758287.763    13991986.71749  10885301.11449  23758291.3004   23758296.4984
  25059715.405     5253858.431 9   4089956.459 9  25059717.104    25059724.136
  22782668.465    -8275333.47149  -6445811.00449  22782670.6284   22782676.0824
  24929767.437    -7234604.68549  -5627740.97949  24929767.6744   24929775.1734
  21242223.673     3818563.22849   2970879.87649  21242225.7034   21242230.9014
  24006773.807   -10784216.44649  -8395609.13349  24006774.7384   24006782.1004
 96  4 20 15 33  0.0020000  0  9 19  3 31 29 28 27 16 18  2
  21287292.591    -1737897.38949  -1356666.12649  21287295.2754   21287300.6814
  24317764.126     2140518.76649   1665939.98949  24317767.2904   24317773.5244
  22617523.938    -6734179.43349  -5243121.74349  22617525.8754   22617531.7764
  23777027.207    14090461.33149  10962034.54649  23777030.2264   23777035.4964
  25071500.023     5315783.400 9   4138209.664 9  25071501.942    25071506.928
  22772253.749    -8330062.35349  -6488456.87949  22772256.0034   22772261.6274
  24921462.242    -7278235.90649  -5661739.33949  24921466.0694   24921471.4114
  21251817.433     3868978.12749   3010164.20249  21251819.4754   21251824.7654
  23992914.237   -10857047.30249  -8452360.42949  23992915.7464   23992922.6134
 96  4 20 15 33 30.0020000  0  9 19  3 31 29 28 27 16 18  2
  21286053.940    -1744407.15549  -1361738.67849  21286056.4464   21286062.3664
  24326215.571     2184926.65049   1700543.53249  24326218.1794   24326224.2294
  22614805.296    -6748465.92949  -5254254.07149  22614807.0984   22614813.2644
  23795804.759    14189138.49149  11038925.79849  23795807.7324   23795813.3614
  25083362.330     5378125.282 9   4186787.728 9  25083364.302    25083370.966
  22761846.958    -8384750.93949  -6531071.36049  22761848.9074   22761854.9294
  24913240.714    -7321436.33349  -5695401.99849  24913244.1324   24913250.5244
  21261494.506     3919831.63049   3049790.29449  21261496.5924   21261501.7884
  23979094.969   -10929667.48849  -8508947.57749  23979097.5494   23979103.5194
 96  4 20 15 34  0.0020000  0  9 19  3 31 29 28 27 16 18  2
  21284840.465    -1750782.98449  -1366706.86049  21284843.1744   21284848.6494
  24334752.974     2229793.28549   1735504.53449  24334755.3194   24334761.4884
  22612186.541    -6762226.26749  -5264976.40949  22612189.0084   22612194.2734
  23814622.108    14288024.06549  11115979.47349  23814624.9194   23814630.0504
  25095304.850     5440878.021 9   4235685.935 9  25095306.331    25095311.609
  22751450.052    -8439387.69849  -6573645.45449  22751452.5564   22751457.3974
  24905095.232    -7364226.32949  -5728744.86649  24905101.7684   24905109.3374
  21271256.270     3971130.61049   3089763.51249  21271258.3174   21271263.6034
  23965313.845   -11002087.31149  -8565378.59149  23965315.6944   23965322.8074
 96  4 20 15 34 30.0020000  0  9 19  3 31 29 28 27 16 18  2
  21283656.273    -1757006.26849  -1371556.17449  21283658.8934   21283664.6204
  24343371.544     2275081.75149   1770794.23849  24343373.6174   24343381.2094
  22609666.860    -6775467.20749  -5275294.02049  22609669.2274   22609675.2824
  23833479.251    14387119.87649  11193196.94549  23833480.9354   23833488.3124
  25107322.903     5504037.081 9   4284900.753 9  25107324.828    25107331.659
  22741064.580    -8493962.91449  -6616171.58949  22741066.9944   22741072.2714
  24897033.194    -7406616.90549  -5761776.49849  24897035.2874   24897039.8704
  21281100.957     4022864.96649   3130075.98049  21281103.0974   21281108.4844
  23951569.276   -11074315.78249  -8621660.50249  23951571.5124   23951577.7704
 96  4 20 15 35  0.0020000  0  9 19  3 31 29 28 27 16 18  2
  21282504.588    -1763058.23949  -1376272.00249  21282507.2104   21282512.8544
  24352064.472     2320766.45649   1806392.67849  24352067.2864   24352073.3874
  22607247.157    -6788184.08349  -5285203.27449  22607249.3144   22607254.7684
  23852375.975    14486423.46749  11270576.32149  23852378.9234   23852384.8744
  25119419.803     5567607.523 9   4334436.140 9  25119421.728    25119428.284
  22730693.065    -8548465.10849  -6658640.82349  22730695.1174   22730701.0544
  24889045.083    -7448607.32749  -5794496.32149  24889044.4634   24889051.6764
  21291030.570     4075044.68349   3170735.48749  21291032.7344   21291038.2234
  23937859.996   -11146354.28749  -8677794.38949  23937862.6714   23937868.5534
 96  4 20 15 35 30.0020000  0  9 19  3 31 29 28 27 16 18  2
  21281386.193    -1768935.23749  -1380851.48549  21281388.8034   21281394.4994
  24360837.403     2366867.62149   1842315.65149  24360839.7744   24360846.6294
  22604925.774    -6800381.85549  -5294708.03049  22604927.9054   22604933.3884
  23871309.101    14585918.73749  11348105.05949  23871311.6334   23871317.6934
  25131593.655     5631585.707 9   4384289.230 9  25131597.270    25131602.922
  22720339.882    -8602873.06749  -6701036.63049  22720341.8534   22720347.5714
  24881126.111    -7490198.14549  -5826904.75349  24881130.4344   24881136.5154
  21301045.379     4127672.40749   3211744.09249  21301047.3584   21301052.6444
  23924187.932   -11218202.80349  -8733780.24249  23924189.6324   23924197.3084
 96  4 20 15 36  0.0020000  0  9 19  3 31 29 28 27 16 18  2
  21280300.752    -1774640.12049  -1385296.85449  21280303.3524   21280309.1184
  24369692.765     2413404.10949   1878577.81649  24369696.2554   24369703.1244
  22602701.968    -6812068.15449  -5303814.22849  22602704.3694   22602710.2834
  23890276.387    14685593.67749  11425773.77949  23890279.5664   23890285.4134
  25143844.286     5695960.224 9   4434451.162 9  25143846.847    25143852.219
  22710001.569    -8657200.04749  -6743369.33349  22710003.7214   22710009.6864
  24873289.503    -7531382.96749  -5858996.82049  24873292.6954   24873298.9644
  21311143.579     4180738.14449   3253094.00349  21311145.6044   21311150.8134
  23910547.218   -11289887.18749  -8789638.18449  23910548.9264   23910555.6874
 96  4 20 15 36 30.0020000  0  9 19  3 31 29 28 27 16 18  2
  21279244.393    -1780190.89349  -1389622.13849  21279247.1454   21279252.7844
  24378635.091     2460392.30149   1915191.98549  24378637.6554   24378642.8284
  22600577.721    -6823233.53349  -5312514.51749  22600579.3644   22600585.5574
  23909278.313    14785447.91649  11503582.23549  23909280.9384   23909286.9314
  25156170.041     5760731.638 9   4484922.350 9  25156172.706    25156179.720
  22699676.248    -8711459.54949  -6785649.46749  22699678.4984   22699683.8994
  24865531.386    -7572153.10949  -5890765.78949  24865534.1824   24865541.8954
  21321322.936     4234233.92749   3294779.01349  21321325.2684   21321330.5354
  23896938.236   -11361401.62549  -8845363.71149  23896940.8224   23896946.9844
 96  4 20 15 37  0.0020000  0  9 19  3 31 29 28 27 16 18  2
  21278213.266    -1785610.42749  -1393845.15949  21278215.8494   21278221.4634
  24387669.434     2507870.75449   1952188.15149  24387672.0514   24387679.5314
  22598552.014    -6833876.47149  -5320807.70749  22598554.2284   22598560.2944
  23928313.550    14885478.81449  11581528.35149  23928316.9784   23928322.3804
  25168571.413     5825894.098 9   4535698.268 9  25168572.841    25168578.233
  22689361.425    -8765663.92449  -6827886.63449  22689363.6884   22689369.7674
  24857857.152    -7612494.32449  -5922200.51249  24857857.1714   24857864.6714
  21331583.900     4288153.42949   3336794.19849  21331585.7904   21331591.1684
  23883362.089   -11432746.32849  -8900956.97149  23883364.7404   23883370.7784
 96  4 20 15 37 30.0020000  0  9 19  3 31 29 28 27 16 18  2
  21277206.169    -1790901.53949  -1397968.10649  21277208.7844   21277214.5384
  24396803.190     2555868.32649   1989588.83949  24396805.3154   24396811.1574
  22596630.142    -6843977.72949  -5328678.81049  22596632.2004   22596638.0574
  23947385.584    14985703.04549  11659625.11749  23947388.8914   23947395.4584
  25181044.999     5891453.797 9   4586783.696 9  25181047.590    25181055.302
  22679056.125    -8819818.41649  -6870084.93149  22679058.5484   22679064.1564
  24850263.527    -7652386.13649  -5953285.04249  24850266.4644   24850274.3234
  21341923.926     4342491.16249   3379135.27549  21341925.8234   21341931.4454
  23869822.390   -11503899.66449  -8956401.11149  23869823.6444   23869830.3774
 96  4 20 15 38  0.0020000  0  9 19  3 31 29 28 27 16 18  2
  21276222.335    -1796071.21849  -1401996.43349  21276225.1494   21276230.6774
  24406034.346     2604378.13149   2027388.66449  24406036.7214   24406041.9264
  22594815.342    -6853511.59049  -5336107.79349  22594817.5684   22594823.9784
  23966498.040    15086136.94349  11737885.23649  23966500.8464   23966505.5484
  25193599.783     5957418.462 9   4638184.721 9  25193601.038    25193605.423
  22668758.144    -8873936.24349  -6912254.65649  22668760.3954   22668765.6464
  24842763.207    -7691810.26549  -5984005.14349  24842765.3044   24842771.0024
  21352343.270     4397245.29049   3421800.81649  21352345.3044   21352350.6644
  23856320.430   -11574849.44049  -9011686.64549  23856322.3274   23856329.7254
 96  4 20 15 38 30.0020000  0  9 19  3 31 29 28 27 16 18  2
  21275260.186    -1801127.62649  -1405936.49349  21275262.7934   21275268.2924
  24415357.809     2653370.54449   2065564.54149  24415360.2144   24415366.8164
  22593108.723    -6862483.43849  -5343098.83649  22593110.1404   22593116.4144
  23985647.765    15186769.28449  11816300.00049  23985650.3014   23985656.4404
  25206226.504     6023779.943 9   4689894.902 9  25206229.481    25206236.616
  22658466.123    -8928019.87449  -6954397.74149  22658468.2514   22658473.9244
  24835347.940    -7730775.75949  -6014367.88949  24835350.1094   24835355.6064
  21362839.739     4452403.87149   3464781.51149  21362841.8434   21362846.9854
  23842857.943   -11645597.27749  -9066814.81749  23842859.8444   23842866.5534
 96  4 20 15 39  0.0020000  0  9 19  3 31 29 28 27 16 18  2
  21274323.266    -1806051.94149  -1409773.62549  21274326.0504   21274331.4754
  24424767.448     2702823.62449   2104099.38549  24424770.5344   24424776.1494
  22591506.791    -6870899.98349  -5349657.17549  22591509.0384   22591514.6964
  24004832.838    15287590.54449  11894861.96749  24004835.5624   24004842.3744
  25218930.249     6090536.174 9   4741912.741 9  25218931.956    25218937.061
  22648180.831    -8982069.10949  -6996514.02049  22648182.8794   22648189.0454
  24828020.899    -7769277.40349  -6044369.16249  24828022.9264   24828030.1524
  21373411.675     4507959.84349   3508071.86549  21373413.7464   21373419.2884
  23829432.367   -11716147.12049  -9121788.70749  23829434.6574   23829440.7374
 96  4 20 15 39 30.0020000  0  9 19  3 31 29 28 27 16 18  2
  21273414.167    -1810829.58549  -1413496.46949  21273416.7764   21273422.2454
  24434257.676     2752693.02949   2142958.64549  24434261.0444   24434267.4454
  22590009.821    -6878766.33249  -5355786.78949  22590011.7774   22590017.5314
  24024055.757    15388606.31049  11973575.49949  24024058.6484   24024064.8674
  25231707.871     6157683.676 9   4794235.447 9  25231710.038    25231717.617
  22637901.358    -9036088.05849  -7038606.69649  22637903.6194   22637909.2244
  24820780.579    -7807327.20249  -6074018.35849  24820782.7894   24820790.5444
  21384059.064     4563912.82349   3551671.57649  21384061.3244   21384066.6964
  23816046.095   -11786492.08049  -9176602.95749  23816048.4944   23816054.8204
 96  4 20 15 40  0.0020000  0  9 19  3 31 29 28 27 16 18  2
  21272535.588    -1815445.59349  -1417093.36249  21272538.2854   21272543.8984
  24443825.680     2802976.12049   2182140.22749  24443828.8634   24443835.6204
  22588615.667    -6886094.26449  -5361496.86349  22588617.4264   22588623.2104
  24043313.464    15489807.00749  12052433.12749  24043316.5734   24043322.4384
  25244560.067     6225221.839 9   4846862.554 9  25244562.361    25244566.966
  22627629.052    -9090070.29349  -7080670.76649  22627631.0374   22627637.0124
  24813623.927    -7844929.75349  -6103319.04349  24813627.3934   24813633.0424
  21394785.614     4620280.93449   3595594.76249  21394787.6334   21394792.9004
  23802696.166   -11856647.62049  -9231269.60349  23802698.0734   23802704.9734
 96  4 20 15 40 30.0020000  0  9 19  3 31 29 28 27 16 18  2
  21271695.178    -1819862.66449  -1420535.24449  21271697.8834   21271703.5744
  24453475.612     2853686.90749   2221655.11149  24453478.4524   24453484.6164
  22587323.478    -6892883.24249  -5366786.97549  22587325.3354   22587331.4024
  24062607.565    15591196.16149  12131437.60549  24062610.9954   24062616.0834
  25257488.515     6293161.099 9   4899802.222 9  25257490.650    25257497.843
  22617366.463    -9143997.63949  -7122692.06849  22617369.3064   22617375.3334
  24806556.118    -7882079.40349  -6132266.85049  24806557.1724   24806563.7424
  21405594.942     4677085.09149   3639857.72349  21405597.2204   21405602.3944
  23789384.102   -11926605.01049  -9285781.85349  23789386.0554   23789392.7464
 96  4 20 15 41  0.0020000  0  9 19  3 31 29 28 27 16 18  2
  21270891.658    -1824084.05549  -1423824.64349  21270894.6014   21270900.1464
  24463208.061     2904827.71149   2261505.05349  24463210.7964   24463216.7734
  22586132.955    -6899140.35649  -5371662.64349  22586134.7674   22586140.5404
  24081938.515    15692779.14349  12210593.12549  24081941.4394   24081946.9024
  25270493.075     6361497.068 9   4953051.010 9  25270495.098    25270500.674
  22607115.110    -9197872.87049  -7164672.76149  22607116.9824   22607123.2124
  24799574.532    -7918775.84249  -6160861.47949  24799574.0804   24799580.9294
  21416489.604     4734336.09949   3684468.88249  21416491.8274   21416497.0434
  23776109.342   -11996360.75349  -9340136.97349  23776111.7094   23776118.2494
 96  4 20 15 41 30.0020000  0  9 19  3 31 29 28 27 16 18  2
  21270124.558    -1828116.69849  -1426966.96849  21270126.9834   21270132.5884
  24473025.887     2956424.76349   2301710.54149  24473028.7754   24473033.7734
  22585044.607    -6904858.09449  -5376118.02149  22585046.7914   22585052.6414
  24101307.015    15794559.30249  12289902.30249  24101309.0664   24101315.2964
  25283570.643     6430227.814 9   5006607.386 9  25283573.688    25283581.205
  22596874.470    -9251686.82249  -7206605.70449  22596876.5384   22596882.0784
  24792677.094    -7955016.28549  -6189100.80549  24792678.1424   24792683.7884
  21427472.208     4792049.40049   3729440.26649  21427474.2974   21427479.6114
  23762874.587   -12065910.77349  -9394331.78949  23762876.6804   23762883.3244
 96  4 20 15 42  0.0020000  0  9 19  3 31 29 28 27 16 18  2
  21269389.810    -1831977.61649  -1429975.47949  21269392.4784   21269398.0594
  24482935.117     3008492.30849   2342282.62449  24482937.7564   24482944.6784
  22584060.514    -6910032.59449  -5380150.09649  22584062.1914   22584067.9624
  24120706.728    15896506.36149  12369341.52149  24120709.8924   24120715.1774
  25296724.300     6499342.952 9   5060463.338 9  25296725.508    25296731.339
  22586644.918    -9305443.95549  -7248494.37249  22586646.6814   22586652.6094
  24785863.581    -7990807.41349  -6216989.99949  24785866.9194   24785874.5154
  21438538.490     4850204.21149   3774755.68649  21438540.8324   21438546.1074
  23749676.417   -12135267.45549  -9448375.95649  23749678.4014   23749684.5344
 96  4 20 15 42 30.0020000  0  9 19  3 31 29 28 27 16 18  2
  21268685.717    -1835677.68249  -1432858.65249  21268688.4154   21268694.0444
  24492929.955     3061022.15349   2383214.94249  24492933.1044   24492939.4224
  22583180.446    -6914655.60049  -5383752.43949  22583182.4104   22583188.0574
  24140140.975    15998633.28149  12448920.88649  24140143.9944   24140149.2204
  25309950.453     6568843.751 9   5114619.758 9  25309952.207    25309958.795
  22576428.185    -9359132.97749  -7290329.96549  22576430.1464   22576436.1944
  24779141.759    -8026141.80749  -6244523.31249  24779143.4884   24779150.3634
  21449686.454     4908785.85849   3820403.70649  21449688.4974   21449694.2194
  23736518.732   -12204411.82649  -9502254.68049  23736520.7274   23736527.2304
 96  4 20 15 43  0.0020000  0  9 19  3 31 29 28 27 16 18  2
  21268009.274    -1839232.79249  -1435628.86949  21268011.8794   21268017.5244
  24503016.115     3114015.37949   2424508.35849  24503017.3544   24503024.7554
  22582407.839    -6918713.24549  -5386914.23749  22582410.0194   22582416.0444
  24159610.437    16100947.24649  12528646.00749  24159613.9444   24159619.0664
  25323248.630     6638732.325 9   5169078.355 9  25323250.369    25323256.048
  22566225.858    -9412747.23449  -7332107.30649  22566227.6924   22566233.3684
  24772507.779    -8061014.81449  -6271697.08349  24772507.7764   24772513.8894
  21460914.537     4967789.10649   3866380.24649  21460916.4704   21460921.8274
  23723402.337   -12273340.28449  -9555965.16449  23723403.8554   23723410.7404
 96  4 20 15 43 30.0020000  0  9 19  3 31 29 28 27 16 18  2
  21267361.429    -1842637.62749  -1438281.98949  21267364.1584   21267369.6444
  24513188.029     3167480.32049   2466169.31249  24513190.7904   24513197.1414
  22581744.886    -6922199.97949  -5389631.17349  22581746.7404   22581752.6344
  24179115.354    16203444.97349  12608514.32249  24179118.0554   24179124.3374
  25336623.027     6709009.108 9   5223839.457 9  25336624.998    25336632.039
  22556037.453    -9466286.56649  -7373826.25949  22556039.4164   22556045.1934
  24765957.700    -8095427.33849  -6298512.05949  24765958.6874   24765966.3104
  21472219.072     5027196.26549   3912671.52049  21472221.4884   21472226.6194
  23710324.982   -12342057.77049  -9609511.26149  23710327.2914   23710334.6174
 96  4 20 15 44  0.0020000  0  9 19  3 31 29 28 27 16 18  2
  21266741.607    -1845893.40249  -1440818.96349  21266744.3654   21266749.9054
  24523451.085     3221406.28149   2508189.54949  24523452.7534   24523459.2074
  22581189.224    -6925119.76249  -5391906.32749  22581191.5604   22581196.6844
  24198655.805    16306132.42549  12688530.46549  24198660.1364   24198664.4324
  25350068.600     6779676.884 9   5278905.208 9  25350072.083    25350076.621
  22545864.117    -9519746.54749  -7415483.38949  22545866.2974   22545872.2804
  24759495.746    -8129375.51649  -6324965.18149  24759499.6004   24759505.3724
  21483602.518     5087017.59349   3959285.52249  21483604.9614   21483610.1364
  23697290.377   -12410559.15249  -9662888.96849  23697292.2414   23697299.2324
 96  4 20 15 44 30.0020000  0  9 19  3 31 29 28 27 16 18  2
  21266151.692    -1848993.46049  -1443234.59649  21266154.5264   21266160.0674
  24533800.468     3275791.93849   2550567.94949  24533802.8724   24533810.1044
  22580741.608    -6927471.43449  -5393738.79949  22580743.7304   22580749.3864
  24218238.455    16409036.30549  12768715.24949  24218239.9394   24218247.8964
  25363593.470     6850742.776 9   5334281.216 9  25363595.153    25363602.895
  22535708.679    -9573115.09949  -7457069.27249  22535710.9654   22535716.7324
  24753127.216    -8162846.95449  -6351046.84249  24753129.6944   24753136.6014
  21495071.570     5147286.15549   4006248.02349  21495073.7964   21495079.1394
  23684296.062   -12478845.29749  -9716098.93849  23684297.5304   23684304.4494
 96  4 20 15 45  0.0020000  0  9 19  3 31 29 28 27 16 18  2
  21265589.409    -1851949.15449  -1445537.73749  21265592.1144   21265597.6144
  24544239.934     3330649.99549   2593314.48549  24544241.8354   24544247.1274
  22580400.233    -6929266.20149  -5395137.31849  22580402.0434   22580407.6344
  24237857.210    16512137.03149  12849053.42549  24237860.1624   24237866.0564
  25377189.897     6922196.634 9   5389959.485 9  25377192.639    25377197.940
  22525568.724    -9626400.83849  -7498590.62149  22525571.0944   22525576.7494
  24746847.037    -8195849.19849  -6376762.87849  24746849.1754   24746856.0784
  21506625.401     5208002.79849   4053559.67749  21506627.5854   21506633.0404
  23671338.687   -12546935.44149  -9769156.18749  23671340.8814   23671347.8874
 96  4 20 15 45 30.0020000  0  9 19  3 31 29 28 27 16 18  2
  21265054.334    -1854761.71449  -1447729.34449  21265056.9294   21265062.4834
  24554767.876     3385975.01549   2636424.87749  24554771.2664   24554776.2784
  22580164.601    -6930502.95949  -5396101.02249  22580166.9684   22580172.4504
  24257512.724    16615429.15449  12929540.74449  24257516.7284   24257523.2124
  25390860.734     6994037.434 9   5445939.326 9  25390863.347    25390871.209
  22515445.936    -9679595.42149  -7540040.94149  22515448.3984   22515454.1084
  24740658.368    -8228379.41349  -6402111.11049  24740659.0284   24740665.8134
  21518266.529     5269177.62549   4101228.35449  21518268.7304   21518274.2774
  23658421.199   -12614815.43649  -9822049.68449  23658423.5824   23658430.3564
 96  4 20 15 46  0.0020000  0  9 19  3 31 29 28 27 16 18  2
  21264545.843    -1857433.72849  -1449811.43849  21264548.3794   21264553.8454
  24565379.794     3441744.31049   2679881.45049  24565381.1104   24565389.2754
  22580035.864    -6931178.84749  -5396627.69149  22580038.2194   22580043.8244
  24277203.108    16718904.49149  13010170.80749  24277206.1814   24277213.4744
  25404603.671     7066257.673 9   5502214.780 9  25404605.619    25404611.886
  22505341.076    -9732696.38049  -7581418.31149  22505343.6784   22505349.1924
  24734552.023    -8260446.76349  -6427098.66049  24734555.1664   24734563.8444
  21529995.933     5330814.48949   4149257.06249  21529997.9954   21530003.4444
  23645545.324   -12682482.80949  -9874777.51249  23645546.7834   23645553.6704
 96  4 20 15 46 30.0020000  0  9 19  3 31 29 28 27 16 18  2
  21264066.877    -1859949.52049  -1451771.80149  21264069.3294   21264074.8394
  24576078.930     3497961.87049   2723687.32649  24576080.0804   24576086.7854
  22580016.123    -6931285.03849  -5396710.44249  22580017.8974   22580023.7954
  24296926.512    16822547.78049  13090931.76549  24296928.6344   24296935.2154
  25418420.309     7138856.894 9   5558785.597 9  25418422.267    25418428.904
  22495254.804    -9785699.85149  -7622719.71349  22495257.1454   22495262.8954
  24728540.408    -8292054.84249  -6451728.33449  24728541.1614   24728548.2414
  21541808.884     5392891.59649   4197628.81549  21541810.8914   21541816.2354
  23632710.093   -12749929.90249  -9927333.68549  23632711.9164   23632719.1704
 96  4 20 15 47  0.0020000  0  9 19  3 31 29 28 27 16 18  2
  21263621.385    -1862289.52949  -1453595.18749  21263624.3644   21263629.8814
  24586861.844     3554634.34149   2767847.65849  24586865.4664   24586870.7444
  22580106.077    -6930811.40449  -5396341.38749  22580108.4194   22580113.9654
  24316679.121    16926348.15649  13171815.11249  24316682.5704   24316688.5114
  25432307.464     7211838.080 9   5615653.996 9  25432309.170    25432316.000
  22485185.766    -9838614.87349  -7663952.19349  22485187.8844   22485193.7774
  24722614.423    -8323195.67149  -6475993.91649  24722615.9974   24722623.2144
  21553701.884     5455390.47249   4246329.22149  21553703.8454   21553709.3414
  23619922.546   -12817128.49049  -9979696.21849  23619924.5624   23619931.8144
 96  4 20 15 47 30.0020000  0  9 19  3 31 29 28 27 16 18  2
  21263215.269    -1864425.75549  -1455259.78249  21263217.8624   21263223.3454
  24597728.986     3611741.09549   2812346.41049  24597732.0464   24597737.0734
  22580307.820    -6929751.38349  -5395515.39949  22580309.7854   22580315.3744
  24336462.038    17030309.31949  13252823.75849  24336465.7924   24336470.7544
  25446268.090     7285198.589 9   5672818.055 9  25446269.319    25446276.811
  22475130.661    -9891453.14949  -7705124.87249  22475133.4194   22475139.1224
  24716774.542    -8353872.96349  -6499898.30649  24716778.1094   24716786.0344
  21565674.788     5518307.94249   4295355.80449  21565676.6504   21565682.3064
  23607183.421   -12884072.91649 -10031860.69849  23607185.5574   23607192.3444
 96  4 20 15 48  0.0020000  0  9 19  3 31 29 28 27 16 18  2
  21262852.301    -1866331.76949  -1456744.99449  21262854.9814   21262860.5504
  24608683.589     3669300.53549   2857197.89049  24608685.9344   24608690.7884
  22580621.960    -6928100.43849  -5394228.95349  22580623.8324   22580629.6324
  24356276.913    17134434.38049  13333960.10149  24356279.4644   24356285.4114
  25460301.009     7358946.919 9   5730284.232 9  25460304.085    25460308.741
  22465089.408    -9944222.19449  -7746243.60049  22465091.4024   22465097.1504
  24711030.666    -8384068.25349  -6523427.10149  24711032.9584   24711039.4764
  21577727.032     5581645.05849   4344709.38149  21577729.1224   21577734.8114
  23594492.340   -12950763.74349 -10083827.57249  23594494.3994   23594501.5954
 96  4 20 15 48 30.0020000  0  9 19  3 31 29 28 27 16 18  2
  21262531.813    -1868017.03049  -1458058.18849  21262534.4224   21262539.9084
  24619722.679     3727320.21549   2902408.01549  24619725.7334   24619733.4114
  22581046.369    -6925868.40249  -5392489.70949  22581049.0084   22581054.5544
  24376120.600    17238716.51149  13415218.84749  24376123.7514   24376130.6284
  25474407.630     7433076.841 9   5788047.812 9  25474409.189    25474417.276
  22455057.658    -9996938.94649  -7787321.58549  22455059.8794   22455065.5954
  24705377.749    -8413771.80549  -6546572.72649  24705379.2004   24705386.7894
  21589857.762     5645391.66349   4394382.04349  21589860.0844   21589865.1744
  23581848.788   -13017206.09549 -10135600.82049  23581851.5494   23581857.8464
 96  4 20 15 49  0.0020000  0  9 19  3 31 29 28 27 16 18  2
  21262252.648    -1869484.49249  -1459201.67549  21262255.2814   21262260.9134
  24630850.780     3785789.39349   2947968.39349  24630851.0954   24630858.1784
  22581582.220    -6923053.29349  -5390296.12749  22581584.5374   22581590.2484
  24395999.004    17343176.54049  13496616.20049  24396002.6364   24396007.7334
  25488586.745     7507585.610 9   5846106.570 9  25488588.907    25488593.774
  22445035.787   -10049603.30549  -7828358.75049  22445038.1254   22445043.8234
  24699819.334    -8442972.87949  -6569326.82849  24699824.0944   24699830.0364
  21602068.264     5709558.68249   4444382.29649  21602070.4864   21602076.1784
  23569250.527   -13083410.84049 -10187188.92349  23569252.4854   23569259.5334
 96  4 20 15 49 30.0020000  0  8 19  3 31 29 27 16 18  2
  21262014.192    -1870737.82149  -1460178.30249  21262016.6224   21262022.3014
  24642060.804     3844708.03049   2993878.97649  24642063.9204   24642072.0684
  22582231.021    -6919646.15149  -5387641.21149  22582233.2594   22582238.8074
  24415914.125    17447827.01349  13578161.96349  24415916.4564   24415922.7014
  22435030.027   -10102185.73549  -7869332.06549  22435032.0424   22435037.7874
  24694359.749    -8471668.05849  -6591686.69749  24694362.3424   24694369.1574
  21614362.759     5774165.08549   4494724.92549  21614364.8564   21614370.2544
  23556695.453   -13149387.63349 -10238599.41149  23556697.6414   23556704.6464
 96  4 20 15 50  0.0020000  0  8 19  3 31 29 27 16 18  2
  21261813.377    -1871792.65249  -1461000.25749  21261815.9424   21261821.4294
  24653359.019     3904080.91749   3040143.55449  24653362.2494   24653368.7894
  22582992.697    -6915642.86649  -5384521.77049  22582994.6274   22583000.3034
  24435864.681    17552669.70149  13659857.50749  24435866.9764   24435873.5044
  22425043.866   -10154661.70149  -7910222.42449  22425046.5454   22425051.8184
  24688997.618    -8499849.59349  -6613646.35349  24688999.4484   24689007.6724
  21626740.059     5839207.46749   4545407.27649  21626742.1184   21626747.2984
  23544185.753   -13215129.54049 -10289826.86449  23544187.3084   23544194.0164
 96  4 20 15 50 30.0020000  0  8 19  3 31 29 27 16 18  2
  21261649.018    -1872655.41049  -1461672.54649  21261651.7634   21261657.1704
  24664744.375     3963903.46749   3086758.49249  24664745.6474   24664752.2754
  22583867.723    -6911043.53949  -5380937.88649  22583870.0204   22583875.4874
  24455854.420    17657715.64149  13741711.43649  24455856.8974   24455862.0514
  22415082.615   -10207007.18949  -7951011.11549  22415084.9304   22415090.6974
  24683732.614    -8527517.42149  -6635205.70149  24683734.7404   24683741.4714
  21639201.052     5904690.52949   4596433.02249  21639203.2454   21639208.6234
  23531719.445   -13280640.45849 -10340874.32149  23531721.3184   23531727.7334
 96  4 20 15 51  0.0020000  0  8 19  3 31 29 27 16 18  2
  21261521.466    -1873325.82249  -1462194.95549  21261524.3074   21261529.8704
  24676212.814     4024174.08849   3133722.57549  24676216.3684   24676221.8934
  22584858.210    -6905838.51249  -5376882.03149  22584860.2114   22584866.1454
  24475882.925    17762965.85449  13823724.52749  24475885.8724   24475892.3604
  22405149.944   -10259205.67649  -7991685.26149  22405152.0374   22405157.7354
  24678564.225    -8554672.38449  -6656365.42749  24678567.2424   24678573.9214
  21651746.281     5970617.67349   4647804.80049  21651748.7574   21651753.9924
  23519295.671   -13345926.19149 -10391746.31749  23519297.5914   23519304.1924
 96  4 20 15 51 30.0020000  0  8 19  3 31 29 27 16 18  2
  21261426.979    -1873823.10849  -1462582.45449  21261429.6394   21261435.3424
  24687770.274     4084907.42749   3181047.21749  24687773.0874   24687779.1984
  22585963.305    -6900031.85149  -5372357.36649  22585965.4704   22585971.3274
  24495947.197    17868402.80249  13905883.12449  24495949.1184   24495956.0704
  22395246.291   -10311250.64849  -8032239.78349  22395248.3464   22395253.9984
  24673493.058    -8581324.05949  -6677132.98049  24673494.9244   24673503.5814
  21664375.564     6036984.29249   4699519.02949  21664377.7974   21664383.3644
  23506916.267   -13410979.70549 -10442437.35549  23506918.0704   23506925.5904
 96  4 20 15 52  0.0020000  0  8 19  3 31 29 27 16 18  2
  21261363.628    -1874156.73149  -1462842.42749  21261366.1314   21261371.6474
  24699418.835     4146118.27349   3228743.96249  24699421.8684   24699426.5974
  22587180.554    -6893634.69149  -5367372.56949  22587183.1574   22587188.5394
  24516044.418    17974016.35349  13988179.33349  24516048.4114   24516054.2274
  22385367.884   -10363160.40149  -8072688.94549  22385370.2294   22385375.9224
  24668516.094    -8607477.93949  -6697512.63949  24668519.0474   24668524.9104
  21677086.982     6103782.47149   4751569.53749  21677089.1494   21677094.4584
  23494580.896   -13475802.59049 -10492948.67849  23494582.3044   23494589.7884
 96  4 20 15 52 30.0020000  0  8 19  3 31 29 27 16 18  2
  21261332.080    -1874322.35349  -1462971.49549  21261334.7134   21261340.2794
  24711159.704     4207821.00249   3276823.98249  24711162.6734   24711169.2104
  22588511.411    -6886640.10749  -5361922.24949  22588513.6814   22588519.2984
  24536175.541    18079806.57849  14070613.19749  24536178.6364   24536185.5354
  22375512.591   -10414952.65649  -8113046.54449  22375514.5024   22375520.2514
  24663633.851    -8633127.43049  -6717499.25849  24663637.9584   24663644.2704
  21689883.397     6171027.41349   4803968.17149  21689885.5794   21689890.8154
  23482290.690   -13540386.38149 -10543273.70849  23482293.2084   23482299.6384
 96  4 20 15 53  0.0020000  0  8 19  3 31 29 27 16 18  2
  21261332.383    -1874321.09449  -1462970.51949  21261334.9474   21261340.5404
  24722992.865     4270008.21349   3325281.51949  24722995.6344   24723002.9564
  22589956.284    -6879050.44749  -5356008.22649  22589957.9434   22589963.8244
  24556340.352    18185769.79249  14153181.86549  24556342.7664   24556348.7124
  22365675.840   -10466644.47049  -8153325.88349  22365677.9014   22365683.5094
  24658846.592    -8658292.28749  -6737108.24049  24658848.8844   24658856.3014
  21702762.544     6238709.19649   4856707.19849  21702764.9344   21702770.3874
  23470049.316   -13604717.47349 -10593401.82849  23470051.5474   23470058.1744
 96  4 20 15 53 30.0020000  0  8 19  3 31 29 27 16 18  2
  21261365.062    -1874148.78149  -1462836.26149  21261367.6604   21261373.1694
  24734917.200     4332665.82949   3374105.62349  24734919.6844   24734926.8544
  22591509.276    -6870880.98849  -5349642.42649  22591512.5084   22591518.1234
  24576534.205    18291891.55049  14235874.06449  24576537.8664   24576542.4834
  22355856.168   -10518251.71549  -8193539.31749  22355857.2194   22355863.0724
  24654148.383    -8682988.30949  -6756351.90249  24654149.1304   24654156.2444
  21715724.828     6306825.19049   4909784.57149  21715726.9744   21715732.3584
  23457856.347   -13668790.84749 -10643329.12449  23457858.6214   23457865.8144
 96  4 20 15 54  0.0020000  0  8 19  3 31 29 27 16 18  2
  21261438.198    -1873763.88049  -1462536.34449  21261440.9984   21261446.5874
  24746928.465     4395785.52949   3423289.77349  24746930.9924   24746936.6434
  22593178.464    -6862113.95949  -5342810.97449  22593181.1834   22593186.8004
  24596762.517    18398190.83149  14318704.60749  24596765.5994   24596771.7044
  22346050.133   -10569777.23149  -8233689.07549  22346052.4654   22346058.3304
  24649539.962    -8707191.82949  -6775211.80549  24649543.1504   24649550.7494
  21728773.309     6375394.20449   4963214.94649  21728775.3044   21728780.5794
  23445714.459   -13732596.79649 -10693048.04349  23445716.7394   23445723.3534
 96  4 20 15 54 30.0020000  0  8 19  3 31 29 27 16 18  2
  21261556.938    -1873141.20249  -1462051.15049  21261559.5494   21261564.9514
  24759023.882     4459350.27449   3472820.68949  24759026.7774   24759033.8854
  22594964.915    -6852727.32449  -5335496.71949  22594966.7654   22594972.3624
  24617028.430    18504686.18649  14401687.94349  24617030.4354   24617037.1444
  22336265.194   -10621197.26549  -8273756.63449  22336267.3354   22336273.2274
  24645035.893    -8730878.86549  -6793669.24749  24645036.3134   24645043.5184
  21741908.293     6444419.39049   5017000.78349  21741910.3374   21741915.8464
  23433626.147   -13796121.65849 -10742547.92549  23433628.1494   23433634.9004
 96  4 20 15 55  0.0020000  0  8 19  3 31 29 27 16 18  2
  21261721.435    -1872276.32549  -1461377.22749  21261723.8914   21261729.6334
  24771202.565     4523346.20949   3522687.64149  24771205.3354   24771211.7154
  22596868.105    -6842724.65549  -5327702.44049  22596870.5104   22596876.1574
  24637331.520    18611384.30449  14484829.27049  24637334.9174   24637341.8884
  22326504.033   -10672494.33749  -8313728.37549  22326506.0414   22326511.8354
  24640626.130    -8754041.49849  -6811718.06049  24640629.0954   24640636.0624
  21755128.701     6513893.34649   5071136.31149  21755130.7364   21755136.1294
  23421589.471   -13859377.89749 -10791838.49549  23421591.1774   23421597.5724
 96  4 20 15 55 30.0020000  0  8 19  3 31 29 27 16 18  2
  21261932.021    -1871168.88049  -1460514.28949  21261934.7374   21261940.2454
  24783464.475     4587778.75649   3572894.78649  24783466.4454   24783472.1364
  22598890.433    -6832097.28149  -5319421.37949  22598892.7614   22598898.7054
  24657672.529    18718275.24649  14568120.85849  24657675.0394   24657681.1044
  22316765.051   -10723670.38249  -8353605.81249  22316767.3134   22316772.7184
  24636324.989    -8776651.41449  -6829336.20049  24636325.6214   24636332.6074
  21768435.653     6583820.76949   5125625.18949  21768437.7544   21768442.9974
  23409599.981   -13922381.01149 -10840931.83149  23409601.9054   23409608.3564
 96  4 20 15 56  0.0020000  0  8 19  3 31 29 27 16 18  2
  21262189.643    -1869816.68349  -1459460.63349  21262192.3464   21262197.9094
  24795810.168     4652657.13049   3623449.35149  24795812.4944   24795819.3544
  22601032.856    -6820839.81049  -5310649.33349  22601034.8834   22601040.8564
  24678053.167    18825373.20849  14651573.75349  24678055.4834   24678061.6074
  22307052.575   -10774711.00249  -8393377.72349  22307054.9854   22307060.6414
  24632131.399    -8798693.01349  -6846511.48749  24632130.5784   24632138.0114
  21781826.996     6654193.99849   5180461.44949  21781829.2564   21781834.2754
  23397659.813   -13985127.54049 -10889825.22849  23397661.7584   23397668.2934
 96  4 20 15 56 30.0020000  0  8 19  3 31 29 27 16 18  2
  21262488.145    -1868246.75549  -1458237.31649  21262490.7704   21262496.4004
  24808237.922     4717969.14449   3674341.79049  24808240.5414   24808247.4674
  22603289.938    -6808979.49949  -5301407.54049  22603292.1104   22603297.5264
  24698468.601    18932657.95549  14735172.20549  24698471.1244   24698477.8504
  22297364.336   -10825623.30249  -8433049.63849  22297366.5084   22297372.1594
  24628039.450    -8820183.71349  -6863257.49249  24628042.5134   24628048.9234
  21795297.789     6724983.16549   5235621.81549  21795299.9284   21795305.5434
  23385766.794   -14047624.50949 -10938524.16449  23385768.8374   23385775.7984
 96  4 20 15 57  0.0020000  0  8 19  3 31 29 27 16 18  2
  21262826.123    -1866470.00249  -1456852.84049  21262828.8124   21262834.7374
  24820750.523     4783724.59249   3725579.77449  24820753.4944   24820760.7204
  22605660.054    -6796527.08949  -5291704.36749  22605661.7524   22605667.6624
  24718916.765    19040115.85849  14818905.57149  24718920.1464   24718926.0274
  22287698.728   -10876416.17549  -8472628.49849  22287701.0834   22287706.5784
  24624052.559    -8841140.40749  -6879587.39049  24624054.5854   24624061.2384
  21808847.251     6796188.26449   5291106.28249  21808849.6244   21808855.2614
  23373921.921   -14109869.42049 -10987026.69349  23373924.0334   23373931.0194
 96  4 20 15 57 30.0020000  0  8 19  3 31 29 27 16 18  2
  21263207.441    -1864466.52549  -1455291.69549  21263210.3884   21263215.6824
  24833349.844     4849931.80449   3777169.79049  24833352.6064   24833358.4924
  22608143.427    -6783473.16149  -5281532.48749  22608145.8134   22608151.2244
  24739398.573    19147747.60249  14902774.39149  24739400.8914   24739408.2774
  22278058.163   -10927077.15649  -8512104.58649  22278060.3914   22278066.1474
  24620165.384    -8861566.87149  -6895504.10949  24620166.8274   24620174.9844
  21822478.270     6867816.87649   5346920.75449  21822480.2034   21822485.7594
  23362132.439   -14171827.56749 -11035305.77149  23362134.0194   23362140.5224
 96  4 20 15 58  0.0020000  0  8 19  3 31 29 27 16 18  2
  21263629.975    -1862246.20349  -1453561.58049  21263632.7804   21263638.3664
  24846032.376     4916575.30449   3829099.76049  24846034.6334   24846041.3454
  22610739.408    -6769834.75849  -5270905.17349  22610741.1934   22610747.1414
  24759911.980    19255546.90549  14986773.77349  24759915.4494   24759921.5954
  22268443.491   -10977601.61749  -8551474.29849  22268445.8844   22268451.5434
  24616373.408    -8881494.02049  -6911031.76949  24616375.5604   24616383.1894
  21836187.426     6939859.20749   5403057.61349  21836189.5554   21836195.1204
  23350396.733   -14233496.48849 -11083359.47049  23350398.7704   23350405.5604
 96  4 20 15 58 30.0020000  0  8 19  3 31 29 27 16 18  2
  21264091.197    -1859823.97949  -1451674.14149  21264093.9504   21264099.4704
  24858793.065     4983637.05749   3881355.64449  24858796.0144   24858801.9244
  22613443.381    -6755623.81449  -5259831.72749  22613445.7884   22613450.6144
  24780452.270    19363484.67349  15070881.05849  24780455.0504   24780461.8704
  22258851.092   -11028009.77249  -8590753.37949  22258853.5594   22258859.2314
  24612672.743    -8900944.88349  -6926188.28349  24612673.8054   24612680.7444
  21849973.279     7012304.83749   5459508.72549  21849975.4154   21849980.9544
  23338712.290   -14294897.74349 -11131204.60749  23338714.6514   23338721.1484
 96  4 20 15 59  0.0020000  0  8 19  3 31 29 27 16 18  2
  21264591.265    -1857194.51549  -1449625.21249  21264594.0314   21264599.3914
  24871635.456     5051124.77949   3933943.45349  24871637.6934   24871645.0204
  22616259.309    -6740826.58149  -5248301.42749  22616261.3744   22616267.1534
  24801018.478    19471562.28349  15155097.30749  24801021.8244   24801027.9134
  22249281.895   -11078296.53349  -8629937.86749  22249284.0024   22249289.9464
  24609059.895    -8919926.14749  -6940978.88549  24609062.7014   24609068.4814
  21863838.531     7085166.15549   5516283.75349  21863840.6614   21863845.8644
  23327077.710   -14356038.43449 -11178846.70049  23327079.8854   23327086.5344
 96  4 20 15 59 30.0020000  0  8 19  3 31 29 27 16 18  2
  21265136.413    -1854330.73449  -1447393.70149  21265138.8674   21265144.3764
  24884564.001     5119061.28049   3986880.97049  24884565.3114   24884573.2674
  22619191.607    -6725415.43549  -5236292.75949  22619193.8044   22619199.4034
  24821615.136    19579797.61249  15239436.44449  24821618.8274   24821624.6144
  22239740.770   -11128435.96549  -8669007.55249  22239743.0704   22239748.4114
  24605542.674    -8938403.83449  -6955377.08249  24605546.1294   24605553.3914
  21877787.671     7158470.92349   5573404.32549  21877789.9584   21877795.6344
  23315496.588   -14416895.29349 -11226267.63049  23315498.9274   23315505.5464
 96  4 20 16  0  0.0020000  0  8 19  3 31 29 27 16 18  2
  21265726.376    -1851230.72749  -1444978.11749  21265728.9344   21265734.4614
  24897581.335     5187464.12949   4040181.86549  24897583.3624   24897589.7024
  22622245.175    -6709368.57649  -5223788.72949  22622247.4794   22622253.4334
  24842242.851    19688200.31849  15323906.00349  24842246.6854   24842253.2014
  22230229.110   -11178420.27349  -8707956.35849  22230231.5934   22230236.9954
  24602126.271    -8956357.71449  -6969367.11849  24602128.7664   24602135.5574
  21891824.074     7232231.49249   5630880.07049  21891826.2784   21891831.4494
  23303968.185   -14477479.54449 -11273476.12749  23303970.5834   23303977.0294
 96  4 20 16  0 30.0020000  0  8 19  3 31 29 27 16 18  2
  21266360.678    -1847896.61649  -1442380.11849  21266363.3254   21266368.9914
  24910683.784     5256330.57149   4093843.96849  24910686.8854   24910693.5354
  22625421.531    -6692679.60949  -5210784.35149  22625423.3434   22625428.8004
  24862901.119    19796759.87949  15408497.79949  24862904.9224   24862911.6274
  22220743.873   -11228265.16649  -8746796.53449  22220746.5214   22220751.6764
  24598812.686    -8973771.47449  -6982936.28649  24598816.0374   24598822.0024
  21905944.556     7306434.29649   5688700.40549  21905946.5334   21905952.3744
  23292488.482   -14537802.53049 -11320481.05149  23292490.7804   23292497.9324
 96  4 20 16  1  0.0020000  0  8 19  3 31 29 27 16 18  2
  21267037.946    -1844338.27949  -1439607.39549  21267040.6704   21267046.2764
  24923878.925     5325665.88349   4147871.46649  24923880.8074   24923888.6284
  22628719.964    -6675344.63949  -5197276.59549  22628721.6854   22628727.8484
  24883591.658    19905484.27249  15493218.02249  24883594.7724   24883600.8814
  22211285.541   -11277969.78849  -8785527.41049  22211287.8694   22211293.5114
  24595605.499    -8990628.03449  -6996071.28049  24595607.3984   24595614.5974
  21920149.504     7381082.54449   5746867.84349  21920151.4734   21920157.2254
  23281061.618   -14597853.66349 -11367274.14149  23281063.4534   23281070.3344
 96  4 20 16  1 30.0020000  0  8 19  3 31 29 27 16 18  2
  21267759.782    -1840545.29749  -1436651.82949  21267762.2874   21267768.0434
  24937164.120     5395475.16349   4202268.29449  24937166.2374   24937171.0714
  22632141.924    -6657359.97149  -5183262.57849  22632144.2924   22632150.1734
  24904313.304    20014377.02949  15578069.43449  24904315.7324   24904323.3854
  22201853.886   -11327532.63149  -8824147.80349  22201856.1614   22201862.1624
  24592506.257    -9006911.60549  -7008759.76949  24592509.0094   24592516.6654
  21934438.787     7456173.76249   5805380.45649  21934441.0764   21934446.6514
  23269688.207   -14657620.04349 -11413845.33249  23269690.4384   23269697.4854
 96  4 20 16  2  0.0020000  0  8 19  3 31 29 27 16 18  2
  21268527.076    -1836513.13149  -1433509.89349  21268529.6634   21268535.2484
  24950536.603     5465754.68149   4257031.48649  24950539.2884   24950546.6064
  22635689.380    -6638719.69349  -5168737.69649  22635691.2484   22635697.5114
  24925069.314    20123455.70449  15663065.70549  24925072.9134   24925080.3544
  22192447.952   -11376962.07949  -8862664.25549  22192450.0504   22192456.0374
  24589518.290    -9022619.78849  -7020999.92849  24589520.2574   24589527.2324
  21948811.274     7531701.84949   5864233.48049  21948813.5504   21948818.9184
  23258367.060   -14717114.29249 -11460204.48249  23258368.7894   23258376.1474
 96  4 20 16  2 30.0020000  0  8 19  3 31 29 27 16 18  2
  21269336.730    -1832256.50149  -1430193.04049  21269339.5324   21269345.1384
  24963997.488     5536485.34649   4312146.28949  24963998.8514   24964006.1024
  22639356.073    -6619450.11049  -5153722.45149  22639358.0714   22639363.9874
  24945860.842    20232708.91949  15748197.98949  24945863.1354   24945869.4164
  22183064.547   -11426271.25749  -8901086.99249  22183066.9514   22183072.5734
  24586635.277    -9037760.14849  -7032797.62049  24586638.5214   24586645.6544
  21963266.773     7607666.45249   5923426.65149  21963268.9864   21963274.6264
  23247096.664   -14776342.38249 -11506356.22949  23247098.7504   23247105.1964
 96  4 20 16  3  0.0020000  0  8 19  3 31 29 27 16 18  2
  21270189.401    -1827777.15349  -1426702.64849  21270191.9824   21270197.5364
  24977540.566     5607654.46949   4367602.70649  24977543.8314   24977547.6834
  22643140.423    -6599564.88549  -5138227.48549  22643142.4634   22643148.0914
  24966686.802    20342145.31549  15833473.02649  24966689.1294   24966695.2214
  22173704.901   -11475456.89849  -8939413.46349  22173707.3174   22173712.9274
  24583858.584    -9052359.03349  -7044173.38749  24583860.8554   24583867.3084
  21977806.300     7684071.20049   5982962.78749  21977808.4264   21977814.1024
  23235876.527   -14835304.24249 -11552300.53649  23235878.7844   23235885.1874
 96  4 20 16  3 30.0020000  0  8 19  3 31 29 27 16 18  2
  21271087.930    -1823055.65849  -1423023.57249  21271090.6154   21271096.2364
  24991162.207     5679239.75549   4423383.41849  24991165.8734   24991171.6314
  22647043.105    -6579056.95449  -5122247.28049  22647045.1994   22647050.9014
  24987547.098    20451769.42249  15918894.31149  24987548.7634   24987556.9274
  22164371.104   -11524506.76849  -8977634.14149  22164373.3664   22164378.9434
  24581181.301    -9066423.75949  -7055132.93349  24581183.6534   24581191.0524
  21992429.199     7760914.95349   6042841.00549  21992431.5004   21992436.6814
  23224706.708   -14894002.78249 -11598039.65349  23224708.6564   23224715.1624
 96  4 20 16  4  0.0020000  0  8 19  3 31 29 27 16 18  2
  21272033.215    -1818088.03149  -1419152.69849  21272035.8914   21272041.2974
  25004865.574     5751255.86649   4479499.82749  25004868.3834   25004875.2694
  22651069.128    -6557900.51449  -5105761.75449  22651071.0184   22651076.9714
  25008444.596    20561590.07849  16004468.75749  25008448.6064   25008453.5634
  22155070.660   -11573381.11949  -9015718.05249  22155073.0444   22155078.4014
  24578611.057    -9079931.98249  -7065658.83749  24578613.4624   24578620.4914
  22007141.419     7838227.56949   6103084.57249  22007143.5444   22007149.2534
  23213589.762   -14952421.80949 -11643560.97649  23213591.7034   23213598.3654
 96  4 20 16  4 30.0020000  0  8 19  3 31 29 27 16 18  2
  21273021.541    -1812893.46149  -1415104.99049  21273024.2724   21273029.9064
  25018650.918     5823697.06249   4535947.51049  25018653.8444   25018658.9064
  22655213.953    -6536115.89649  -5088786.73849  22655216.5254   22655221.9464
  25029375.074    20671578.08749  16090173.61749  25029378.0584   25029383.5314
  22145806.034   -11622067.06049  -9053655.14849  22145808.3314   22145814.0234
  24576147.132    -9092903.02149  -7075766.16249  24576145.1944   24576154.5464
  22021940.992     7915998.78749   6163685.49249  22021942.9384   22021948.6144
  23202528.561   -15010549.94749 -11688855.62649  23202530.3674   23202536.9144
 96  4 20 16  5  0.0020000  0  8 19  3 31 29 27 16 18  2
  21274056.848    -1807454.79649  -1410867.07949  21274059.4144   21274064.8044
  25032519.326     5896576.85749   4592736.91949  25032521.9614   25032529.8934
  22659482.757    -6513685.97549  -5071308.88749  22659484.7794   22659490.4424
  25050338.011    20781739.93549  16176013.93149  25050340.4114   25050347.1794
  22136580.065   -11670550.37949  -9091434.35249  22136582.3324   22136587.8334
  24573777.070    -9105327.75549  -7085447.78349  24573781.3644   24573788.1224
  22036825.027     7994216.73249   6224634.51349  22036827.2264   22036832.8564
  23191526.849   -15068362.98749 -11733904.74949  23191529.0244   23191535.4124
 96  4 20 16  5 30.0020000  0  8 19  3 31 29 27 16 18  2
  21275138.867    -1801767.76349  -1406435.63349  21275141.5224   21275146.9914
  25046476.792     5969917.40349   4649885.40549  25046478.7744   25046484.8064
  22663875.559    -6490601.28049  -5053320.82049  22663877.6954   22663883.4554
  25071329.747    20892055.35549  16261973.88849  25071332.0344   25071340.4004
  22127395.066   -11718816.63749  -9129044.42249  22127397.3904   22127403.0724
  24571524.222    -9117181.11449  -7094684.19049  24571525.0534   24571532.8144
  22051796.137     8072888.67749   6285937.30149  22051797.9684   22051803.5304
  23180586.762   -15125854.81049 -11778703.56549  23180588.5134   23180595.1254
 96  4 20 16  6  0.0020000  0  8 19  3 31 29 27 16 18  2
  21276268.949    -1795829.44149  -1401808.37449  21276271.5474   21276277.2184
  25060527.408     6043753.28449   4707419.80849  25060529.1744   25060534.0544
  22668393.064    -6466862.16449  -5034822.81349  22668395.5214   22668400.8124
  25092351.341    21002521.85249  16348051.55449  25092354.1524   25092360.3644
  22118253.850   -11766855.74049  -9166477.48449  22118255.8684   22118261.5134
  24569379.263    -9128450.48749  -7103465.53349  24569381.1284   24569388.2814
  22066853.440     8152015.99749   6347594.92349  22066855.7194   22066861.0924
  23169711.054   -15183004.79449 -11823236.01649  23169713.2444   23169719.7174
 96  4 20 16  6 30.0020000  0  8 19  3 31 29 27 16 18  2
  21277449.283    -1789627.08249  -1396975.37749  21277452.0234   21277457.5194
  25074669.570     6118077.77549   4765334.98449  25074673.6954   25074679.9834
  22673032.422    -6442481.35149  -5015824.79249  22673034.7524   22673040.6034
  25113403.838    21113149.80449  16434255.07049  25113405.3794   25113412.4974
  22109149.403   -11814698.17449  -9203757.30349  22109151.5724   22109157.2444
  24567343.128    -9139147.20349  -7111800.63949  24567345.2204   24567352.9334
  22081993.626     8231577.83149   6409591.12649  22081995.7124   22082001.4374
  23158903.088   -15239802.99249 -11867494.34149  23158904.7514   23158911.4684
 96  4 20 16  7  0.0020000  0  8 19  3 31 29 27 16 18  2
  21278680.322    -1783158.86349  -1391935.21749  21278682.7384   21278688.1374
  25088899.916     6192854.09449   4823602.23649  25088902.2324   25088907.6524
  22677792.630    -6417467.69649  -4996333.64049  22677794.3434   22677800.2814
  25134484.189    21223933.31649  16520579.78549  25134486.6844   25134494.7704
  22100076.202   -11862379.52949  -9240911.60249  22100078.0894   22100084.2704
  24565414.688    -9149290.80749  -7119704.75149  24565415.4764   24565421.4354
  22097212.828     8311555.61349   6471911.44549  22097214.9354   22097220.3724
  23148156.780   -15296274.48549 -11911498.09849  23148158.7014   23148165.3344
 96  4 20 16  7 30.0020000  0  8 19  3 31 29 27 16 18  2
  21279963.272    -1776417.00049  -1386681.82349  21279965.7044   21279971.4804
  25103213.379     6268075.22749   4882216.05549  25103215.0454   25103222.6484
  22682674.837    -6391812.14549  -4976342.31349  22682676.7634   22682682.3954
  25155596.129    21334875.04649  16607027.80049  25155599.0744   25155605.8514
  22091034.170   -11909896.75749  -9277938.01149  22091036.1474   22091041.9394
  24563586.705    -9158886.44249  -7127181.88949  24563589.8514   24563596.5054
  22112512.191     8391953.94349   6534559.46549  22112514.4464   22112520.1324
  23137470.724   -15352429.44949 -11955255.20549  23137472.8494   23137479.2714
 96  4 20 16  8  0.0020000  0  8 19  3 31 29 27 16 18  2
  21281301.870    -1769382.03149  -1381200.03649  21281304.1614   21281309.6404
  25117613.497     6343746.37049   4941180.57449  25117616.3434   25117621.8104
  22687682.415    -6365496.48649  -4955836.61149  22687684.3924   22687689.9274
  25176744.999    21446015.17149  16693630.39649  25176748.1654   25176755.6064
  22082023.440   -11957248.13149  -9314835.18249  22082025.3944   22082030.9474
  24561867.616    -9167928.45449  -7134227.62049  24561868.4624   24561875.6424
  22127894.302     8472785.83149   6597545.32149  22127896.3044   22127901.7924
  23126850.178   -15408240.25549 -11998744.13949  23126852.1474   23126858.7664
 96  4 20 16  8 30.0020000  0  8 19  3 31 29 27 16 18  2
  21282695.392    -1762059.26749  -1375493.99549  21282697.8714   21282703.4064
  25132095.842     6419847.25449   5000479.92249  25132098.1154   25132104.5714
  22692814.165    -6338528.81049  -4934822.84949  22692816.5434   22692822.0574
  25197933.557    21557361.07149  16780393.36349  25197936.8964   25197943.7534
  22073041.481   -12004447.46049  -9351613.88249  22073043.5044   22073049.5464
  24560247.086    -9176429.22249  -7140851.60449  24560251.9344   24560258.9654
  22143361.148     8554065.06449   6660879.76049  22143363.0394   22143368.7354
  23116291.682   -15463725.30649 -12041979.23249  23116293.8284   23116300.3074
 96  4 20 16  9  0.0020000  0  8 19  3 31 29 27 16 18  2
  21284143.101    -1754451.05649  -1369565.52649  21284145.9224   21284151.1694
  25146660.076     6496388.26449   5060122.22149  25146662.5314   25146669.6634
  22698070.727    -6310907.85149  -4913300.03249  22698072.5004   22698078.0934
  25219159.214    21668902.13349  16867308.37449  25219161.9064   25219169.6244
  22064093.486   -12051469.48549  -9388254.42349  22064095.5524   22064101.5014
  24558737.809    -9184374.27149  -7147042.55649  24558739.4734   24558746.3004
  22158914.091     8635798.87749   6724568.41449  22158916.5814   22158922.0244
  23105791.495   -15518903.36349 -12084975.11749  23105793.5244   23105800.1364
 96  4 20 16  9 30.0020000  0  8 19  3 31 29 27 16 18  2
  21285639.085    -1746589.17749  -1363439.38949  21285641.6774   21285647.2584
  25161307.973     6573362.82249   5120102.37749  25161310.5404   25161317.4204
  22703445.706    -6282661.32349  -4891289.76249  22703447.5504   22703453.3544
  25240417.536    21780614.38249  16954356.79349  25240421.0524   25240427.6614
  22055177.770   -12098321.84149  -9424762.74949  22055180.0604   22055185.6024
  24557331.971    -9191766.29249  -7152802.57149  24557333.3674   24557340.4424
  22174551.399     8717972.28949   6788599.61749  22174553.6594   22174559.4124
  23095346.425   -15573793.74749 -12127746.83349  23095348.2904   23095354.8234
 96  4 20 16 10  0.0020000  0  8 19  3 31 29 27 16 18  2
  21287183.730    -1738471.57349  -1357113.98849  21287186.4844   21287191.9444
  25176039.476     6650779.86449   5180427.32749  25176043.0234   25176048.9544
  22708938.380    -6253796.34649  -4868797.57749  22708940.4194   22708945.8234
  25261711.275    21892508.73749  17041547.13649  25261714.2694   25261721.6814
  22046295.111   -12145000.91549  -9461136.05549  22046297.3624   22046303.1124
  24556032.274    -9198588.52349  -7158118.60549  24556034.4164   24556040.8824
  22190273.493     8800591.61449   6852978.28549  22190275.5454   22190281.3824
  23084957.483   -15628386.84949 -12170286.90849  23084959.7094   23084966.2344
 96  4 20 16 10 30.0020000  0  8 19  3 31 29 27 16 18  2
  21288781.504    -1730076.41449  -1350572.31149  21288783.9254   21288789.6634
  25190854.576     6728633.24549   5241092.23949  25190856.6704   25190864.1954
  22714551.349    -6224298.39449  -4845812.17349  22714553.3104   22714558.9434
  25283038.078    22004585.31949  17128879.43649  25283041.2424   25283047.7224
  22037451.861   -12191472.63349  -9497347.78449  22037454.0284   22037459.6534
  24554848.074    -9204813.75149  -7162969.44649  24554849.6804   24554856.1814
  22206080.403     8883656.85449   6917704.41649  22206082.4844   22206088.2304
  23074625.069   -15682684.27349 -12212596.58149  23074627.2764   23074633.5184
 96  4 20 16 11  0.0020000  0  8 19  3 31 29 27 16 18  2
  21290431.145    -1721406.10049  -1343816.22749  21290433.9344   21290439.4264
  25205749.497     6806903.70649   5302082.22449  25205750.9894   25205759.4384
  22720283.966    -6194173.54949  -4822338.27449  22720285.6254   22720292.1064
  25304395.982    22116817.83649  17216333.26849  25304397.7464   25304405.5664
  22028647.097   -12237739.99549  -9533400.27249  22028649.5254   22028655.3884
  24553774.996    -9210448.94849  -7167360.50949  24553777.1454   24553784.2644
  22221965.310     8967131.66649   6982749.68849  22221967.4554   22221973.1394
  23064347.293   -15736695.49049 -12254683.23749  23064349.4024   23064355.9364
 96  4 20 16 11 30.0020000  0  8 19  3 31 29 27 16 18  2
  21292133.249    -1712462.25449  -1336847.00649  21292135.9024   21292141.3504
  25220721.401     6885571.92049   5363382.07449  25220722.5434   25220726.4054
  22726136.619    -6163416.30349  -4798371.60049  22726138.9564   22726144.5074
  25325783.861    22229212.80649  17303913.66649  25325785.9454   25325793.8804
  22019879.080   -12283819.32049  -9569306.24149  22019881.1424   22019886.6574
  24552808.809    -9215513.12049  -7171306.62349  24552813.6664   24552820.8374
  22237928.147     9051019.25849   7048116.61549  22237930.4874   22237936.0874
  23054126.612   -15790403.09649 -12296533.30949  23054128.5114   23054135.6964
 96  4 20 16 12  0.0020000  0  8 19  3 31 29 27 16 18  2
  21293892.609    -1703217.02049  -1329642.93449  21293895.3214   21293900.9304
  25235768.546     6964656.65449   5425006.50549  25235771.3634   25235780.0644
  22732116.610    -6131992.20349  -4773885.30049  22732118.6694   22732124.6284
  25347204.319    22341776.99249  17391625.90749  25347208.1244   25347214.5754
  22011150.373   -12329686.73849  -9605047.08449  22011152.6984   22011158.1954
  24551959.002    -9220001.31849  -7174803.93149  24551959.0454   24551967.4084
  22253974.151     9135339.75149   7113820.86949  22253976.5644   22253981.9134
  23043968.822   -15843784.93549 -12338129.53649  23043970.6474   23043977.5174
 96  4 20 16 12 30.0020000  0  8 19  3 31 29 27 16 18  2
  21295707.349    -1693680.17249  -1322211.63649  21295709.8764   21295715.4504
  25250897.793     7044160.08849   5486957.24249  25250900.2624   25250907.8814
  22738224.329    -6099897.40849  -4748876.37549  22738226.2454   22738231.8324
  25368652.390    22454489.15749  17479453.46749  25368655.0984   25368661.9124
  22002463.378   -12375338.41049  -9640619.81549  22002465.4954   22002471.1394
  24551207.517    -9223939.13649  -7177872.36849  24551210.4404   24551217.4194
  22270101.970     9220092.44049   7179861.89749  22270104.1374   22270109.8404
  23033872.038   -15896843.27349 -12379473.69049  23033873.9124   23033880.4774
 96  4 20 16 13  0.0020000  0  8 19  3 31 29 27 16 18  2
  21297578.526    -1683847.79149  -1314550.04749  21297581.1974   21297586.7604
  25266116.213     7124131.37649   5549272.44549  25266119.1744   25266124.8554
  22744462.748    -6067114.44449  -4723331.21749  22744464.8794   22744470.3614
  25390132.854    22567368.37149  17567411.17749  25390135.8554   25390142.2224
  21993817.909   -12420770.67749  -9676021.58149  21993819.8614   21993825.7024
  24550565.821    -9227317.21249  -7180504.64949  24550568.5504   24550575.6954
  22286318.841     9305312.40249   7246267.03249  22286320.8474   22286326.5774
  23023843.651   -15949540.96449 -12420536.82049  23023845.8634   23023852.6584
 96  4 20 16 13 30.0020000  0  8 19  3 31 29 27 16 18  2
  21299496.222    -1673769.20149  -1306696.60649  21299498.8804   21299504.6674
  25281418.915     7204546.26249   5611933.41449  25281421.6634   25281428.5034
  22750826.506    -6033671.88049  -4697272.08749  22750828.5524   22750833.8774
  25411639.446    22680384.23449  17655475.37849  25411642.2084   25411648.3054
  21985208.018   -12466015.22949  -9711277.08049  21985210.1954   21985215.8354
  24550025.193    -9230169.54249  -7182727.25949  24550024.5094   24550031.9084
  22302619.003     9390970.46349   7313013.54549  22302621.0384   22302626.6704
  23013879.239   -16001906.39449 -12461341.04149  23013881.1284   23013887.7904
 96  4 20 16 14  0.0020000  0  8 19  3 31 29 27 16 18  2
  21301460.665    -1663446.37849  -1298652.85249  21301463.4884   21301469.0134
  25296806.947     7285409.80349   5674943.95749  25296809.1244   25296815.9574
  22757314.628    -5999577.58249  -4670705.11149  22757316.6084   22757322.2574
  25433169.236    22793529.28749  17743640.22949  25433172.6534   25433180.4074
  21976635.866   -12511062.03349  -9746378.48849  21976638.2554   21976644.0524
  24549581.928    -9232480.81949  -7184528.26549  24549585.1674   24549591.6694
  22318999.248     9477050.22549   7380088.66049  22319001.6794   22319007.6434
  23003975.565   -16053950.97149 -12501895.25749  23003977.1024   23003983.8144
 96  4 20 16 14 30.0020000  0  7 19  3 31 27 16 18  2
  21303471.858    -1652876.67449  -1290416.72849  21303474.7634   21303480.3544
  25312278.937     7366713.46949   5738297.40949  25312281.7344   25312288.1794
  22763922.843    -5964851.15049  -4643645.56649  22763924.9434   22763930.3344
  21968100.911   -12555914.21649  -9781328.24449  21968103.0774   21968108.5874
  24549250.223    -9234229.62049  -7185890.97549  24549252.3134   24549260.8904
  22335457.538     9563538.67949   7447482.23749  22335459.6844   22335465.4614
  22994132.309   -16105676.24749 -12542200.66249  22994134.5604   22994141.1644
 96  4 20 16 15  0.0020000  0  7 19  3 31 27 16 18  2
  21305533.962    -1642041.12649  -1281973.45249  21305536.5864   21305542.1524
  25327829.019     7448434.96649   5801976.47449  25327831.8294   25327838.5804
  22770649.402    -5929500.12449  -4616099.32749  22770651.7744   22770657.1704
  21959603.611   -12600567.42949  -9816122.95649  21959605.7994   21959611.6094
  24549029.618    -9235388.64149  -7186794.12249  24549031.1344   24549038.9994
  22351993.474     9650435.23749   7515193.80949  22351995.5244   22352001.3934
  22984350.717   -16157081.39749 -12582256.62049  22984352.6464   22984358.9924
 96  4 20 16 15 30.0020000  0  7 19  3 31 27 16 18  2
  21307651.398    -1630914.41049  -1273303.28949  21307654.0624   21307659.5584
  25343456.602     7530560.38649   5865970.29049  25343459.1904   25343466.1194
  22777495.822    -5893525.86249  -4588067.44649  22777497.3224   22777502.9204
  21951147.120   -12645006.13449  -9850750.51749  21951149.4144   21951154.8484
  24548923.281    -9235951.72449  -7187232.89049  24548923.9944   24548931.4944
  22368605.524     9737734.42449   7583219.12749  22368607.7484   22368613.6544
  22974626.672   -16208180.57749 -12622074.15949  22974628.5984   22974634.9864
 96  4 20 16 16  0.0020000  0  7 19  3 31 27 16 18  2
  21309828.732    -1619471.94749  -1264387.08949  21309831.5784   21309837.0554
  25359162.352     7613087.33349   5930276.95749  25359164.4294   25359172.2984
  22784457.760    -5856937.53449  -4559557.06749  22784460.0614   22784465.5924
  21942732.501   -12689225.52549  -9885207.18849  21942734.8604   21942740.5754
  24548931.476    -9235906.73749  -7187197.85149  24548933.1714   24548939.4104
  22385298.715     9825455.48949   7651573.17349  22385301.0014   22385306.6574
  22964961.124   -16258971.34449 -12661651.37449  22964963.0974   22964969.9264
 96  4 20 16 16 30.0020000  0  7 19  3 31 27 16 18  2
  21312063.817    -1607726.97649  -1255235.16949  21312066.5084   21312072.2864
  25374938.419     7695995.94549   5994881.08949  25374940.6014   25374948.5424
  22791535.438    -5819744.49249  -4530575.48749  22791537.8014   22791543.4364
  21934355.072   -12733248.97049  -9919511.17449  21934357.3534   21934363.0434
  24549053.630    -9235275.10249  -7186705.68849  24549053.4474   24549059.6224
  22402070.357     9913590.35949   7720249.66449  22402072.3404   22402078.0774
  22955352.827   -16309463.69349 -12700996.06049  22955355.0074   22955361.2554
 96  4 20 16 17  0.0020000  0  7 19  3 31 27 16 18  2
  21314355.855    -1595682.63749  -1245849.97149  21314358.3784   21314364.0844
  25390791.118     7779303.04849   6059795.62349  25390793.0774   25390801.3664
  22798733.131    -5781924.62349  -4501105.46549  22798734.6284   22798740.4594
  21926016.072   -12777070.59949  -9953657.89749  21926018.2714   21926024.0984
  24549279.382    -9234073.46449  -7185769.36049  24549281.8854   24549288.8134
  22418924.859    10002161.34249   7789265.98549  22418927.1854   22418932.7324
  22945804.131   -16359644.40949 -12740097.91049  22945805.7454   22945812.5514
 96  4 20 16 17 30.0020000  0  7 19  3 31 27 16 18  2
  21316701.845    -1583353.92149  -1236243.18849  21316704.4194   21316710.0254
  25406721.982     7863020.25949   6125029.82949  25406724.6804   25406733.4584
  22806050.543    -5743466.09549  -4471137.79449  22806053.0484   22806058.1594
  21917713.085   -12820702.44149  -9987656.73649  21917715.3934   21917721.4294
  24549613.053    -9232314.11149  -7184398.45749  24549617.3164   24549623.0754
  22435861.902    10091165.94549   7858620.18349  22435864.2264   22435869.6164
  22936314.819   -16409510.71149 -12778954.76149  22936316.9824   22936323.3344
 96  4 20 16 18  0.0020000  0  7 19  3 31 27 16 18  2
  21319093.083    -1570787.67149  -1226451.30649  21319095.6574   21319101.4644
  25422724.415     7947118.51349   6190560.89549  25422726.8834   25422734.5664
  22813487.782    -5704384.27649  -4440684.43449  22813489.7824   22813495.1334
  21909441.082   -12864173.12949 -10021529.99549  21909443.1314   21909449.0544
  24550051.667    -9230021.53749  -7182612.05249  24550051.9814   24550059.6814
  22452874.622    10180567.58749   7928283.77349  22452876.5384   22452882.2894
  22926882.269   -16459079.14049 -12817579.50349  22926884.2414   22926890.7844
 96  4 20 16 18 30.0020000  0  7 19  3 31 27 16 18  2
  21321532.922    -1557966.74649  -1216460.98049  21321535.5484   21321541.1564
  25438808.153     8031627.59949   6256412.11549  25438810.6684   25438817.6714
  22821049.686    -5664647.53649  -4409720.75349  22821052.0284   22821057.8384
  21901203.051   -12907462.57849 -10055262.02849  21901205.5294   21901211.5154
  24550591.668    -9227180.29449  -7180398.10849  24550593.9114   24550601.0834
  22469962.854    10270367.87549   7998257.98649  22469964.9584   22469970.5254
  22917512.710   -16508315.80249 -12855945.72449  22917514.8904   22917521.4954
 96  4 20 16 19  0.0020000  0  7 19  3 31 27 16 18  2
  21324019.471    -1544898.84749  -1206278.20449  21324022.1154   21324027.9304
  25454966.930     8116540.50149   6322577.99549  25454969.6364   25454974.8214
  22828731.852    -5624276.80649  -4378263.04949  22828734.3464   22828739.8584
  21893001.550   -12950562.87449 -10088846.66949  21893003.7674   21893009.8234
  24551234.565    -9223800.73149  -7177764.69649  24551236.9064   24551244.8554
  22487124.787    10360554.05549   8068532.90549  22487126.5484   22487132.5994
  22908202.513   -16557239.66049 -12894068.19849  22908204.4444   22908210.9794
 96  4 20 16 19 30.0020000  0  7 19  3 31 27 16 18  2
  21326554.632    -1531576.69449  -1195897.31349  21326557.2804   21326562.9774
  25471199.756     8201848.37649   6389051.60249  25471202.2074   25471208.6954
  22836533.726    -5583275.81849  -4346314.24149  22836536.1094   22836541.4504
  21884836.727   -12993471.51949 -10122281.97349  21884838.7674   21884844.4834
  24551985.031    -9219862.64949  -7174696.06149  24551986.6954   24551993.6844
  22504357.623    10451114.05749   8139099.10649  22504359.5254   22504365.6204
  22898951.655   -16605854.50049 -12931949.87849  22898953.6134   22898959.9494
 96  4 20 16 20  0.0020000  0  7 19  3 31 27 16 18  2
  21329142.393    -1517979.64649  -1185302.21949  21329144.9064   21329150.8374
  25487508.801     8287557.93449   6455838.27949  25487511.1044   25487519.2294
  22844453.988    -5541658.83149  -4313885.42849  22844455.8084   22844461.4364
  21876709.728   -13036177.58249 -10155559.42349  21876712.0134   21876717.6874
  24552839.343    -9215363.88949  -7171190.55449  24552843.6374   24552849.4354
  22521662.562    10542050.99249   8209959.02549  22521664.6434   22521670.4794
  22889760.295   -16654152.27449 -12969584.49149  22889762.5084   22889769.0094
 96  4 20 16 20 30.0020000  0  7 19  3 31 27 16 18  2
  21331782.627    -1504104.34249  -1174490.30349  21331785.2224   21331790.5994
  25503892.970     8373648.35649   6522921.72449  25503893.4554   25503900.7954
  22852483.217    -5499464.32549  -4281006.59649  22852484.7424   22852490.2704
  21868621.044   -13078684.95849 -10188682.05349  21868623.1704   21868628.9324
  24553798.738    -9210330.11449  -7167268.14649  24553801.2334   24553808.1784
  22539038.190    10633359.68049   8281108.61949  22539040.1224   22539046.1044
  22880627.870   -16702145.97449 -13006982.16849  22880630.0254   22880636.2724
 96  4 20 16 21  0.0020000  0  6 19 31 27 16 18  2
  21334468.585    -1489989.77349  -1163491.94649  21334471.1644   21334476.8484
  22860614.066    -5456733.03749  -4247709.48849  22860616.4664   22860622.3974
  21860563.211   -13121027.20649 -10221676.00949  21860565.5564   21860571.4454
  24554849.798    -9204800.44149  -7162959.32849  24554852.1154   24554859.3854
  22556479.542    10725016.17249   8352529.23049  22556481.3164   22556487.3574
  22871544.345   -16749878.74449 -13044176.52249  22871546.6634   22871553.2714
 96  4 20 16 21 30.0020000  0  6 19 31 27 16 18  2
  21337209.322    -1475586.97449  -1152268.98849  21337211.9874   21337217.7134
  22868857.197    -5413415.44749  -4213955.52449  22868859.4514   22868865.1484
  21852543.467   -13163170.29449 -10254514.77549  21852545.9474   21852551.8844
  24556005.395    -9198737.42349  -7158234.90749  24556006.5334   24556013.9964
  22573994.906    10817060.27249   8424251.87549  22573997.2304   22574003.0744
  22862522.531   -16797289.16149 -13081119.69249  22862524.2844   22862531.0584
 96  4 20 16 22  0.0020000  0  6 19 31 27 16 18  2
  21340006.779    -1460885.21849  -1140813.07949  21340009.4584   21340015.1434
  22877212.655    -5369508.09349  -4179742.01049  22877214.8944   22877220.4044
  21844567.259   -13205087.53049 -10287177.55349  21844569.5354   21844575.2874
  24557259.464    -9192139.90049  -7153093.99249  24557261.7974   24557269.3014
  22591585.275    10909496.80449   8496280.30349  22591587.2844   22591593.4294
  22853564.996   -16844362.95749 -13117800.56249  22853566.9814   22853573.5524
 96  4 20 16 22 30.0020000  0  6 19 31 27 16 18  2
  21342852.369    -1445930.95749  -1129160.41949  21342854.9644   21342860.9884
  22885678.433    -5325018.86649  -4145075.08449  22885680.5784   22885686.4864
  21836628.995   -13246803.93249 -10319683.83649  21836631.1014   21836636.7984
  24558613.300    -9185031.64349  -7147555.09849  24558614.3174   24558620.5664
  22609244.640    11002297.97449   8568592.87249  22609246.9564   22609252.9674
  22844663.936   -16891138.19049 -13154248.78549  22844665.9584   22844672.4484
 96  4 20 16 23  0.0020000  0  6 19 31 27 16 18  2
  21345747.136    -1430721.19149  -1117308.65849  21345749.3014   21345755.2564
  22894261.531    -5279913.61449  -4109928.14449  22894264.1074   22894269.9074
  21828728.713   -13288318.88849 -10352033.14749  21828730.9834   21828736.8414
  24560066.170    -9177392.84149  -7141602.79449  24560068.3624   24560075.1184
  22626974.261    11095465.88649   8641191.20949  22626976.0044   22626982.0244
  22835821.108   -16937607.15449 -13190458.35749  22835823.0134   22835829.5364
 96  4 20 16 23 30.0020000  0  6 19 31 27 16 18  2
  21348688.570    -1415263.13949  -1105263.42449  21348691.1634   21348696.9554
  22902960.556    -5234201.73949  -4074308.50949  22902963.0164   22902968.0004
  21820866.580   -13329634.95449 -10384227.48249  21820868.8824   21820874.7114
  24561621.811    -9169221.65649  -7135235.65449  24561624.3694   24561630.0194
  22644770.508    11188986.97149   8714064.74849  22644772.8474   22644778.5234
  22827034.440   -16983781.73649 -13226438.54249  22827036.5754   22827042.4374
 96  4 20 16 24  0.0020000  0  6 19 31 27 16 18  2
  21351677.241    -1399556.33549  -1093024.36049  21351679.7924   21351685.5894
  22911775.952    -5187875.33649  -4038210.02549  22911778.3644   22911783.7714
  21813042.750   -13370749.58749 -10416264.85449  21813044.8474   21813050.9604
  24563280.719    -9160501.74249  -7128440.95049  24563282.5254   24563290.0364
  22662636.672    11282873.81649   8787223.29449  22662638.8654   22662644.8654
  22818301.882   -17029672.40549 -13262197.49849  22818303.8124   22818310.1334
 96  4 20 16 24 30.0020000  0  6 19 31 27 16 18  2
  21354715.335    -1383590.90249  -1080583.76949  21354717.8954   21354723.9024
  22920711.770    -5140917.08749  -4001619.19349  22920713.8554   22920719.6334
  21805255.304   -13411672.76049 -10448153.04249  21805257.6304   21805263.3974
  24565048.299    -9151221.88449  -7121209.89849  24565047.5534   24565055.7304
  22680574.406    11377137.73949   8860675.66349  22680576.7744   22680582.5004
  22809623.067   -17075278.35249 -13297734.58849  22809625.1444   22809631.5254
 96  4 20 16 25  0.0020000  0  6 19 31 27 16 18  2
  21357804.789    -1367357.84849  -1067934.64549  21357806.9854   21357812.8914
  22929765.693    -5093339.50949  -3964545.76049  22929767.5734   22929773.5394
  21797504.373   -13452404.48649 -10479892.04849  21797506.6194   21797512.2054
  24566914.909    -9141386.82949  -7113546.24349  24566920.5014   24566927.7254
  22698583.285    11471774.31549   8934418.41849  22698585.2074   22698591.2174
  22801000.151   -17120591.88949 -13333043.82749  22801002.2854   22801008.6664
 96  4 20 16 25 30.0020000  0  6 19 31 27 16 18  2
  21360947.932    -1350840.49349  -1055063.98949  21360950.2994   21360956.1094
  22938938.987    -5045136.50749  -3926984.98249  22938940.3854   22938946.7244
  21789794.458   -13492921.16349 -10511463.48049  21789796.5574   21789802.3524
  24568898.406    -9130974.62149  -7105432.85649  24568900.5234   24568908.5574
  22716668.215    11566812.38349   9008474.02149  22716670.4524   22716676.5904
  22792436.658   -17165592.69249 -13368109.37649  22792439.0284   22792445.5644
 96  4 20 16 26  0.0020000  0  6 19 31 27 16 18  2
  21364143.767    -1334044.60549  -1041976.28949  21364146.4614   21364152.2634
  22948227.867    -4996320.02249  -3888946.17249  22948230.0814   22948235.6374
  21782122.542   -13533236.56049 -10542878.07449  21782124.8514   21782130.5184
  24570983.702    -9120012.85249  -7096891.22349  24570987.0714   24570994.9804
  22734826.065    11662233.04049   9082827.74849  22734828.4574   22734834.5704
  22783930.972   -17210291.32749 -13402939.46749  22783932.8984   22783939.6164
 96  4 20 16 26 30.0020000  0  6 19 31 27 16 18  2
  21367396.413    -1316952.08249  -1028657.44149  21367399.1054   21367404.7354
  22957635.220    -4946885.62149  -3850425.86249  22957637.2634   22957642.9524
  21774492.357   -13573333.72149 -10574122.61449  21774494.1964   21774500.2314
  24573174.302    -9108506.55449  -7087925.31049  24573176.7174   24573183.4604
  22753057.349    11758037.89649   9157480.85249  22753059.5884   22753065.8914
  22775485.780   -17254670.95749 -13437520.98849  22775487.5594   22775494.3184
 96  4 20 16 27  0.0020000  0  6 19 31 27 16 18  2
  21370704.148    -1299570.00749  -1015112.97349  21370706.6374   21370712.6604
  22967153.812    -4896860.66449  -3811445.38649  22967156.3574   22967162.2534
  21766904.004   -13613211.30549 -10605196.05449  21766906.0324   21766911.8874
  24575466.453    -9096476.90149  -7078551.58149  24575465.9204   24575473.7884
  22771359.324    11854212.58249   9232422.12749  22771361.0514   22771367.1124
  22767100.690   -17298735.03249 -13471856.62249  22767102.5214   22767109.5384
 96  4 20 16 27 30.0020000  0  6 19 31 27 16 18  2
  21374067.581    -1281895.66049  -1001340.76249  21374070.2944   21374075.9204
  22976786.782    -4846243.60049  -3772003.52449  22976788.8724   22976794.4724
  21759356.854   -13652868.66249 -10636097.89649  21759359.4964   21759365.1864
  24577852.938    -9083920.89249  -7068767.70149  24577855.0154   24577862.4634
  22789728.242    11950745.74049   9307642.73249  22789730.4614   22789736.8754
  22758774.724   -17342488.86549 -13505950.51049  22758776.4924   22758783.0814
 96  4 20 16 28  0.0020000  0  6 19 31 27 16 18  2
  21377486.978    -1263926.56849   -987338.87249  21377489.7064   21377495.4244
  22986531.411    -4795036.23849  -3732101.68349  22986533.3134   22986539.3134
  21751851.006   -13692314.39849 -10666834.83049  21751853.2734   21751859.0534
  24580339.114    -9070853.15749  -7058585.07849  24580341.5714   24580349.1454
  22808162.131    12047615.13949   9383125.35049  22808164.3534   22808170.0334
  22750508.301   -17385926.86449 -13539798.28449  22750510.5044   22750517.0144
 96  4 20 16 28 30.0020000  0  6 19 31 27 16 18  2
  21380964.124    -1245654.80649   -973101.14649  21380966.7014   21380972.2334
  22996390.121    -4743226.39449  -3691730.38349  22996392.5984   22996397.5954
  21744387.880   -13731533.95149 -10697395.51949  21744390.0534   21744395.7394
  24582928.881    -9057247.63049  -7047983.38549  24582930.9834   24582937.9374
  22826663.228    12144835.91449   9458881.76149  22826665.4824   22826670.8534
  22742306.672   -17429027.63549 -13573383.29449  22742308.7184   22742315.2884
 96  4 20 16 29  0.0020000  0  6 19 31 27 16 18  2
  21384491.925    -1227116.07349   -958655.38549  21384494.3694   21384500.4304
  23006358.932    -4690843.77149  -3650912.76349  23006360.6704   23006366.0694
  21736961.224   -13770559.21849 -10727804.81749  21736963.6194   21736969.6254
  24585616.918    -9043121.53749  -7036976.07149  24585619.3564   24585626.8314
  22845225.610    12242383.29849   9534892.67349  22845227.3884   22845233.3334
  22734162.165   -17471827.18549 -13606733.57949  22734164.2994   22734170.8284
 96  4 20 16 29 30.0020000  0  6 19 31 27 16 18  2
  21388070.018    -1208312.07549   -944002.92649  21388072.7984   21388078.3684
  23016437.425    -4637877.20649  -3609640.12549  23016439.2384   23016445.3174
  21729573.910   -13809382.71149 -10758056.88749  21729575.9404   21729581.6244
  24588405.586    -9028457.56549  -7025549.61549  24588409.5414   24588418.0164
  22863851.858    12340265.39749   9611164.41149  22863854.0514   22863859.7224
  22726073.791   -17514330.70249 -13639853.18849  22726076.1324   22726082.5964
 96  4 20 16 30  0.0020000  0  6 19 31 27 16 18  2
  21391697.286    -1189250.11749   -929149.45849  21391699.9344   21391706.0414
  23026624.032    -4584346.63349  -3567927.99349  23026626.3604   23026631.6144
  21722224.566   -13848003.74349 -10788151.19849  21722226.7414   21722232.3364
  24591298.287    -9013272.54549  -7013717.15249  24591299.4004   24591307.0364
  22882543.161    12438488.53249   9687701.88349  22882545.3074   22882551.0844
  22718039.255   -17556553.62649 -13672754.15949  22718041.2834   22718047.7664
 96  4 20 16 30 30.0020000  0  6 19 31 27 16 18  2
  21395377.478    -1169912.32249   -914081.05149  21395379.9794   21395385.6504
  23036920.042    -4530240.32149  -3525767.23149  23036921.8184   23036927.7944
  21714917.392   -13886401.98249 -10818071.89749  21714919.4874   21714925.1904
  24594290.488    -8997548.89149  -7001464.99149  24594291.7644   24594298.9234
  22901303.929    12537075.39449   9764522.78249  22901305.7964   22901312.3344
  22710056.920   -17598500.19749 -13705439.78949  22710059.2644   22710065.6284
 96  4 20 16 31  0.0020000  0  6 19 31 27 16 18  2
  21399109.691    -1150297.76449   -898796.98549  21399112.1394   21399118.0854
  23047323.877    -4475568.59849  -3483165.88849  23047326.1134   23047331.7224
  21707655.082   -13924565.96249 -10847810.06049  21707657.2714   21707662.9124
  24597381.241    -8981303.18649  -6988806.01749  24597382.3544   24597389.6274
  22920130.579    12636011.79949   9841616.04449  22920132.4674   22920138.9314
  22702125.651   -17640179.79849 -13737917.39249  22702127.8164   22702134.3854
 96  4 20 16 31 30.0020000  0  6 19 31 27 16 18  2
  21402898.620    -1130387.73449   -883282.68049  21402901.1504   21402906.8554
  23057835.076    -4420330.09449  -3440122.90349  23057837.3994   23057843.1634
  21700438.895   -13962487.24249 -10877359.10449  21700441.1674   21700446.7004
  24600567.775    -8964546.44949  -6975748.84949  24600570.8774   24600579.0694
  22939021.340    12735283.80349   9918970.81249  22939023.7174   22939029.3474
  22694248.855   -17681574.03249 -13770172.63249  22694250.4544   22694257.0454
 96  4 20 16 32  0.0020000  0  6 19 31 27 16 18  2
  21406740.226    -1110200.47849   -867552.35849  21406742.6464   21406748.5164
  23068450.773    -4364545.68849  -3396654.54249  23068452.4504   23068458.3724
  21693263.041   -14000195.91449 -10906742.48149  21693265.3964   21693271.0714
  24603849.067    -8947317.34249  -6962323.58449  24603849.8374   24603858.0994
  22957969.054    12834852.43049   9996556.71549  22957970.9804   22957976.6944
  22686424.063   -17722692.73549 -13802213.17249  22686426.2384   22686432.8444
 96  4 20 16 32 30.0020000  0  6 19 31 27 16 18  2
  21410634.943    -1089732.95449   -851603.63749  21410637.5774   21410643.3284
  23079172.738    -4308199.81049  -3352748.67249  23079175.2934   23079180.7474
  21686127.761   -14037692.57749 -10935960.65649  21686130.0894   21686135.8084
  24607217.536    -8929603.81649  -6948520.86549  24607221.5114   24607229.0824
  22976969.984    12934702.71949  10074362.09849  22976971.9444   22976978.0374
  22678656.108   -17763515.22949 -13834022.90249  22678657.5584   22678664.4664
 96  4 20 16 33  0.0020000  0  6 19 31 27 16 18  2
  21414588.688    -1068955.93049   -835413.75349  21414591.2624   21414596.8674
  23090007.838    -4251262.62949  -3308382.03849  23090010.0274   23090015.7234
  21679038.752   -14074946.87249 -10964989.97549  21679040.8454   21679046.4074
  24610685.202    -8911378.85149  -6934319.62249  24610690.1294   24610695.7014
  22996027.331    13034851.63649  10152400.18149  22996029.9064   22996035.6254
  22670951.938   -17804000.83949 -13865570.12749  22670953.8184   22670960.3224
 96  4 20 16 33 30.0020000  0  6 19 31 27 16 18  2
  21418599.113    -1047880.82749   -818991.60349  21418601.7704   21418607.4864
  23100957.290    -4193722.19949  -3263545.34849  23100959.7554   23100965.3104
  21671990.775   -14111984.14049 -10993850.18149  21671992.7614   21671998.5324
  24614256.040    -8892635.08649  -6919714.10249  24614256.0974   24614263.0104
  23015141.702    13135297.84149  10230669.91249  23015143.7934   23015149.9404
  22663313.245   -17844142.99949 -13896849.72849  22663315.1474   22663321.5164
 96  4 20 16 34  0.0020000  0  6 19 31 27 16 18  2
  21422661.059    -1026535.55849   -802358.93249  21422663.7994   21422669.6314
  23112021.730    -4135577.82449  -3218238.04249  23112024.0554   23112029.6564
  21664983.170   -14148808.04749 -11022544.13349  21664985.4764   21664991.1924
  24617920.897    -8873365.36849  -6904698.76449  24617923.4254   24617930.1844
  23034315.893    13236059.83749  10309185.71649  23034318.2424   23034324.2104
  22655737.787   -17883950.41749 -13927868.48749  22655740.0374   22655746.4934
 96  4 20 16 34 30.0020000  0  6 19 31 27 16 18  2
  21426773.514    -1004923.91749   -785518.69949  21426776.0234   21426781.9004
  23123197.921    -4076844.12649  -3172471.53549  23123200.7314   23123206.4674
  21658015.877   -14185421.12949 -11051073.80249  21658018.0984   21658023.8614
  24621689.254    -8853563.04049  -6889268.39149  24621690.5874   24621698.6134
  23053551.712    13337145.43749  10387953.67549  23053554.1584   23053560.2564
  22648224.700   -17923431.71749 -13958633.12949  22648226.9284   22648233.1414
 96  4 20 16 35  0.0020000  0  6 19 31 27 16 18  2
  21430933.300     -983063.07449   -768484.28249  21430936.2934   21430941.8814
  23134484.499    -4017538.28649  -3126259.19849  23134486.0634   23134492.1374
  21651087.260   -14221832.47649 -11079446.27649  21651089.3584   21651094.9744
  24625556.398    -8833241.20749  -6873433.21249  24625557.9224   24625565.7264
  23072850.628    13438559.98249  10466977.95749  23072852.7094   23072858.6524
  22640770.354   -17962604.22449 -13989157.15549  22640772.4734   22640779.0244
 96  4 20 16 35 30.0020000  0  6 19 31 27 16 18  2
  21435136.493     -960975.72049   -751273.36249  21435139.3254   21435145.0974
  23145874.202    -3957685.38949  -3079620.58449  23145876.2674   23145881.8294
  21644196.980   -14258040.76349 -11107660.52349  21644199.1414   21644204.7444
  24629520.341    -8812407.84749  -6857199.45449  24629522.0874   24629529.3744
  23092211.167    13540302.19349  10546257.56049  23092213.8054   23092219.4324
  22633370.719   -18001488.86949 -14019456.87149  22633372.8574   22633379.5224
 96  4 20 16 36  0.0020000  0  6 19 31 27 16 18  2
  21439384.969     -938651.24949   -733877.67649  21439387.5764   21439393.5144
  23157362.745    -3897312.70549  -3032576.94049  23157365.0484   23157370.6214
  21637347.510   -14294035.78549 -11135708.58949  21637349.6474   21637355.0884
  24633583.248    -8791070.75749  -6840573.16449  24633583.9054   24633591.3684
  23111633.528    13642367.27949  10625788.75849  23111636.3424   23111642.2584
  22626019.825   -18040118.17449 -14049557.62249  22626022.0084   22626028.4564
 96  4 20 16 36 30.0020000  0  6 19 31 27 16 18  2
  21443677.100     -916094.62749   -716301.09649  21443679.6134   21443685.5374
  23168943.698    -3836452.06949  -2985153.07649  23168945.9384   23168951.5564
  21630534.432   -14329836.89449 -11163605.55549  21630536.6434   21630542.4324
  24637732.066    -8769265.59149  -6823582.13249  24637732.1734   24637739.1174
  23131107.934    13744703.30549  10705531.07149  23131109.8614   23131116.0504
  22618710.219   -18078531.86749 -14079490.36749  22618712.3214   22618718.8054
 96  4 20 16 37  0.0020000  0  6 19 31 27 16 18  2
  21448019.306     -893277.10149   -698521.20749  21448021.8444   21448027.6954
  23180622.693    -3775077.89949  -2937329.05549  23180624.9204   23180630.6414
  21623764.925   -14365410.75149 -11191325.43949  21623767.3104   21623772.8114
  24641972.504    -8746982.06349  -6806218.37349  24641973.3784   24641979.1744
  23150636.774    13847327.79749  10785498.17049  23150638.9494   23150644.7414
  22611444.839   -18116711.51549 -14109240.73249  22611446.8984   22611453.4784
 96  4 20 16 37 30.0020000  0  6 19 31 27 16 18  2
  21452418.105     -870160.23049   -680508.07049  21452420.9084   21452426.5224
  23192404.811    -3713161.93849  -2889082.86249  23192406.9894   23192412.6014
  21617042.580   -14400738.17349 -11218853.30149  21617044.7724   21617050.5084
  24646309.072    -8724188.21249  -6788456.95949  24646310.1174   24646317.1694
  23170225.025    13950265.36049  10865709.21649  23170227.0244   23170233.2074
  22604230.157   -18154623.89249 -14138782.83749  22604232.3144   22604238.7584
 96  4 20 16 38  0.0020000  0  6 19 31 27 16 18  2
  21456874.340     -846744.42249   -662261.99049  21456876.8534   21456882.8244
  23204291.062    -3650700.64349  -2840411.73149  23204293.2004   23204298.8294
  21610362.306   -14435841.53349 -11246206.56749  21610364.7664   21610370.4114
  24650739.664    -8700902.66149  -6770312.37949  24650741.5084   24650748.5364
  23189871.339    14053505.18349  10946155.79249  23189873.0174   23189879.6954
  22597067.010   -18192265.77449 -14168114.16149  22597069.2394   22597075.8284
 96  4 20 16 38 30.0020000  0  6 19 31 27 16 18  2
  21461378.644     -823073.15549   -643816.85149  21461380.9994   21461387.0254
  23216275.265    -3587725.67749  -2791340.33749  23216277.1964   23216282.5624
  21603719.372   -14470751.33949 -11273409.01249  21603721.7304   21603727.3714
  24655254.804    -8677172.38349  -6751821.30349  24655258.2234   24655263.5294
  23209567.661    14157011.11449  11026809.72049  23209570.0054   23209576.1394
  22589954.488   -18229644.09349 -14197240.11349  22589956.3464   22589962.8124
 96  4 20 16 39  0.0020000  0  6 19 31 27 16 18  2
  21465934.031     -799134.19849   -625163.12749  21465936.6024   21465942.6094
  23228360.506    -3524215.59149  -2741851.96749  23228363.0074   23228368.5994
  21597114.410   -14505460.99649 -11300455.49649  21597116.4904   21597122.1184
  24659860.571    -8652973.90849  -6732965.35949  24659861.6874   24659868.2904
  23229321.182    14260816.72449  11107697.16949  23229323.9994   23229329.7074
  22582896.952   -18266730.55149 -14226138.63849  22582898.7614   22582905.0984
 96  4 20 16 39 30.0020000  0  6 19 31 27 16 18  2
  21470538.446     -774936.66949   -606307.91649  21470541.2534   21470547.2214
  23240548.770    -3460165.23749  -2691942.61449  23240551.0214   23240556.7624
  21590546.996   -14539973.29349 -11327348.19149  21590549.2474   21590554.8634
  24664557.804    -8628296.92849  -6713736.57249  24664558.4494   24664565.0784
  23249130.086    14364912.91749  11188811.04249  23249132.1924   23249138.6144
  22575894.946   -18303525.43349 -14254809.95849  22575896.9314   22575903.5674
 96  4 20 16 40  0.0030000  0  7  7 19 31 27 16 18  2
  25414184.299    -4248260.82559  -3299118.44159  25414187.0014   25414195.5214
  21475190.340     -750493.81949   -587261.54049  21475192.7084   21475198.4304
  23252834.895    -3395600.80049  -2641632.67449  23252837.2084   23252843.2204
  21584016.780   -14574289.26049 -11354087.89949  21584019.0374   21584024.7204
  24669335.451    -8603177.53349  -6694163.04249  24669338.7454   24669345.6744
  23268987.855    14469265.67549  11270124.83849  23268989.6654   23268995.8244
  22568941.947   -18340064.04949 -14283281.59149  22568944.1074   22568950.5204
 96  4 20 16 40 30.0030000  0  7  7 19 31 27 16 18  2
  25394799.754    -4350124.38749  -3378492.60349  25394802.9754   25394810.6914
  21479890.910     -725791.25349   -568012.79449  21479893.4394   21479899.4004
  23265219.848    -3330516.32449  -2590917.51049  23265222.0764   23265228.4194
  21577525.958   -14608398.53249 -11380666.55149  21577528.3244   21577533.8194
  24674204.800    -8577600.32049  -6674232.76549  24674205.8284   24674213.0664
  23288895.280    14573881.47149  11351643.60049  23288897.3514   23288903.8894
  22562039.748   -18376336.25649 -14311545.63649  22562041.6804   22562048.2634
 96  4 20 16 41  0.0030000  0  7  7 19 31 27 16 18  2
  25375408.136    -4452031.99749  -3457901.10049  25375410.5514   25375418.6874
  21484642.506     -700819.47649   -548554.27449  21484645.4764   21484651.2694
  23277705.253    -3264905.98149  -2539792.57849  23277707.6934   23277713.6634
  21571074.168   -14642303.70449 -11407086.16349  21571076.2334   21571081.8974
  24679161.517    -8551538.23449  -6653924.67649  24679165.3774   24679171.8084
  23308855.249    14678772.84849  11433377.09349  23308858.1934   23308863.7774
  22555186.914   -18412348.16349 -14339606.85349  22555189.0004   22555195.3174
 96  4 20 16 41 30.0030000  0  7  7 19 31 27 16 18  2
  25356018.436    -4553922.34549  -3537296.14749  25356021.3914   25356029.0454
  21489449.507     -675558.94449   -528870.75149  21489452.2544   21489457.9944
  23290291.530    -3198764.40749  -2488253.70349  23290293.7174   23290299.6674
  21564667.486   -14675972.32149 -11433321.45149  21564669.4254   21564674.9844
  24684217.793    -8524969.56149  -6633221.84549  24684221.7944   24684228.4174
  23328869.640    14783947.98449  11515331.70249  23328871.6304   23328878.0634
  22548388.873   -18448071.76949 -14367443.41749  22548391.0944   22548397.2604
 96  4 20 16 42  0.0030000  0  7  7 19 31 27 16 18  2
  25336631.684    -4655797.00649  -3616678.97149  25336634.7584   25336643.2184
  21494310.125     -650017.25749   -508968.14049  21494312.8824   21494318.2634
  23302972.612    -3132124.35349  -2436326.39649  23302974.8974   23302981.1764
  21558300.876   -14709426.35149 -11459389.51949  21558303.2654   21558308.8464
  24689367.909    -8497920.69949  -6612144.83749  24689367.6344   24689375.2574
  23348935.737    14889395.07949  11597498.23149  23348938.1194   23348944.5194
  22541645.535   -18483509.21549 -14395056.99749  22541647.2514   22541653.7504
 96  4 20 16 42 30.0030000  0  7  7 19 31 27 16 18  2
  25317256.124    -4757622.09349  -3696023.16949  25317258.1614   25317266.7754
  21499227.175     -624177.89049   -488833.57749  21499230.0134   21499235.5414
  23315753.575    -3064960.79149  -2383991.16649  23315755.6584   23315761.4144
  21551976.934   -14742659.66649 -11485285.60549  21551979.2004   21551984.7354
  24694611.224    -8470365.17749  -6590673.04049  24694612.2664   24694618.2104
  23369057.923    14995138.03249  11679895.30149  23369060.2904   23369066.5244
  22534961.527   -18518633.51649 -14422426.57349  22534963.4824   22534969.9234
 96  4 20 16 43  0.0030000  0  7  7 19 31 27 16 18  2
  25297888.068    -4859399.27949  -3775330.04849  25297890.7134   25297899.1834
  21504199.570     -598048.65249   -468473.14449  21504202.2434   21504207.9084
  23328631.029    -2997289.55049  -2331260.35149  23328633.1144   23328638.7544
  21545696.678   -14775663.69949 -11511003.03449  21545698.7274   21545704.4364
  24699947.794    -8442315.31249  -6568816.02249  24699948.8864   24699956.7954
  23389231.951    15101150.64649  11762502.48049  23389233.7204   23389240.0794
  22528336.761   -18553445.69049 -14449552.93849  22528338.7054   22528345.3214
 96  4 20 16 43 30.0030000  0  7  7 19 31 27 16 18  2
  25278527.746    -4961135.19549  -3854604.75549  25278531.7044   25278539.3114
  21509227.173     -571627.38049   -447885.14949  21509229.7734   21509235.5954
  23341605.422    -2929109.04749  -2278132.69549  23341606.7664   23341612.9434
  21539461.619   -14808428.04549 -11536533.69149  21539464.0104   21539469.5384
  24705371.830    -8413800.10949  -6546596.41149  24705376.2314   24705382.7194
  23409453.637    15207415.88149  11845306.52449  23409455.6394   23409461.6504
  22521772.698   -18587941.34749 -14476432.66249  22521774.5044   22521781.0694
 96  4 20 16 44  0.0030000  0  7  7 19 31 27 16 18  2
  25259174.046    -5062844.29849  -3933858.56749  25259177.4474   25259184.5734
  21514316.678     -544881.37649   -427044.11749  21514319.6024   21514325.2744
  23354682.819    -2860385.64149  -2224582.00749  23354684.9444   23354690.9374
  21533277.061   -14840929.06349 -11561859.15949  21533279.2364   21533284.9394
  24710890.495    -8384812.94749  -6524009.02949  24710892.4174   24710898.5524
  23429728.022    15313959.58449  11928327.54549  23429730.2044   23429735.8774
  22515270.185   -18622112.04449 -14503059.17549  22515272.1684   22515278.7014
 96  4 20 16 44 30.0030000  0  7  7 19 31 27 16 18  2
  25239820.098    -5164540.50549  -4013102.32249  25239824.2704   25239832.5204
  21519464.473     -517830.40749   -405965.44749  21519467.2304   21519472.9904
  23367863.186    -2791121.15449  -2170609.68649  23367865.4204   23367871.5854
  21527142.651   -14873165.94849 -11586978.80449  21527144.7304   21527150.2544
  24716493.361    -8355356.98149  -6501056.37249  24716497.4214   24716504.0984
  23450052.523    15420765.37449  12011552.79249  23450054.3454   23450060.4014
  22508823.348   -18655987.69849 -14529455.78349  22508825.6364   22508832.0134
 96  4 20 16 45  0.0030000  0  7  7 19 31 27 16 18  2
  25220472.417    -5266222.59649  -4092335.08349  25220475.3394   25220482.5654
  21524668.701     -490481.79849   -384654.85249  21524671.3834   21524677.2944
  23381145.077    -2721326.13549  -2116223.97349  23381147.7564   23381153.1914
  21521060.154   -14905129.02549 -11611885.09649  21521062.3954   21521067.9354
  24722189.579    -8325428.16249  -6477735.23549  24722192.5914   24722200.1374
  23470425.389    15527827.46849  12094977.75349  23470427.6954   23470434.1084
  22502432.582   -18689574.02549 -14555626.94349  22502434.4464   22502441.1734
 96  4 20 16 45 30.0030000  0  7  7 19 31 27 16 18  2
  25201125.510    -5367894.45649  -4171559.87749  25201127.8474   25201135.5884
  21529927.094     -462850.32349   -363123.83949  21529929.4824   21529935.3194
  23394527.947    -2651001.15149  -2061425.30149  23394530.4354   23394535.2794
  21515027.814   -14936828.40549 -11636585.90949  21515030.3414   21515035.7674
  24727974.943    -8295031.01349  -6454049.19049  24727977.1224   24727984.5634
  23490849.239    15635154.53949  12178609.18849  23490851.2494   23490857.7884
  22496092.222   -18722892.34449 -14581589.26549  22496094.1164   22496100.6564
 96  4 20 16 46  0.0030000  0  7  7 19 31 27 16 18  2
  25181782.638    -5469538.61149  -4250763.08249  25181784.5384   25181792.8494
  21535239.853     -434930.25649   -341367.95249  21535242.6694   21535248.5114
  23408013.631    -2580132.91249  -2006203.30949  23408015.8544   23408021.6214
  21509049.068   -14968248.27849 -11661068.92249  21509051.0794   21509056.7614
  24733853.437    -8264134.34549  -6429973.87649  24733856.7594   24733863.4774
  23511327.646    15742768.91349  12262464.50449  23511330.5364   23511336.2744
  22489804.659   -18755934.19249 -14607336.15349  22489806.5654   22489813.0974
 96  4 20 16 46 30.0030000  0  7  7 19 31 27 16 18  2
  25162443.288    -5571166.88249  -4329953.91949  25162445.3874   25162454.2574
  21540600.426     -406760.78549   -319417.71949  21540603.0424   21540608.7474
  23421595.313    -2508756.50849  -1950585.34649  23421597.6244   23421603.8504
  21503117.429   -14999419.06949 -11685357.84949  21503119.6454   21503124.8984
  24739825.694    -8232753.91949  -6405521.63449  24739829.8064   24739834.9584
  23531854.843    15850638.71749  12346518.85549  23531856.9824   23531863.8614
  22483565.077   -18788721.76949 -14632884.90849  22483567.2984   22483573.8634
 96  4 20 16 47  0.0030000  0  7  7 19 31 27 16 18  2
  25143108.450    -5672769.82749  -4409125.02149  25143111.0264   25143118.9024
  21546009.491     -378335.36649   -297268.04949  21546012.0514   21546017.9444
  23435274.065    -2436872.00749  -1894571.46549  23435276.5614   23435282.7054
  21497232.297   -15030346.42849 -11709457.08949  21497234.3414   21497239.7344
  24745888.161    -8200896.85549  -6380697.98049  24745889.4294   24745896.6334
  23552430.754    15958767.26049  12430774.81749  23552433.2954   23552439.4914
  22477377.658   -18821237.83749 -14658222.09249  22477379.8884   22477386.2574
 96  4 20 16 47 30.0030000  0  7  7 19 31 27 16 18  2
  25123780.100    -5774337.76649  -4488268.85049  25123783.4544   25123791.4484
  21551470.744     -349637.19849   -274905.84749  21551473.2794   21551478.7554
  23449052.470    -2364470.82749  -1838154.97149  23449054.6334   23449060.4144
  21491393.658   -15061028.68949 -11733365.34149  21491395.5764   21491401.0484
  24752041.226    -8168565.42949  -6355504.71149  24752042.9714   24752049.3654
  23573057.283    16067161.43849  12515237.76649  23573059.1404   23573066.2024
  22471242.692   -18853474.94949 -14683341.91249  22471244.9414   22471251.3644
 96  4 20 16 48  0.0030000  0  7  7 19 31 27 16 18  2
  25104464.877    -5875842.12149  -4567363.12649  25104467.7944   25104474.9974
  21556993.462     -320614.77049   -252290.97349  21556996.1814   21557002.0904
  23462931.573    -2291535.69549  -1781322.41949  23462933.8424   23462939.2754
  21485607.345   -15091435.49549 -11757058.95449  21485609.3224   21485614.9844
  24758287.711    -8135731.79749  -6329920.11749  24758291.0654   24758298.3434
  23593738.939    16175842.82049  12599924.51049  23593741.3674   23593748.0924
  22465169.448   -18885392.02549 -14708212.35549  22465171.5134   22465177.9694
 96  4 20 16 48 30.0030000  0  7  7 19 31 27 16 18  2
  25085164.677    -5977269.86749  -4646397.71849  25085167.1194   25085175.2494
  21562577.775     -291267.88449   -229423.27749  21562580.7214   21562586.4804
  23476910.060    -2218079.01149  -1724083.45449  23476912.2504   23476918.0394
  21479870.972   -15121579.70949 -11780547.95149  21479873.1164   21479878.7134
  24764629.252    -8102405.82349  -6303951.85349  24764632.4194   24764639.9204
  23614473.275    16284798.50749  12684825.00449  23614474.9184   23614481.3264
  22459156.177   -18916991.62749 -14732835.41049  22459158.2054   22459164.7124
 96  4 20 16 49  0.0030000  0  7  7 19 31 27 16 18  2
  25065880.401    -6078607.44149  -4725362.04149  25065882.3314   25065890.6504
  21568227.098     -261578.57149   -206288.75649  21568230.1414   21568236.1704
  23490987.722    -2144100.70349  -1666438.02849  23490989.7094   23490995.4874
  21474187.506   -15151446.60549 -11803820.85749  21474189.6724   21474195.0564
  24771065.914    -8068584.40349  -6277597.52349  24771068.3304   24771075.6204
  23635259.091    16394030.37949  12769940.70049  23635261.3444   23635267.1394
  22453204.946   -18948265.48549 -14757204.64549  22453206.9214   22453213.6844
 96  4 20 16 49 30.0030000  0  7  7 19 31 27 16 18  2
  25046609.917    -6179874.71449  -4804271.58349  25046612.2764   25046619.9914
  21573939.016     -231564.77349   -182901.38949  21573941.6104   21573947.5774
  23505161.406    -2069618.01249  -1608399.58049  23505162.8594   23505169.0174
  21468558.092   -15181029.78849 -11826872.68549  21468560.0134   21468565.6364
  24777594.192    -8034285.14849  -6250870.86649  24777595.3204   24777603.5714
  23656095.148    16503526.22849  12855262.09149  23656097.5104   23656104.2034
  22447312.825   -18979229.08349 -14781332.11449  22447314.8704   22447321.5584
 96  4 20 16 50  0.0030000  0  7  7 19 31 27 16 18  2
  25027354.899    -6281060.97549  -4883118.00449  25027357.0374   25027364.5804
  21579711.640     -201228.28349   -159262.57149  21579714.5844   21579720.3284
  23519432.541    -1994623.02349  -1549961.93749  23519434.4544   23519440.0084
  21462986.188   -15210308.65049 -11849687.38249  21462988.5314   21462994.0674
  24784214.364    -7999492.13149  -6223759.44649  24784216.3294   24784224.4124
  23676983.606    16613297.19849  12940797.86749  23676986.1334   23676992.6804
  22441482.797   -19009867.63749 -14805206.30349  22441484.5904   22441490.9864
 96  4 20 16 50 30.0030000  0  7  7 19 31 27 16 18  2
  25008116.849    -6382154.37449  -4961892.07649  25008119.2324   25008128.1184
  21585544.283     -170577.00949   -135378.46649  21585547.1444   21585552.9204
  23533801.817    -1919109.07049  -1491119.90449  23533804.2304   23533810.2224
  21457473.516   -15239279.39449 -11872261.98949  21457475.7124   21457481.2944
  24790929.348    -7964202.57949  -6196261.11749  24790932.0934   24790939.9494
  23697923.279    16723333.55449  13026540.43049  23697925.7664   23697931.7884
  22435712.732   -19040188.25049 -14828832.74849  22435714.7374   22435721.3144
 96  4 20 16 51  0.0030000  0  7  7 19 31 27 16 18  2
  24988891.578    -6483184.58149  -5040616.91149  24988894.2394   24988901.3514
  21591436.118     -139618.01649   -111254.58149  21591438.7344   21591444.5324
  23548269.003    -1843087.43849  -1431882.28349  23548271.0714   23548276.6214
  21452016.882   -15267953.05249 -11894605.09849  21452019.2004   21452024.9584
  24797736.467    -7928442.14049  -6168395.85649  24797736.5964   24797744.2594
  23718911.648    16833626.56649  13112482.99649  23718913.6934   23718920.3304
  22429999.754   -19070207.71449 -14852224.53049  22430002.1684   22430008.5634
 96  4 20 16 51 30.0030000  0  7  7 19 31 27 16 18  2
  24969676.616    -6584160.73049  -5119299.61749  24969679.4494   24969687.7424
  21597383.521     -108363.43949    -86900.37749  21597386.2694   21597392.2444
  23562829.168    -1766572.42349  -1372260.20949  23562831.1964   23562837.0574
  21446613.578   -15296348.57949 -11916731.48449  21446615.7324   21446621.3684
  24804626.456    -7892227.62949  -6140176.78149  24804627.8074   24804635.2344
  23739944.709    16944155.57449  13198609.44349  23739946.8864   23739953.1714
  22424341.339   -19099945.54549 -14875396.85549  22424342.9764   22424349.5144
 96  4 20 16 52  0.0030000  0  7  7 19 31 27 16 18  2
  24950477.497    -6685051.76649  -5197915.98749  24950480.6094   24950488.8434
  21603392.781      -76786.16649    -62294.71749  21603395.3264   21603401.0614
  23577482.730    -1689565.76849  -1312255.03649  23577484.5424   23577491.2424
  21441260.519   -15324478.54849 -11938650.94349  21441262.7114   21441268.4554
  24811605.748    -7855549.17649  -6111596.19049  24811607.1624   24811615.1594
  23761022.757    17054921.21449  13284920.28749  23761024.6854   23761030.8954
  22418735.413   -19129403.07549 -14898350.77249  22418737.6174   22418744.2934
 96  4 20 16 52 30.0030000  0  7  7 19 31 27 16 18  2
  24931297.640    -6785846.54149  -5276457.35849  24931299.5294   24931308.7884
  21609464.254      -44877.49449    -37430.82749  21609467.1304   21609473.1834
  23592229.872    -1612070.10149  -1251868.82349  23592231.9394   23592238.6324
  21435957.596   -15352346.88049 -11960366.52949  21435959.5874   21435965.1444
  24818670.087    -7818422.27249  -6082666.16849  24818672.6294   24818680.4664
  23782144.069    17165915.90049  13371409.60249  23782146.6484   23782152.5984
  22413184.257   -19158576.01449 -14921082.92749  22413186.2704   22413192.8514
 96  4 20 16 53  0.0030000  0  7  7 19 31 27 16 18  2
  24912132.817    -6886555.73449  -5354932.03249  24912135.8784   24912142.6024
  21615596.238      -12654.14749    -12321.73149  21615598.7384   21615604.7194
  23607067.085    -1534098.84349  -1191112.00949  23607069.6534   23607075.2304
  21430702.269   -15379963.63249 -11981886.07349  21430704.3234   21430709.8914
  24825815.370    -7780874.64349  -6053408.28749  24825817.8434   24825825.0464
  23803310.463    17277144.15749  13458080.92049  23803312.4794   23803319.1284
  22407686.751   -19187464.22349 -14943593.20849  22407688.9424   22407695.4484
 96  4 20 16 53 30.0030000  0  7  7 19 31 27 16 18  2
  24892993.127    -6987139.84149  -5433309.24249  24892994.1004   24893003.0224
  21621790.415       19895.50449     13041.62649  21621793.0764   21621798.8114
  23621999.051    -1455631.77149  -1129968.85949  23622001.5274   23622007.3154
  21425499.470   -15407302.12749 -12003188.79849  21425501.9454   21425507.7274
  24833046.520    -7742875.93649  -6023798.94449  24833049.5704   24833057.0124
  23824524.605    17388625.30449  13544949.29249  23824526.0024   23824532.6654
  22402249.494   -19216038.29149 -14965858.70749  22402251.5194   22402258.1244
 96  4 20 16 54  0.0030000  0  7  7 19 31 27 16 18  2
  24873870.301    -7087631.25549  -5511614.21049  24873871.9944   24873880.0464
  21628039.220       52733.85949     38629.94449  21628042.0464   21628047.9254
  23637023.583    -1376677.63049  -1068446.17449  23637026.2644   23637031.6744
  21420347.062   -15434378.86549 -12024287.55549  21420349.3804   21420355.1764
  24840358.020    -7704451.05749  -5993857.51249  24840360.6874   24840368.1044
  23845785.413    17500350.36449  13632007.72349  23845787.3804   23845793.3454
  22396870.563   -19244305.42549 -14987885.03449  22396872.4744   22396878.8234
 96  4 20 16 54 30.0030000  0  7  7 19 31 27 16 18  2
  24854764.269    -7188039.18849  -5589854.13249  24854764.7524   24854771.9354
  21634342.991       85859.05249     64441.77049  21634345.6534   21634351.6104
  23652146.760    -1297204.87949  -1006519.37349  23652149.0384   23652154.3904
  21415248.933   -15461170.62049 -12045164.24949  21415251.2684   21415256.7684
  24847755.156    -7665585.56549  -5963572.73149  24847756.4634   24847762.7334
  23867092.921    17612323.40649  13719259.38649  23867094.8544   23867101.6714
  22391553.660   -19272244.55449 -15009655.77649  22391555.8814   22391562.2644
 96  4 20 16 55  0.0030000  0  7  7 19 31 27 16 18  2
  24835669.667    -7288372.35349  -5668035.77949  24835672.2354   24835680.2324
  21640699.460      119263.08849     90470.88049  21640702.1404   21640708.1844
  23667368.253    -1217214.85049   -944189.49849  23667370.4564   23667376.1584
  21410206.272   -15487670.80249 -12065813.74049  21410208.2914   21410213.9064
  24855234.184    -7626270.21949  -5932937.43049  24855237.9914   24855245.8894
  23888446.450    17724537.92749  13806699.22249  23888449.2234   23888455.4874
  22386297.322   -19299868.63849 -15031181.02849  22386299.1784   22386305.6714
 96  4 20 16 55 30.0030000  0  7  7 19 31 27 16 18  2
  24816589.199    -7388644.98049  -5746170.24949  24816590.7434   24816598.9894
  21647108.894      152943.86149    116715.62949  21647111.4294   21647117.3884
  23682684.421    -1136726.15549   -881471.06249  23682686.7084   23682693.0444
  21405218.095   -15513883.95649 -12086239.57749  21405220.2494   21405225.7424
  24862804.871    -7586494.69849  -5901943.54949  24862807.0734   24862814.7524
  23909840.970    17836967.42649  13894306.56149  23909843.8644   23909850.0284
  22381097.388   -19327193.64549 -15052473.23549  22381099.2444   22381105.6914
 96  4 20 16 56  0.0030000  0  7  7 19 31 27 16 18  2
  24797520.095    -7488847.24049  -5824249.90249  24797523.1694   24797530.4854
  21653577.281      186937.08249    143203.84349  21653579.9814   21653586.1084
  23698098.235    -1055725.76149   -818353.88949  23698100.8324   23698106.8294
  21400288.741   -15539786.79349 -12106423.60649  21400291.0544   21400296.5954
  24870465.869    -7546241.38549  -5870577.37649  24870466.9074   24870474.5634
  23931277.157    17949616.65249  13982085.13549  23931279.7454   23931286.5444
  22375955.112   -19354215.41849 -15073529.15249  22375957.0884   22375963.6984
 96  4 20 16 56 30.0030000  0  7  7 19 31 27 16 18  2
  24778468.471    -7588969.87849  -5902267.48749  24778470.2464   24778478.3214
  21660106.647      221249.87349    169941.07749  21660109.4434   21660115.4564
  23713604.977     -974239.58749   -754858.18849  23713607.0094   23713613.0994
  21395418.208   -15565382.28249 -12126368.14249  21395420.1994   21395425.7834
  24878214.726    -7505511.41949  -5838839.76849  24878217.2344   24878226.0854
  23952751.254    18062463.74149  14070017.87149  23952754.1274   23952760.6784
  22370866.733   -19380955.33249 -15094365.44049  22370868.9084   22370875.2724
 96  4 20 16 57  0.0030000  0  7  7 19 31 27 16 18  2
  24759434.919    -7688990.29449  -5980205.43749  24759437.2984   24759444.7934
  21666701.591      255907.13749    196946.72349  21666704.2504   21666710.3334
  23729201.334     -892278.82649   -690992.67949  23729203.6774   23729210.1364
  21390609.613   -15590653.21649 -12146059.77949  21390611.1844   21390616.9124
  24886058.957    -7464301.61449  -5806728.26449  24886059.9884   24886068.3274
  23974268.703    18175535.41449  14158125.62549  23974270.5574   23974278.0204
  22365833.462   -19407405.40749 -15114975.87849  22365835.4824   22365841.9534
 96  4 20 16 57 30.0030000  0  7  7 19 31 27 16 18  2
  24740421.083    -7788909.77749  -6058064.72849  24740423.2014   24740430.5214
  21673366.823      290925.94249    224234.09249  21673368.5714   21673374.7434
  23744887.876     -809844.69349   -626758.31849  23744890.6204   23744896.6334
  21385858.136   -15615614.12349 -12165509.83649  21385861.6294   21385867.3204
  24893991.036    -7422614.15349  -5774244.56949  24893993.0654   24893999.9034
  23995829.504    18288836.45649  14246412.09849  23995831.6114   23995838.2804
  22360856.292   -19433561.09349 -15135356.92449  22360858.2784   22360864.6594
 96  4 20 16 58  0.0030000  0  7  7 19 31 27 16 18  2
  24721419.974    -7888763.16149  -6135872.51449  24721421.4454   24721428.3434
  21680090.983      326265.19649    251771.16649  21680093.2364   21680099.2194
  23760657.601     -726973.50349   -562183.38949  23760660.0154   23760666.3464
  21381159.934   -15640309.38349 -12184752.89249  21381161.9804   21381167.6294
  24902002.429    -7380508.17849  -5741434.76549  24902005.7694   24902012.7944
  24017428.101    18402337.10349  14334854.11849  24017430.6314   24017436.4654
  22355925.744   -19459469.44949 -15155545.23849  22355927.9544   22355934.3704
 96  4 20 16 58 30.0030000  0  7  7 19 31 27 16 18  2
  24702428.219    -7988559.22749  -6213635.62749  24702431.5914   24702438.4314
  21686870.128      361892.61749    279532.78349  21686873.1324   21686879.0034
  23776506.997     -643686.56649   -497284.49549  23776509.0514   23776515.5264
  21376507.615   -15664757.67349 -12203803.50549  21376509.7784   21376515.4634
  24910088.679    -7338021.62549  -5708328.39149  24910091.3884   24910098.4154
  24039062.953    18516028.98849  14423445.15249  24039064.6624   24039071.1234
  22351041.469   -19485138.56049 -15175547.13449  22351043.2764   22351049.7634
 96  4 20 16 59  0.0030000  0  7  7 19 31 27 16 18  2
  24683454.550    -8088271.55549  -6291333.48849  24683455.5004   24683463.9144
  21693710.110      397836.06549    307540.65349  21693712.8834   21693719.0924
  23792438.393     -559965.71149   -432047.49249  23792440.2394   23792446.2984
  21371907.143   -15688934.12249 -12222642.29849  21371909.2294   21371914.7324
  24918247.835    -7295136.15449  -5674911.18849  24918251.4164   24918258.8984
  24060739.702    18629942.93949  14512209.22449  24060741.5694   24060748.9134
  22346208.100   -19510536.80249 -15195337.96649  22346210.2064   22346216.7314
 96  4 20 16 59 30.0030000  0  7  7 19 31 27 16 18  2
  24664498.867    -8187878.05149  -6368948.88449  24664502.4724   24664509.8594
  21700610.578      434097.40249    335796.22949  21700612.7994   21700618.7304
  23808456.117     -475793.52849   -366458.80749  23808458.8964   23808464.0684
  21367358.984   -15712833.91649 -12241265.51049  21367361.1004   21367366.6674
  24926488.733    -7251838.41749  -5641172.72849  24926489.7534   24926498.9454
  24082458.664    18744079.48249  14601146.73749  24082461.2874   24082468.0344
  22341428.393   -19535655.70349 -15214911.12949  22341430.2034   22341436.8874
 96  4 20 17  0  0.0030000  0  7  7 19 31 27 16 18  2
  24645564.026    -8287377.53949  -6446480.90549  24645567.5224   24645574.9774
  21707563.624      470637.06449    364268.68149  21707566.1774   21707572.2634
  23824552.595     -391207.42149   -300547.58549  23824554.9414   23824560.5794
  21362863.333   -15736457.98649 -12259673.87649  21362865.6864   21362871.2594
  24934800.679    -7208158.39649  -5607136.39449  24934802.6004   24934809.8954
  24104214.934    18858405.60049  14690231.97849  24104217.2074   24104223.7464
  22336696.443   -19560522.89649 -15234288.15549  22336697.9824   22336704.3814
 96  4 20 17  0 30.0030000  0  7  7 19 31 27 16 18  2
  24626650.994    -8386770.38849  -6523929.82049  24626653.4074   24626661.9554
  21714568.942      507448.85949    392953.18649  21714571.4034   21714577.5674
  23840725.430     -306219.60349   -234323.32949  23840727.0594   23840733.1714
  21358419.501   -15759811.35549 -12277871.30849  21358421.6194   21358427.3204
  24943185.397    -7164094.15749  -5572800.65549  24943186.8954   24943194.7554
  24126004.169    18972908.95549  14779455.32649  24126005.7104   24126012.9474
  22332013.376   -19585131.10149 -15253463.37349  22332015.2674   22332021.7194
 96  4 20 17  1  0.0030000  0  7  7 19 31 27 16 18  2
  24607756.602    -8486061.67249  -6601299.60249  24607759.0534   24607766.8104
  21721629.205      544551.03449    421863.95749  21721632.1824   21721637.8094
  23856975.011     -220822.58649   -167780.22249  23856976.6974   23856983.7924
  21354026.678   -15782895.40549 -12295858.87749  21354028.8564   21354034.5644
  24951648.260    -7119615.89449  -5538142.30349  24951651.2954   24951659.1924
  24147828.122    19087593.22949  14868819.64749  24147830.2394   24147836.9694
  22327380.145   -19609478.59149 -15272435.43749  22327382.0884   22327388.6404
 96  4 20 17  1 30.0030000  0  7  7 19 31 27 16 18  2
  24588879.525    -8585261.51449  -6678598.11949  24588882.1714   24588889.4824
  21728743.324      581937.61249    450996.34349  21728746.1824   21728752.3094
  23873304.322     -135011.74249   -100914.65949  23873306.4854   23873312.9444
  21349683.532   -15805718.98949 -12313643.48849  21349685.8384   21349691.3294
  24960191.398    -7074735.48449  -5503170.60249  24960191.6504   24960199.9784
  24169682.755    19202439.92949  14958310.52749  24169684.6624   24169690.9044
  22322795.013   -19633573.08949 -15291210.36549  22322797.0034   22322803.3124
 96  4 20 17  2  0.0030000  0  7  7 19 31 27 16 18  2
  24570020.251    -8684364.37649  -6755821.08049  24570023.4144   24570029.8154
  21735913.905      619616.89649    480356.81249  21735916.3464   21735922.1234
  23889714.137      -48779.17349    -33720.47349  23889716.7004   23889722.9654
  21345393.151   -15828264.74149 -12331211.60549  21345395.4814   21345401.0404
  24968807.167    -7029455.46549  -5467887.52049  24968808.6474   24968816.5354
  24191570.969    19317460.75049  15047937.08449  24191572.7274   24191579.5014
  22318262.443   -19657390.65749 -15309769.50549  22318264.7594   22318271.1644
 96  4 20 17  2 30.0030000  0  7  7 19 31 27 16 18  2
  24551173.490    -8783408.31449  -6832998.11749  24551175.2374   24551183.4494
  21743137.635      657579.48149    509938.03049  21743140.3334   21743146.2114
  23906202.687       37866.04049     33795.26249  23906204.3964   23906210.4684
  21341149.485   -15850565.64949 -12348588.93849  21341151.8814   21341157.3694
  24977495.869    -6983796.40649  -5432309.07549  24977497.6544   24977505.3254
  24213486.943    19432637.40749  15137685.07149  24213489.8964   24213497.3764
  22313779.853   -19680948.70749 -15328126.42549  22313781.5754   22313788.1244
 96  4 20 17  3  0.0030000  0  7  7 19 31 27 16 18  2
  24532338.619    -8882384.42849  -6910122.31749  24532341.7774   24532348.9254
  21750416.042      695828.26249    539742.26249  21750418.7324   21750424.8984
  23922770.112      124929.44249    101636.84049  23922772.3744   23922777.4224
  21336953.746   -15872614.57149 -12365769.91849  21336956.0834   21336961.5404
  24986254.555    -6937768.00749  -5396442.83149  24986257.0294   24986264.6564
  24235433.429    19547963.60549  15227549.58149  24235435.5744   24235442.8914
  22309344.731   -19704255.57649 -15346287.61549  22309346.7454   22309352.9614
 96  4 20 17  3 30.0030000  0  7  7 19 31 27 16 18  2
  24513522.883    -8981261.76149  -6987169.55749  24513525.7804   24513533.2184
  21757748.202      734357.50549    569765.03949  21757750.8704   21757757.0474
  23939417.508      212412.97249    169805.80449  23939419.7774   23939424.9564
  21332809.514   -15894393.74849 -12382740.70349  21332811.4334   21332817.2814
  24995082.397    -6891383.04649  -5360298.74649  24995083.0294   24995091.8844
  24257406.009    19663431.50249  15317524.50949  24257409.0924   24257415.3534
  22304957.999   -19727307.96049 -15364250.50549  22304959.9914   22304966.4444
 96  4 20 17  4  0.0030000  0  7  7 19 31 27 16 18  2
  24494723.856    -9080049.06049  -7064146.62249  24494726.5924   24494733.7094
  21765130.736      773151.65249    599994.23349  21765133.0224   21765139.4564
  23956142.439      300300.89549    238289.89349  23956144.8084   23956149.1994
  21328715.952   -15915904.75249 -12399502.52749  21328718.3094   21328723.8954
  25003975.471    -6844647.03149  -5323881.11549  25003977.1394   25003984.1714
  24279404.488    19779033.12249  15407603.63849  24279407.5944   24279413.6454
  22300617.147   -19750118.87649 -15382025.24349  22300619.2054   22300625.6754
 96  4 20 17  4 30.0030000  0  7  7 19 31 27 16 18  2
  24475948.804    -9178710.41049  -7141025.56549  24475952.0644   24475959.4344
  21772569.216      812243.83949    630455.66649  21772571.9394   21772577.9954
  23972948.554      388613.60649    307104.97049  23972949.3914   23972954.6544
  21324679.574   -15937116.60849 -12416031.25049  21324681.5364   21324687.2204
  25012944.609    -6797511.31649  -5287152.02549  25012946.4314   25012955.1514
  24301430.578    19894784.08749  15497799.13249  24301433.5504   24301440.6424
  22296326.374   -19772668.25949 -15399596.18849  22296328.2824   22296334.6204
 96  4 20 17  5  0.0030000  0  7  7 19 31 27 16 18  2
  24457203.020    -9277222.88049  -7217788.47449  24457205.3354   24457213.1974
  21780065.829      851636.77449    661151.45149  21780068.5174   21780074.3454
  23989836.484      477367.86049    376264.09649  23989839.4154   23989844.4814
  21320705.161   -15958001.45849 -12432305.15949  21320707.2854   21320712.8634
  25021991.881    -6749961.06449  -5250099.93549  25021994.7624   25022002.5724
  24323489.538    20010701.16049  15588124.05849  24323491.4134   24323497.8194
  22292087.669   -19794942.33949 -15416952.61149  22292089.7914   22292095.8844
 96  4 20 17  5 30.0030000  0  7  7 19 31 27 16 18  2
  24438483.236    -9375594.52149  -7294441.66049  24438485.6514   24438493.4724
  21787616.270      891315.72849    692070.10649  21787618.8964   21787624.8944
  24006808.309      566553.72349    445759.55749  24006810.9224   24006814.8804
  21316793.775   -15978556.49549 -12448322.07249  21316795.8754   21316801.5054
  25031121.523    -6701990.25149  -5212720.13049  25031123.7654   25031131.5634
  24345579.367    20126782.44349  15678576.94349  24345581.1794   24345587.5414
  22287901.491   -19816939.31249 -15434093.10449  22287903.7144   22287909.8984
 96  4 20 17  6  0.0030000  0  7  7 19 31 27 16 18  2
  24419788.815    -9473833.69249  -7370991.62749  24419792.1544   24419799.8364
  21795221.594      931282.45449    723212.99849  21795224.4344   21795230.5074
  24023862.096      656166.53249    515587.70849  24023863.3784   24023868.7744
  21312945.854   -15998776.12549 -12464077.63049  21312948.3714   21312953.8874
  25040330.236    -6653597.58149  -5175011.59049  25040332.7234   25040339.8074
  24367702.539    20243040.04449  15769167.21549  24367704.7034   24367711.4964
  22283769.308   -19838653.55249 -15451013.28749  22283771.5274   22283778.0314
 96  4 20 17  6 30.0030000  0  7  7 19 31 27 16 18  2
  24401116.589    -9571957.68449  -7447451.83549  24401119.3104   24401127.5144
  21802877.161      971512.98649    754561.45649  21802879.7494   21802886.2364
  24040991.045      746183.11849    585730.48849  24040992.0774   24040997.8424
  21309156.362   -16018691.45649 -12479596.06949  21309158.5294   21309164.0574
  25049612.829    -6604820.84649  -5137003.81149  25049615.2264   25049621.2804
  24389854.558    20359449.09249  15859875.50549  24389856.1264   24389862.9564
  22279684.458   -19860119.80949 -15467740.23449  22279686.9304   22279693.1054
 96  4 20 17  7  0.0030000  0  7  7 19 31 27 16 18  2
  24382465.997    -9669969.76549  -7523824.84249  24382467.8284   24382475.5854
  21810585.263     1012019.72049    786125.13449  21810588.0084   21810594.3554
  24058196.839      836606.21349    656190.02049  24058199.9784   24058204.8284
  21305423.805   -16038307.72549 -12494881.47049  21305425.8824   21305431.3394
  25058962.280    -6555677.55049  -5098710.37349  25058965.5004   25058973.4384
  24412037.929    20476023.55449  15950712.69249  24412039.4734   24412046.8004
  22275646.877   -19881338.97449 -15484274.64249  22275648.8544   22275655.2264
 96  4 20 17  7 30.0030000  0  7  7 19 31 27 16 18  2
  24363838.994    -9767857.17349  -7600100.69249  24363840.5064   24363848.2344
  21818350.723     1052827.20649    817923.16749  21818353.4934   21818359.6154
  24075477.913      927413.54249    726948.96449  24075481.6234   24075486.1034
  21301746.806   -16057628.47549 -12509936.60249  21301749.1744   21301754.6964
  25068384.055    -6506171.62749  -5060134.37049  25068387.1194   25068394.7944
  24434251.537    20592757.08649  16041673.83349  24434253.1924   24434260.6254
  22271657.931   -19902300.04949 -15500607.94049  22271660.2674   22271666.4684
 96  4 20 17  8  0.0030000  0  7  7 19 31 27 16 18  2
  24345234.777    -9865618.37049  -7676278.21249  24345237.9784   24345245.2304
  21826177.175     1093956.22849    849971.74549  21826180.1504   21826186.1384
  24092828.582     1018589.80149    797995.39249  24092829.7294   24092835.4804
  21298122.933   -16076671.93149 -12524775.65849  21298125.1274   21298130.6254
  25077869.962    -6456323.25049  -5021291.52549  25077872.2814   25077880.0514
  24456494.653    20709642.84049  16132753.58049  24456496.5594   24456502.7454
  22267716.060   -19923015.39849 -15516749.76149  22267718.0484   22267724.5454
 96  4 20 17  8 30.0030000  0  7  7 19 31 27 16 18  2
  24326660.686    -9963228.90849  -7752338.34649  24326662.7584   24326670.4784
  21834070.470     1135433.02549    882291.31649  21834072.9514   21834079.1654
  24110250.563     1110147.40749    869338.94649  24110252.8694   24110258.4534
  21294552.583   -16095434.80949 -12539396.08549  21294554.7394   21294560.2514
  25087424.084    -6406118.90549  -4982171.28149  25087424.8524   25087433.5224
  24478767.531    20826687.61049  16223957.22949  24478769.5734   24478776.1944
  22263824.048   -19943468.01449 -15532686.85849  22263826.1264   22263832.5474
 96  4 20 17  9  0.0030000  0  7  7 19 31 27 16 18  2
  24308117.833   -10060672.17449  -7828268.12349  24308119.7914   24308127.9014
  21842030.897     1177265.62049    914888.13249  21842033.6354   21842039.5344
  24127744.652     1202078.46549    940973.50549  24127747.7764   24127751.8754
  21291037.926   -16113903.50749 -12553787.27949  21291040.2524   21291045.7734
  25097049.093    -6355545.77349  -4942763.68549  25097049.5564   25097058.7234
  24501071.489    20943896.83349  16315289.03649  24501073.9354   24501080.4154
  22259984.794   -19963644.35349 -15548408.67449  22259986.6364   22259992.9344
 96  4 20 17  9 30.0030000  0  7  7 19 31 27 16 18  2
  24289601.134   -10157974.17749  -7904087.83349  24289603.8324   24289611.2104
  21850050.857     1219411.93849    947729.41049  21850053.5474   21850059.4834
  24145304.770     1294353.93449   1012876.45849  24145307.0304   24145312.4464
  21287574.983   -16132100.86349 -12567967.03649  21287577.3224   21287582.9754
  25106734.155    -6304640.51449  -4903097.29749  25106737.5674   25106744.5694
  24523396.377    21061214.38649  16406705.25249  24523398.7194   24523405.2654
  22256190.203   -19983584.44149 -15563946.39649  22256192.2794   22256198.4134
 96  4 20 17 10  0.0030000  0  7  7 19 31 27 16 18  2
  24271108.625   -10255154.95749  -7979813.08449  24271111.2884   24271118.2594
  21858126.735     1261851.33849    980799.06149  21858129.5024   21858135.9084
  24162932.751     1386991.11549   1085061.25449  24162934.5224   24162940.0644
  21284163.465   -16150028.91149 -12581936.94649  21284165.7144   21284171.4154
  25116485.985    -6253399.98149  -4863169.65149  25116487.6954   25116495.8274
  24545741.992    21178640.74249  16498206.24349  24545744.3484   24545752.1574
  22252438.000   -20003303.11549 -15579311.59249  22252439.9254   22252446.2334
 96  4 20 17 10 30.0030000  0  7  7 19 31 27 16 18  2
  24252638.367   -10352214.88349  -8055444.16349  24252641.6324   24252648.6394
  21866255.205     1304565.67349   1014082.94549  21866257.6884   21866264.0314
  24180631.563     1480000.60649   1157536.15349  24180632.9624   24180639.5564
  21280806.766   -16167669.15049 -12595682.59149  21280809.0524   21280814.4434
  25126302.014    -6201821.12949  -4822978.37249  25126303.2094   25126310.6644
  24568107.800    21296173.62349  16589790.24649  24568109.5454   24568116.5444
  22248728.252   -20022797.56949 -15594502.06849  22248730.2534   22248736.4814
 96  4 20 17 11  0.0030000  0  7  7 19 31 27 16 18  2
  24234192.441   -10449149.08549  -8130977.26449  24234194.5704   24234202.7604
  21874436.615     1347561.09749   1047585.86549  21874439.3224   21874445.7024
  24198404.955     1573402.67749   1230316.96249  24198407.5914   24198414.2564
  21277511.347   -16184987.94549 -12609177.75749  21277513.3584   21277518.9564
  25136181.632    -6149891.10549  -4782513.45949  25136184.2284   25136192.4254
  24590494.144    21413814.56949  16681458.45549  24590496.2234   24590503.0014
  22245063.232   -20042057.85249 -15609510.07349  22245065.0514   22245071.3064
 96  4 20 17 11 30.0030000  0  7  7 19 31 27 16 18  2
  24215768.818   -10545965.27449  -8206418.41449  24215771.8434   24215779.7054
  21882673.606     1390845.35049   1081313.84349  21882676.2154   21882682.4914
  24216255.636     1667208.67849   1303412.52449  24216258.4794   24216264.8174
  21274278.679   -16201974.10449 -12622413.72549  21274280.9434   21274286.3194
  25146131.759    -6097605.68149  -4741771.61749  25146133.6414   25146141.8824
  24612901.543    21531563.89449  16773211.11749  24612903.5604   24612909.4784
  22241446.769   -20061060.80249 -15624317.55749  22241448.7134   22241455.0744
 96  4 20 17 12  0.0030000  0  7  7 19 31 27 16 18  2
  24197370.566   -10642646.83349  -8281754.64549  24197374.3704   24197381.0874
  21890967.032     1434426.99549   1115273.54849  21890969.4594   21890975.5654
  24234182.554     1761411.67049   1376817.43249  24234184.4744   24234191.6014
  21271110.566   -16218622.11449 -12635386.20249  21271112.7684   21271118.5114
  25156152.859    -6044949.59449  -4700740.92949  25156154.4634   25156162.0314
  24635332.807    21649442.16449  16865064.24549  24635335.3394   24635340.2744
  22237882.564   -20079790.40749 -15638912.05249  22237884.6164   22237891.0234
 96  4 20 17 12 30.0030000  0  7  7 19 31 27 16 18  2
  24179001.438   -10739179.05349  -8356974.50949  24179004.2694   24179011.7864
  21899315.376     1478299.39649   1149459.82449  21899318.2474   21899324.0684
  24252178.025     1855978.92149   1450506.16849  24252180.2034   24252187.0444
  21268006.187   -16234937.44449 -12648099.44649  21268008.2994   21268013.7294
  25166240.370    -5991943.22149  -4659437.29349  25166240.6864   25166250.2674
  24657781.374    21767416.27649  16956992.06349  24657784.4234   24657790.8244
  22234367.179   -20098262.93449 -15653306.22249  22234369.5484   22234375.8504
 96  4 20 17 13  0.0030000  0  7  7 19 31 27 16 18  2
  24160661.695   -10835556.14449  -8432073.49349  24160664.2724   24160672.1784
  21907720.949     1522469.97149   1183878.44149  21907723.7014   21907729.7134
  24270241.772     1950904.08149   1524473.79649  24270243.4784   24270250.6014
  21264965.231   -16250918.23949 -12660552.01549  21264967.2224   21264972.7384
  25176393.491    -5938580.06149  -4617855.65249  25176395.7364   25176404.3984
  24680252.059    21885496.74049  17049002.75149  24680254.6224   24680260.7594
  22230902.816   -20116470.21349 -15667493.70649  22230904.8194   22230911.0894
 96  4 20 17 13 30.0030000  0  7  7 19 31 27 16 18  2
  24142355.000   -10931766.14349  -8507042.26949  24142355.9654   24142362.5484
  21916185.739     1566951.77849   1218539.58149  21916188.5304   21916194.4324
  24288371.547     2046176.66549   1598712.14149  24288373.7984   24288380.2454
  21261983.980   -16266583.08049 -12672758.38249  21261986.3134   21261991.8334
  25186614.060    -5884858.09549  -4575994.41349  25186617.4474   25186627.7924
  24702743.315    22003693.03949  17141103.69449  24702746.1914   24702752.4484
  22227489.178   -20134410.06349 -15681472.79749  22227490.9634   22227497.1924
 96  4 20 17 14  0.0030000  0  7  7 19 31 27 16 18  2
  24124078.782   -11027803.66249  -8581876.65349  24124082.1294   24124087.9284
  21924707.155     1611732.69449   1253433.79349  21924709.8244   21924716.1444
  24306567.512     2141795.43649   1673220.22949  24306569.3814   24306575.3434
  21259061.293   -16281942.63449 -12684726.86649  21259063.6354   21259069.1354
  25196905.133    -5830796.07549  -4533868.21849  25196906.6804   25196913.3354
  24725256.445    22121997.75549  17233289.11749  24725258.2074   24725266.5354
  22224119.063   -20152118.84649 -15695271.84049  22224121.1524   22224127.4124
 96  4 20 17 14 30.0030000  0  7  7 19 31 27 16 18  2
  24105832.359   -11123688.45549  -8656592.04149  24105834.2594   24105842.1274
  21933283.558     1656801.82949   1288552.59149  21933286.1504   21933292.1574
  24324830.490     2237769.52449   1748005.19849  24324833.6894   24324838.1484
  21256193.516   -16297013.52549 -12696470.41649  21256195.8504   21256201.2644
  25207253.067    -5776419.33149  -4491496.78449  25207254.8724   25207262.1074
  24747788.962    22240404.47349  17325554.01649  24747790.3304   24747797.4864
  22220792.389   -20169601.40249 -15708894.60249  22220794.1854   22220800.4994
 96  4 20 17 15  0.0030000  0  8  7 19 31 26 27 16 18  2
  24087611.229   -11219438.57149  -8731202.48249  24087612.9234   24087620.5314
  21941913.695     1702154.20549   1323892.09249  21941916.4984   21941922.5984
  24343162.769     2334105.73849   1823072.35949  24343165.5684   24343170.8944
  25865879.053    -4245863.97459  -3274313.74559  25865882.7684   25865888.7454
  21253375.603   -16311821.40349 -12708009.02149  21253377.8344   21253383.3474
  25217655.975    -5721739.20249  -4448888.91849  25217659.8334   25217667.8324
  24770343.792    22358928.45049  17417910.30149  24770344.7614   24770351.8734
  22217510.160   -20186849.39849 -15722334.59349  22217512.0984   22217518.2964
 96  4 20 17 15 30.0030000  0  8  7 19 31 26 27 16 18  2
  24069419.552   -11315039.31149  -8805696.53649  24069421.5014   24069428.9804
  21950600.613     1747803.93049   1359463.28949  21950603.5784   21950609.6174
  24361565.372     2430813.17749   1898428.77349  24361568.3874   24361573.7284
  25849465.988    -4332118.37249  -3341524.96149  25849469.2354   25849475.4944
  21250608.515   -16326362.63649 -12719339.85249  21250610.5814   21250616.2774
  25228119.156    -5666754.62149  -4406043.86749  25228122.2434   25228130.6364
  24792917.619    22477555.45949  17510346.85349  24792919.5274   24792926.5274
  22214271.442   -20203868.40949 -15735596.15749  22214273.5074   22214279.6484
 96  4 20 17 16  0.0030000  0  8  7 19 31 26 27 16 18  2
  24051252.924   -11410505.23949  -8880085.52949  24051254.6854   24051262.1454
  21959339.973     1793729.74549   1395249.62449  21959342.7394   21959348.8054
  24380034.437     2527868.03249   1974055.90549  24380035.9484   24380042.9824
  25833087.145    -4418186.37649  -3408590.89149  25833090.0004   25833096.9524
  21247893.383   -16340629.95549 -12730457.23949  21247895.6414   21247901.2754
  25238638.290    -5611482.59249  -4362974.79649  25238640.4604   25238648.5784
  24815509.001    22596275.67849  17602856.04749  24815512.0494   24815518.0134
  22211073.346   -20220674.70449 -15748691.96349  22211075.4114   22211081.7094
 96  4 20 17 16 30.0030000  0  8  7 19 31 26 27 16 18  2
  24033113.774   -11505824.83049  -8954360.51549  24033115.7054   24033123.1264
  21968134.350     1839945.36849   1431261.78549  21968137.2204   21968143.4154
  24398566.976     2625257.63049   2049943.85849  24398569.2154   24398575.7454
  25816745.922    -4504064.29649  -3475508.72949  25816749.6274   25816755.0204
  21245232.629   -16354613.26449 -12741353.32249  21245234.6404   21245240.4344
  25249213.101    -5555907.07449  -4319669.24749  25249216.9094   25249224.6974
  24838119.249    22715093.45249  17695441.25349  24838121.6114   24838128.9544
  22207919.470   -20237248.99249 -15761606.98549  22207921.4294   22207927.7994
 96  4 20 17 17  0.0030000  0  8  7 19 31 26 27 16 18  2
  24015007.178   -11600974.69949  -9028503.25049  24015009.4894   24015016.5584
  21976987.751     1886469.54049   1467514.37049  21976990.5064   21976996.7824
  24417159.420     2722958.72049   2126074.56649  24417161.0044   24417167.1334
  25800439.880    -4589751.79249  -3542278.17249  25800441.0334   25800449.0594
  21242631.470   -16368280.48249 -12752003.10149  21242634.0334   21242639.5744
  25259852.451    -5500006.55149  -4276110.44249  25259854.2734   25259862.9144
  24860746.963    22834002.11149  17788097.27749  24860748.9314   24860756.2914
  22204809.034   -20253594.16649 -15774343.47749  22204811.0454   22204817.4084
 96  4 20 17 17 30.0030000  0  8  7 19 31 26 27 16 18  2
  23996933.493   -11695951.84949  -9102511.38749  23996936.7084   23996943.1734
  21985900.029     1933302.85849   1504007.85049  21985902.7454   21985908.8044
  24435807.062     2820954.33749   2202434.75149  24435809.2984   24435815.3764
  25784171.888    -4675235.67949  -3608888.95249  25784175.4574   25784181.9204
  21240095.937   -16381606.32649 -12762386.87449  21240097.9834   21240103.7454
  25270551.192    -5443781.48549  -4232298.75149  25270553.5894   25270561.4634
  24883389.072    22952984.62449  17880810.84649  24883391.3914   24883397.1824
  22201739.425   -20269723.10049 -15786911.47049  22201741.5024   22201747.8704
 96  4 20 17 18  0.0030000  0  8  7 19 31 26 27 16 18  2
  23978890.038   -11790773.82849  -9176398.62049  23978892.1284   23978899.4384
  21994865.834     1980419.40049   1540722.02049  21994868.5704   21994874.7994
  24454506.985     2919224.25549   2279008.68449  24454509.2624   24454515.2204
  25767943.346    -4760523.04149  -3675346.59349  25767945.8884   25767951.9614
  21237621.755   -16394608.30249 -12772518.28449  21237623.9204   21237629.5054
  25281310.135    -5387252.04349  -4188249.88749  25281309.7314   25281319.4424
  24906044.012    23072038.25449  17973579.83549  24906046.9284   24906052.7324
  22198710.846   -20285640.50849 -15799314.63849  22198712.4964   22198718.8934
 96  4 20 17 18 30.0030000  0  8  7 19 31 26 27 16 18  2
  23960878.498   -11885424.98049  -9250152.74849  23960881.0904   23960887.6884
  22003886.340     2027822.07949   1577659.16349  22003889.1254   22003895.3864
  24473263.096     3017785.83449   2355809.88949  24473265.4854   24473271.9804
  25751753.540    -4845604.93849  -3741644.15749  25751757.0334   25751761.3864
  21235209.007   -16407287.80049 -12782398.41449  21235211.0594   21235216.7294
  25292122.743    -5330418.11249  -4143963.74149  25292125.7794   25292134.7384
  24928712.124    23191157.41549  18066399.88549  24928713.2864   24928720.5714
  22195724.142   -20301335.03449 -15811544.13349  22195726.0284   22195732.3714
 96  4 20 17 19  0.0030000  0  8  7 19 31 26 27 16 18  2
  23942900.421   -11979900.99849  -9323770.39349  23942902.5084   23942909.8654
  22012962.445     2075514.42649   1614822.01349  22012964.4334   22012970.7174
  24492076.047     3116649.29949   2432846.34449  24492079.1054   24492085.0194
  25735602.808    -4930477.74849  -3807778.78349  25735604.0114   25735610.2024
  21232858.374   -16419637.43649 -12792021.51049  21232861.0294   21232866.5934
  25302996.582    -5273287.81749  -4099446.67449  25302996.7034   25303006.5884
  24951391.951    23310343.30149  18159271.93149  24951394.0274   24951402.1304
  22192782.311   -20316793.89549 -15823589.99649  22192784.3294   22192790.6304
 96  4 20 17 19 30.0030000  0  8  7 19 31 26 27 16 18  2
  23924952.328   -12074212.71449  -9397260.02249  23924954.8214   23924962.4654
  22022088.245     2123471.44149   1652191.10249  22022090.6454   22022096.7384
  24510947.162     3215816.39249   2510119.39249  24510949.1814   24510955.5684
  25719486.527    -5015165.24549  -3873768.99349  25719489.5034   25719495.3574
  21230566.966   -16431680.92349 -12801406.04449  21230569.2854   21230574.8184
  25313919.313    -5215887.31549  -4054719.06449  25313920.6834   25313929.2114
  24974083.596    23429584.71449  18252187.25649  24974085.6474   24974092.5744
  22189884.662   -20332021.24049 -15835455.45749  22189886.6104   22189892.9794
 96  4 20 17 20  0.0030000  0  8  7 19 31 26 27 16 18  2
  23907038.464   -12168354.11949  -9470616.93349  23907040.8644   23907047.9944
  22031265.355     2171700.70249   1689772.33049  22031268.0974   22031274.3164
  24529878.279     3315300.54549   2587639.47249  24529879.5454   24529887.1494
  25703404.520    -5099680.03549  -3939624.65949  25703406.8954   25703412.2694
  21228333.929   -16443416.96849 -12810551.01449  21228336.1124   21228341.5454
  25324892.361    -5158213.68849  -4009778.60349  25324895.1984   25324903.5614
  24996788.053    23548897.34049  18345158.04749  24996789.3164   24996797.5754
  22187033.917   -20347002.75849 -15847129.36149  22187035.7784   22187042.1834
 96  4 20 17 20 30.0030000  0  8  7 19 31 26 27 16 18  2
  23889159.934   -12262307.72949  -9543827.51849  23889162.3494   23889169.6184
  22040500.218     2220229.17049   1727586.71149  22040503.2714   22040509.0654
  24548871.441     3415113.25549   2665415.59649  24548873.7374   24548881.1924
  25687358.051    -5184004.76549  -4005332.22549  25687361.1114   25687366.7654
  21226163.662   -16454820.16449 -12819436.62149  21226165.9964   21226171.5654
  25335923.318    -5100253.60249  -3964614.94949  25335925.6144   25335933.4304
  25019507.093    23668286.68849  18438188.63749  25019508.5804   25019516.7194
  22184232.933   -20361723.38549 -15858599.97549  22184234.6274   22184240.8604
 96  4 20 17 21  0.0030000  0  8  7 19 31 26 27 16 18  2
  23871316.403   -12356073.68549  -9616891.87249  23871318.7764   23871325.7764
  22049794.706     2269070.04149   1765644.51949  22049796.9774   22049803.5574
  24567928.280     3515255.92849   2743448.82649  24567930.5134   24567936.6814
  25671351.775    -5268117.00749  -4070874.21149  25671353.9824   25671360.4174
  21224058.334   -16465885.04749 -12828058.60949  21224060.3744   21224065.8594
  25347008.118    -5042002.61849  -3919224.60949  25347009.3804   25347018.6454
  25042241.040    23787754.40249  18531280.29149  25042242.9174   25042250.3034
  22181480.989   -20376184.83049 -15869868.63249  22181482.6214   22181489.0154
 96  4 20 17 21 30.0030000  0  8  7 19 31 26 27 16 18  2
  23853506.221   -12449666.29549  -9689821.15749  23853508.4134   23853515.8084
  22059144.237     2318204.61849   1803931.18849  22059147.1924   22059153.3694
  24587046.393     3615722.14549   2821734.16949  24587049.0884   24587054.9744
  25655387.014    -5352012.35049  -4136247.17849  25655389.5864   25655395.9304
  21222014.957   -16476622.37149 -12836425.35549  21222017.2394   21222022.7214
  25358148.639    -4983460.42449  -3873607.35849  25358150.1844   25358158.1684
  25064987.717    23907289.29849  18624424.29949  25064989.0864   25064997.2304
  22178773.143   -20390412.26649 -15880954.94449  22178775.0944   22178781.5344
 96  4 20 17 22  0.0030000  0  8  7 19 31 26 27 16 18  2
  23835726.205   -12543101.92149  -9762628.11249  23835728.4184   23835735.3694
  22068549.500     2367628.83149   1842443.54649  22068552.3134   22068558.3504
  24606223.761     3716498.92749   2900261.50749  24606226.2504   24606231.7784
  25639464.414    -5435682.37749  -4201444.57749  25639467.8894   25639474.2754
  21220032.681   -16487038.82249 -12844542.07049  21220035.1574   21220040.5214
  25369343.514    -4924631.32749  -3827766.53149  25369345.0384   25369352.9704
  25087744.864    24026879.36449  18717611.29549  25087747.0824   25087753.9344
  22176105.748   -20404429.58549 -15891877.53049  22176107.9224   22176114.2354
 96  4 20 17 22 30.0030000  0  8  7 19 31 26 27 16 18  2
  23817980.835   -12636354.69449  -9835292.59049  23817983.3584   23817990.7374
  22078011.740     2417353.86649   1881190.31649  22078014.4764   22078020.5744
  24625461.232     3817594.46849   2979037.21449  24625462.6124   24625469.2284
  25623589.463    -5519102.91949  -4266447.55649  25623593.3564   25623599.4294
  21218113.993   -16497122.20249 -12852399.24949  21218116.1954   21218121.7714
  25380594.787    -4865501.49049  -3781691.36349  25380596.6064   25380605.8884
  25110512.695    24146524.20249  18810840.95649  25110514.9364   25110521.9644
  22173478.898   -20418235.11349 -15902635.07749  22173480.8154   22173487.1604
 96  4 20 17 23  0.0030000  0  8  7 19 31 26 27 16 18  2
  23800273.931   -12729405.70649  -9907799.84949  23800276.2544   23800283.3384
  22087531.914     2467381.36249   1920172.76649  22087534.6364   22087540.7674
  24644761.993     3919020.41749   3058070.39649  24644764.2214   24644770.2834
  25607765.514    -5602260.03749  -4331245.28149  25607768.1424   25607774.5244
  21216260.898   -16506860.70049 -12859987.69149  21216262.8714   21216268.4154
  25391904.398    -4806058.50749  -3735372.19649  25391908.8994   25391917.1914
  25133293.230    24266238.03149  18904124.37649  25133294.7584   25133302.6214
  22170893.213   -20431823.15549 -15913223.15949  22170895.1254   22170901.2844
 96  4 20 17 23 30.0030000  0  8  7 19 31 26 27 16 18  2
  23782604.161   -12822259.16649  -9980153.17049  23782606.6594   23782614.1654
  22097107.975     2517703.79949   1959385.03949  22097110.6724   22097116.7244
  24664122.110     4020758.70449   3137346.93349  24664124.8134   24664131.2104
  25591988.192    -5685176.40249  -4395855.40449  25591990.1594   25591997.3104
  21214473.515   -16516253.76249 -12867306.96449  21214475.6544   21214481.1024
  25403274.537    -4746319.18649  -3688822.10649  25403277.1494   25403285.2594
  25156085.833    24386012.96249  18997455.42749  25156088.0794   25156094.7204
  22168348.880   -20445192.77749 -15923641.04549  22168350.7014   22168357.1774
 96  4 20 17 24  0.0030000  0  8  7 19 31 26 27 16 18  2
  23764971.515   -12914919.31949 -10052355.85049  23764973.6114   23764981.0064
  22106741.574     2568327.64749   1998832.17649  22106744.0724   22106750.3574
  24683536.720     4122779.98149   3216844.00749  24683540.0674   24683544.9394
  25576250.276    -5767874.03049  -4460295.08749  25576253.5034   25576258.5634
  21212749.955   -16525310.02249 -12874363.78649  21212752.2314   21212757.7854
  25414691.466    -4686318.54849  -3642068.39349  25414694.3964   25414702.7144
  25178887.314    24505836.95049  19090824.68449  25178889.2104   25178897.8774
  22165846.653   -20458340.35249 -15933885.90449  22165848.8594   22165855.1864
 96  4 20 17 24 30.0030000  0  8  7 19 31 26 27 16 18  2
  23747377.695   -13007377.19249 -10124400.90949  23747379.9224   23747387.1644
  22116432.221     2619252.40149   2038513.78249  22116434.9314   22116441.0134
  24703003.185     4225073.33149   3296553.08449  24703004.4874   24703010.6014
  25560553.325    -5850362.99549  -4524572.19049  25560556.7304   25560562.4534
  21211091.066   -16534027.57249 -12881156.68349  21211093.2664   21211098.7224
  25426157.760    -4626061.47849  -3595114.87449  25426161.2624   25426169.0264
  25201697.279    24625705.30849  19184228.52349  25201699.7604   25201708.5034
  22163390.805   -20471248.09849 -15943943.88649  22163392.8424   22163398.9714
 96  4 20 17 25  0.0030000  0  8  7 19 31 26 27 16 18  2
  23729819.972   -13099642.90449 -10196296.22749  23729821.8754   23729829.7594
  22126178.543     2670472.54749   2078425.56949  22126181.7804   22126187.5104
  24722516.814     4327623.45849   3376462.23449  24722519.2524   24722525.5724
  25544893.292    -5932658.09349  -4588698.21849  25544896.2664   25544902.2714
  21209495.355   -16542413.39949 -12887691.09349  21209497.5264   21209503.2214
  25437670.484    -4565562.42949  -3547972.79449  25437673.0614   25437681.4554
  25224514.512    24745607.65949  19277658.85249  25224516.7374   25224523.7624
  22160979.484   -20483918.74849 -15953817.11849  22160981.4664   22160987.6244
 96  4 20 17 25 30.0030000  0  8  7 19 31 26 27 16 18  2
  23712300.265   -13191710.06249 -10268036.83149  23712303.0154   23712309.9064
  22135986.156     2722010.49649   2118584.99549  22135988.7994   22135994.8384
  24742081.289     4430434.34049   3456574.58349  24742083.0074   24742090.4244
  25529268.914    -6014763.64549  -4652676.53849  25529271.8104   25529277.0474
  21207962.017   -16550470.46749 -12893969.32549  21207964.4134   21207969.8894
  25449230.298    -4504822.35649  -3500642.90249  25449231.9354   25449241.3174
  25247339.149    24865552.83549  19371122.54549  25247341.3394   25247349.2884
  22158615.906   -20496339.67849 -15963495.76349  22158617.8984   22158624.3144
 96  4 20 17 26  0.0030000  0  8  7 19 31 26 27 16 18  2
  23694819.395   -13283572.04049 -10339617.55749  23694822.6674   23694829.0064
  22145854.506     2773867.52949   2158993.05549  22145856.8174   22145863.0984
  24761694.665     4533506.89049   3536890.82949  24761697.6794   24761704.3314
  25513683.706    -6096667.89649  -4716498.00949  25513685.5254   25513691.8164
  21206489.223   -16558210.15449 -12900000.25149  21206491.2864   21206497.0794
  25460834.759    -4443836.92549  -3453121.84649  25460836.8384   25460845.1994
  25270172.799    24985542.70949  19464621.06949  25270174.7024   25270183.2544
  22156296.458   -20508528.58049 -15972993.60249  22156298.3364   22156304.6164
 96  4 20 17 26 30.0030000  0  8  7 19 31 26 27 16 18  2
  23677380.309   -13375214.72849 -10411027.40749  23677383.4664   23677389.9464
  22155781.169     2826033.43049   2199641.79449  22155783.8744   22155790.1454
  24781360.014     4636848.98449   3617417.09849  24781362.8874   24781369.3454
  25498138.571    -6178354.00249  -4780149.49149  25498140.8294   25498148.7434
  21205075.599   -16565639.82849 -12905789.61449  21205077.7534   21205083.2904
  25472490.247    -4382587.19449  -3405394.82349  25472492.7944   25472501.3864
  25293012.876    25105570.31549  19558148.98949  25293015.7114   25293023.9624
  22154018.489   -20520499.10549 -15982321.28549  22154020.4264   22154026.5574
 96  4 20 17 27  0.0030000  0  8  7 19 31 26 27 16 18  2
  23659985.128   -13466626.56549 -10482257.37149  23659987.8634   23659994.6744
  22165769.649     2878522.14849   2240542.08149  22165772.1064   22165778.4184
  24801080.879     4740478.91449   3698167.66949  24801082.7764   24801088.5504
  25482642.604    -6259787.61649  -4843604.23749  25482645.5684   25482650.8474
  21203722.690   -16572747.94449 -12911328.40949  21203725.0674   21203730.8044
  25484195.502    -4321075.01849  -3357463.30249  25484198.1224   25484207.4234
  25315864.298    25225654.00049  19651720.60949  25315867.9034   25315874.1704
  22151782.611   -20532250.03149 -15991477.84949  22151784.4064   22151790.8564
 96  4 20 17 27 30.0030000  0  8  7 19 31 26 27 16 18  2
  23642635.078   -13557803.09649 -10553303.98349  23642637.1524   23642644.8224
  22175817.120     2931323.06749   2281685.63849  22175819.6554   22175826.0634
  24820856.264     4844398.14049   3779143.63949  24820857.9174   24820865.6294
  25467197.551    -6340948.92949  -4906846.77649  25467200.7204   25467205.3604
  21202432.550   -16579528.61649 -12916612.04949  21202434.5954   21202440.3154
  25495952.477    -4259293.92149  -3309322.24349  25495954.5054   25495963.3984
  25338727.229    25345796.28449  19745337.88949  25338729.9234   25338736.2584
  22149587.700   -20543783.83749 -16000465.22949  22149589.7234   22149596.0524
 96  4 20 17 28  0.0030000  0  8  7 19 31 26 27 16 18  2
  23625327.300   -13648754.63649 -10624175.27749  23625330.0094   23625336.5004
  22185917.509     2984401.77849   2323045.66049  22185920.3834   22185926.4304
  24840681.131     4948578.82449   3860323.34249  24840683.6724   24840689.5544
  25451806.436    -6421832.77949  -4969873.11849  25451809.4524   25451815.2774
  21201205.016   -16585979.87349 -12921639.00249  21201207.0504   21201212.8264
  25507760.848    -4197247.04949  -3260974.08149  25507761.4664   25507769.2784
  25361593.683    25465959.80149  19838971.71649  25361596.0204   25361603.2254
  22147429.543   -20555126.60249 -16009303.74649  22147431.3034   22147437.5364
 96  4 20 17 28 30.0030000  0  8  7 19 31 26 27 16 18  2
  23608064.509   -13739472.99749 -10694864.87649  23608066.0604   23608073.3904
  22196072.297     3037762.57649   2364625.48649  22196074.5614   22196081.0464
  24860557.955     5053031.37849   3941714.90849  24860560.3174   24860566.4054
  25436469.748    -6502429.15749  -5032675.46549  25436472.3584   25436478.9954
  21200047.421   -16592063.51049 -12926379.50349  21200049.4104   21200055.1354
  25519619.736    -4134919.13249  -3212406.90849  25519621.5694   25519630.9384
  25384464.566    25586148.79749  19932625.40249  25384467.9424   25384474.4614
  22145310.994   -20566257.41749 -16017977.10949  22145313.0934   22145319.5354
 96  4 20 17 29  0.0030000  0  8  7 19 31 26 27 16 18  2
  23590842.577   -13829974.97749 -10765385.86149  23590844.5014   23590851.2194
  22206279.285     3091401.76849   2406422.25149  22206282.2174   22206288.4394
  24880484.818     5157747.77149   4023312.05949  24880486.4864   24880493.8414
  25421186.824    -6582741.64149  -5095256.59749  25421188.9684   25421195.1334
  21198961.228   -16597771.10749 -12930826.98149  21198963.4304   21198969.0444
  25531531.892    -4072331.98549  -3163637.75849  25531533.2394   25531540.3144
  25407340.382    25706360.52349  20026296.79349  25407341.4614   25407349.5654
  22143232.247   -20577181.79049 -16026489.60549  22143234.4094   22143240.7324
 96  4 20 17 29 30.0030000  0  8  7 19 31 26 27 16 18  2
  23573661.895   -13920256.73949 -10835735.25249  23573664.5944   23573671.4924
  22216540.601     3145326.88549   2448441.80949  22216543.6294   22216549.8344
  24900462.020     5262730.09449   4105116.43449  24900464.4544   24900471.1744
  25405955.377    -6662777.58149  -5157622.23149  25405958.6844   25405965.4274
  21197947.136   -16603099.57249 -12934979.03549  21197949.4864   21197955.0384
  25543490.363    -4009475.32649  -3114658.57849  25543493.5924   25543502.1384
  25430220.287    25826592.05849  20119983.61149  25430220.9584   25430229.2174
  22141193.037   -20587897.29149 -16034839.34549  22141195.0434   22141201.4234
 96  4 20 17 30  0.0030000  0  8  7 19 31 26 27 16 18  2
  23556523.411   -14010320.68649 -10905914.91449  23556525.6394   23556532.3824
  22226858.744     3199548.54649   2490692.43449  22226861.5724   22226867.5334
  24920489.838     5367977.81749   4187127.62049  24920492.0244   24920498.7244
  25390778.520    -6742537.46449  -5219772.75149  25390780.5294   25390787.6954
  21197005.765   -16608047.56449 -12938834.61649  21197008.0774   21197013.3394
  25555499.683    -3946367.73549  -3065483.87449  25555502.1144   25555510.4894
  25453104.146    25946844.98449  20213687.10649  25453103.9754   25453112.7994
  22139194.123   -20598402.07249 -16043024.88849  22139196.1334   22139202.4794
 96  4 20 17 30 30.0030000  0  8  7 19 31 26 27 16 18  2
  23539428.292   -14100154.54649 -10975915.29149  23539430.4734   23539438.0134
  22237237.222     3254088.93449   2533191.42549  22237239.9504   22237246.2394
  24940575.048     5473524.00449   4269371.35349  24940575.4544   24940583.8494
  25375653.892    -6822012.79649  -5281701.55449  25375656.8384   25375663.8194
  21196137.277   -16612610.00849 -12942389.77549  21196139.5954   21196145.0514
  25567556.676    -3883014.57749  -3016117.82349  25567559.4554   25567565.1514
  25475998.351    26067158.17049  20307437.53149  25475999.7964   25476008.1114
  22137239.556   -20608673.39649 -16051028.51549  22137241.5644   22137247.8334
 96  4 20 17 31  0.0030000  0  9  7 19 31 15 26 27 16 18  2
  23522379.524   -14189749.29149 -11045729.34349  23522381.5984   23522388.3994
  22247677.685     3308952.26949   2575942.06149  22247680.1824   22247686.6134
  24960715.620     5579370.07549   4351848.75349  24960719.1744   24960724.5444
  25623786.463    -4182721.47459  -3247082.47559  25623788.6434   25623795.8084
  25360585.317    -6901202.45249  -5343407.74349  25360588.2994   25360593.8244
  21195339.372   -16616803.57749 -12945657.49749  21195341.5964   21195347.1394
  25579656.085    -3819426.25149  -2966568.52749  25579658.0844   25579667.0624
  25498905.354    26187536.31849  20401238.59549  25498908.5344   25498915.0124
  22135331.939   -20618696.81349 -16058838.97149  22135333.9584   22135340.3864
 96  4 20 17 31 30.0030000  0  9  7 19 31 15 26 27 16 18  2
  23505376.248   -14279101.19649 -11115354.17949  23505378.9464   23505385.3574
  22258177.160     3364128.33649   2618936.38249  22258179.9604   22258186.1244
  24980912.346     5685499.33749   4434546.84549  24980915.1724   24980921.5104
  25613093.283    -4238910.16049  -3290865.82549  25613095.3634   25613103.5584
  25345565.927    -6980128.31049  -5404908.38949  25345568.8344   25345574.9104
  21194611.746   -16620626.89449 -12948636.70649  21194614.2294   21194619.5234
  25591801.722    -3755597.32049  -2916831.74349  25591806.1144   25591812.8454
  25521822.763    26307967.16849  20495080.72049  25521824.9134   25521833.6874
  22133472.427   -20628469.86449 -16066454.33349  22133474.4174   22133480.5854
 96  4 20 17 32  0.0030000  0  9  7 19 31 15 26 27 16 18  2
  23488418.426   -14368213.14649 -11184792.02449  23488421.1154   23488427.7314
  22268733.452     3419602.70749   2662163.14449  22268736.3304   22268742.8904
  25001157.554     5791889.92149   4517448.56449  25001160.7424   25001167.8704
  25602446.798    -4294861.01949  -3334463.86149  25602447.9904   25602456.3524
  25330594.788    -7058802.71549  -5466213.09549  25330596.3204   25330602.3294
  21193954.248   -16624082.53749 -12951329.41749  21193956.4584   21193961.8834
  25603990.179    -3691542.42749  -2866918.89549  25603995.9554   25604001.6194
  25544747.481    26428441.99749  20588957.11449  25544750.0914   25544757.6814
  22131660.107   -20637992.86049 -16073874.84949  22131662.3404   22131668.4544
 96  4 20 17 32 30.0030000  0  9  7 19 31 15 26 27 16 18  2
  23471505.181   -14457093.40249 -11254049.34349  23471507.6734   23471515.0414
  22279343.836     3475360.79949   2705610.98749  22279346.3654   22279353.2434
  25021448.031     5898519.26049   4600536.32849  25021450.4234   25021458.3484
  25591842.569    -4350581.16049  -3377882.11949  25591846.3344   25591852.8974
  25315667.289    -7137248.61349  -5527339.75149  25315669.5994   25315676.3274
  21193362.787   -16627190.54549 -12953751.23949  21193365.0414   21193370.5994
  25616223.840    -3627276.97949  -2816841.96849  25616222.4324   25616231.3944
  25567676.719    26548930.12349  20682843.86949  25567679.2854   25567686.7994
  22129895.048   -20647268.36149 -16081102.51149  22129897.0834   22129903.2944
 96  4 20 17 33  0.0030000  0  9  7 19 31 15 26 27 16 18  2
  23454635.095   -14545744.66149 -11323128.21549  23454637.2864   23454644.9654
  22290005.778     3531388.75549   2749269.11549  22290008.5484   22290015.0984
  25041778.308     6005349.13449   4683780.34849  25041781.4074   25041786.5914
  25581282.428    -4406081.49949  -3421129.08949  25581283.8584   25581291.0924
  25300780.138    -7215480.84649  -5588299.90649  25300783.0784   25300788.5424
  21192834.803   -16629965.32449 -12955913.40749  21192836.9924   21192842.4904
  25628487.235    -3562822.14349  -2766617.45349  25628489.2794   25628498.3794
  25590600.217    26669393.01949  20776710.96649  25590602.3724   25590609.5434
  22128173.852   -20656314.07649 -16088151.11449  22128175.8984   22128182.0884
 96  4 20 17 33 30.0030000  0  9  7 19 31 15 26 27 16 18  2
  23437811.352   -14634155.40449 -11392019.68149  23437814.0064   23437820.8394
  22300722.030     3587703.75649   2793150.91549  22300725.0514   22300731.3934
  25062145.212     6112382.73749   4767183.11949  25062150.2734   25062153.4664
  25570765.840    -4461343.94449  -3464190.68849  25570768.8064   25570775.4124
  25285939.478    -7293471.46449  -5649071.80249  25285941.8284   25285947.6394
  21192372.653   -16632394.61649 -12957806.36849  21192374.8694   21192380.4004
  25640789.731    -3498166.95649  -2716236.84349  25640790.2254   25640801.2714
  25613519.330    26789837.73449  20870563.89449  25613521.6124   25613528.8824
  22126495.547   -20665132.63749 -16095022.72049  22126497.5894   22126503.8134
 96  4 20 17 34  0.0030000  0  9  7 19 31 15 26 27 16 18  2
  23421035.001   -14722314.86849 -11460715.34049  23421037.7604   23421045.0144
  22311495.865     3644318.86049   2837266.56349  22311498.6584   22311505.2484
  25082556.064     6219635.01449   4850756.28849  25082558.8004   25082564.1394
  25560298.177    -4516352.08349  -3507054.15249  25560299.6684   25560308.7684
  25271150.267    -7371186.81949  -5709629.19049  25271152.6614   25271160.1074
  21191974.823   -16634485.06749 -12959435.29449  21191977.2214   21191982.6274
  25653130.450    -3433314.02049  -2665702.13249  25653135.5504   25653140.6394
  25636437.097    26910270.50249  20964407.51349  25636439.0194   25636445.8514
  22124860.653   -20673723.95849 -16101717.25349  22124862.8004   22124869.2234
 96  4 20 17 34 30.0030000  0  9  7 19 31 15 26 27 16 18  2
  23404308.272   -14810215.36949 -11529209.21449  23404310.6944   23404317.8684
  22322327.054     3701237.56549   2881618.78149  22322329.8094   22322336.1944
  25103007.000     6327104.59349   4934498.77249  25103008.7084   25103014.5064
  25549878.317    -4571103.09349  -3549717.24949  25549880.7804   25549887.9954
  25256415.739    -7448615.05849  -5769962.85649  25256418.7054   25256425.5534
  21191641.748   -16636236.53649 -12960800.08149  21191643.9074   21191649.4304
  25665510.987    -3368255.57949  -2615007.24849  25665513.6054   25665521.4654
  25659349.991    27030677.34549  21058230.94649  25659352.7274   25659360.7014
  22123266.286   -20682102.45749 -16108245.95549  22123268.3384   22123274.7724
 96  4 20 17 35  0.0030000  0  9  7 19 31 15 26 27 16 18  2
  23387626.725   -14897877.02549 -11597516.97349  23387629.3374   23387636.3354
  22333212.801     3758441.73549   2926193.43249  22333215.4244   22333222.0244
  25123494.611     6434772.74349   5018395.99449  25123496.1124   25123503.4324
  25539506.684    -4625612.20949  -3592191.86049  25539509.1944   25539517.3504
  25241734.422    -7525765.86849  -5830080.35749  25241737.2234   25241743.2544
  21191370.160   -16637662.02049 -12961910.85349  21191372.4544   21191378.0084
  25677930.645    -3302990.51749  -2564151.41849  25677933.8124   25677941.8494
  25682256.300    27151052.82749  21152029.91849  25682259.4414   25682266.7954
  22121704.612   -20690309.42849 -16114641.00049  22121706.7114   22121713.1834
 96  4 20 17 35 30.0030000  0  9  7 19 31 15 26 27 16 18  2
  23370991.410   -14985295.65749 -11665635.36249  23370993.6284   23371001.3824
  22344157.213     3815955.97449   2971009.70349  22344159.7194   22344166.3464
  25144026.683     6542668.63649   5102470.65249  25144029.6854   25144035.3504
  25529182.102    -4679863.66649  -3634465.69149  25529184.9404   25529192.4524
  25227109.624    -7602617.98949  -5889965.08149  25227113.4594   25227119.2744
  21191167.025   -16638730.06749 -12962743.10049  21191169.3124   21191174.6724
  25690398.034    -3237482.81649  -2513106.46749  25690399.8974   25690406.9664
  25705160.701    27271415.93249  21245819.25149  25705163.6744   25705171.0304
  22120175.480   -20698344.69649 -16120902.24749  22120177.6484   22120183.9684
 96  4 20 17 36  0.0030000  0  9  7 19 31 15 26 27 16 18  2
  23354406.490   -15072449.43349 -11733547.36849  23354409.1204   23354415.8314
  22355164.625     3873800.99249   3016083.71749  22355167.5794   22355174.0084
  25164607.085     6650817.68949   5186742.59449  25164608.9614   25164614.6614
  25518908.673    -4733846.95849  -3676530.53949  25518910.9564   25518920.2884
  25212541.926    -7679170.09549  -5949616.03949  25212545.9714   25212551.1454
  21191034.926   -16639425.29149 -12963284.83849  21191036.8224   21191042.3784
  25702912.391    -3171720.31749  -2461862.97049  25702915.8264   25702922.8724
  25728065.767    27391775.18349  21339605.57349  25728067.2914   25728074.8914
  22118681.838   -20706194.91349 -16127019.29849  22118683.8874   22118690.2554
 96  4 20 17 36 30.0030000  0  9  7 19 31 15 26 27 16 18  2
  23337872.023   -15159338.33149 -11801252.97649  23337874.5214   23337881.7214
  22366237.693     3931986.53749   3061423.07849  22366239.9704   22366246.3314
  25185234.260     6759215.15049   5271208.07749  25185237.6374   25185241.6494
  25508688.306    -4787564.80549  -3718388.58449  25508689.8034   25508697.5754
  25198028.423    -7755440.84249  -6009047.78149  25198031.1334   25198037.4584
  21190974.803   -16639738.90749 -12963529.21849  21190977.2824   21190982.7094
  25715472.685    -3105717.68249  -2410432.37649  25715474.0774   25715483.0264
  25750967.481    27512130.30849  21433388.69449  25750969.7394   25750977.8344
  22117222.973   -20713860.17549 -16132992.23549  22117225.0574   22117231.3284
 96  4 20 17 37  0.0030000  0  9  7 19 31 15 26 27 16 18  2
  23321389.276   -15245953.48249 -11868745.27449  23321392.1984   23321399.0694
  22377376.168     3990521.10349   3107034.40549  22377378.8204   22377385.1464
  25205913.787     6867878.84949   5355881.07549  25205914.7224   25205921.1774
  25498519.221    -4841004.50949  -3760029.86849  25498521.5694   25498528.3854
  25183570.357    -7831420.56749  -6068252.72949  25183572.8604   25183579.4084
  21190991.996   -16639649.60649 -12963459.63349  21190994.1934   21190999.6184
  25728075.876    -3039480.26049  -2358818.81249  25728078.1334   25728086.6864
  25773872.134    27632493.05349  21527177.74049  25773874.0674   25773882.7414
  22115801.976   -20721328.59349 -16138811.78249  22115803.9384   22115810.2494
 96  4 20 17 37 30.0030000  0  9  7 19 31 15 26 27 16 18  2
  23304960.721   -15332286.88049 -11936018.03049  23304963.6464   23304970.6204
  22388580.566     4049400.89149   3152914.73949  22388583.0024   22388589.3284
  25226640.471     6976800.21849   5440754.83149  25226641.6114   25226649.4604
  25488402.463    -4894165.86549  -3801454.26349  25488403.7014   25488411.6834
  25169168.421    -7907101.64449  -6127224.98649  25169170.4264   25169177.8534
  21191084.896   -16639160.51249 -12963078.52049  21191087.1394   21191092.7944
  25740720.194    -2973036.09049  -2307044.16749  25740722.7694   25740730.9244
  25796776.011    27752854.53649  21620965.78449  25796778.1324   25796785.2264
  22114420.224   -20728588.63049 -16144468.95649  22114422.2554   22114428.5004
 96  4 20 17 38  0.0030000  0  9  7 19 31 15 26 27 16 18  2
  23288589.106   -15418321.47349 -12003057.94049  23288591.6364   23288598.9594
  22399848.121     4108611.30749   3199052.70349  22399850.2204   22399857.2124
  25247409.963     7085952.14149   5525808.23049  25247412.0634   25247420.1524
  25478340.449    -4947046.89449  -3842660.24749  25478341.4774   25478350.0714
  25154823.393    -7982487.34349  -6185967.07349  25154825.8034   25154832.6124
  21191252.093   -16638284.11349 -12962395.61249  21191254.2224   21191259.5744
  25753396.035    -2906417.14449  -2255133.32649  25753400.0004   25753408.3624
  25819679.853    27873215.65649  21714753.53449  25819682.3284   25819689.6734
  22113081.809   -20735622.91849 -16149950.21849  22113083.9124   22113090.1354
 96  4 20 17 38 30.0030000  0  9  7 19 31 15 26 27 16 18  2
  23272275.261   -15504053.58849 -12069862.16349  23272277.6104   23272284.2574
  22411175.038     4168135.27049   3245434.99649  22411177.7004   22411184.0304
  25268222.937     7195324.11149   5611033.10349  25268224.9034   25268231.7294
  25468332.800    -4999632.58949  -3883636.06449  25468333.0404   25468342.9334
  25140536.625    -8057560.08649  -6244465.29349  25140539.9864   25140546.0204
  21191496.485   -16636998.14749 -12961393.56549  21191498.7334   21191504.2504
  25766108.528    -2839618.33549  -2203082.32549  25766111.1534   25766119.4784
  25842587.351    27993589.84349  21808551.48049  25842588.6364   25842597.4534
  22111788.708   -20742418.70349 -16155245.63649  22111790.6324   22111796.9844
 96  4 20 17 39  0.0030000  0  8  7 19 31 15 26 27 16  2
  23256017.934   -15589485.74349 -12136432.64049  23256020.1624   23256027.2334
  22422559.521     4227961.35949   3292052.70849  22422562.3384   22422568.2364
  25289075.779     7304908.91649   5696423.79849  25289079.5184   25289086.2544
  25458384.577    -5051912.37149  -3924373.52449  25458386.0804   25458393.5484
  25126316.487    -8132292.33649  -6302698.20549  25126319.4814   25126325.3534
  21191818.101   -16635307.75449 -12960076.38349  21191820.4314   21191826.0084
  25778859.103    -2772620.78049  -2150876.45649  25778860.1764   25778869.0824
  22110542.080   -20748968.93749 -16160349.71649  22110544.1534   22110550.3104
 96  4 20 17 39 30.0030000  0  7  7 19 31 15 26 27  2
  23239810.919   -15674653.41049 -12202797.02949  23239813.2444   23239820.0014
  22433998.183     4288072.20449   3338892.30349  22434000.3724   22434006.9864
  25309962.869     7414667.53149   5781949.94149  25309965.3584   25309971.7914
  25448489.994    -5103907.89449  -3964889.46149  25448489.6524   25448499.6964
  25112156.319    -8206702.83149  -6360680.37249  25112159.7794   25112164.5874
  21192210.068   -16633249.88649 -12958472.85649  21192212.0274   21192217.6024
  22109339.737   -20755287.84149 -16165273.54049  22109341.7244   22109347.8104
 96  4 20 17 40  0.0030000  0  7  7 19 31 15 26 27  2
  23223653.308   -15759562.29649 -12268959.76349  23223655.5134   23223662.6324
  22445491.458     4348471.19449   3385956.42849  22445494.2284   22445500.5674
  25330884.886     7524607.56849   5867617.45949  25330886.7954   25330891.2134
  25438649.499    -5155611.01549  -4005177.56749  25438651.7714   25438661.9544
  25098056.385    -8280799.98549  -6418418.39749  25098058.8484   25098064.9564
  21192674.940   -16630806.86749 -12956569.21449  21192677.1024   21192682.4524
  22108181.745   -20761372.56149 -16170014.87649  22108183.8064   22108190.1764
 96  4 20 17 40 30.0030000  0  7  7 19 31 15 26 27  2
  23207542.130   -15844226.15449 -12334931.57349  23207544.4814   23207551.6754
  22457044.164     4409181.36349   3433263.03349  22457047.3344   22457053.3554
  25351846.090     7634760.19349   5953450.59449  25351849.1584   25351853.2104
  25428869.140    -5207008.26649  -4045227.32349  25428871.9174   25428880.6914
  25084019.393    -8354560.24149  -6475893.89049  25084022.1234   25084029.5114
  21193213.987   -16627973.66949 -12954361.53449  21193216.2194   21193221.7614
  22107068.707   -20767221.35049 -16174572.37649  22107070.6604   22107076.8704
 96  4 20 17 41  0.0030000  0  7  7 19 31 15 26 27  2
  23191477.751   -15928644.84849 -12400712.34349  23191480.8164   23191487.4504
  22468659.845     4470221.00849   3480826.37149  22468662.4354   22468669.1804
  25372847.113     7745123.56549   6039447.96749  25372849.3484   25372856.0654
  25419147.167    -5258099.68049  -4085038.76249  25419149.8924   25419158.3754
  25070047.747    -8427986.67849  -6533109.28249  25070049.6804   25070056.8424
  21193824.939   -16624763.24149 -12951859.90749  21193826.9474   21193832.6614
  22105998.595   -20772844.49049 -16178954.04449  22106000.7764   22106007.0204
 96  4 20 17 41 30.0030000  0  7  7 19 31 15 26 27  2
  23175464.419   -16012795.47849 -12466284.23949  23175467.1704   23175473.9674
  22480338.671     4531593.12249   3528648.77549  22480341.6604   22480347.8894
  25393889.738     7855705.94149   6125616.01549  25393892.3804   25393901.3444
  25409482.320    -5308883.69449  -4124610.66949  25409485.0264   25409493.3574
  25056134.609    -8501098.83649  -6590079.76849  25056137.1674   25056143.2784
  21194509.789   -16621163.64649 -12949055.03449  21194512.1694   21194517.7314
  22104971.015   -20778245.43249 -16183162.57149  22104972.9714   22104979.4184
 96  4 20 17 42  0.0030000  0  7  7 19 31 15 26 27  2
  23159505.199   -16096659.70149 -12531632.95749  23159508.1344   23159515.4694
  22492077.334     4593280.09549   3576716.52549  22492079.9524   22492086.2764
  25414975.427     7966513.71749   6211959.70449  25414977.8934   25414985.7834
  25399880.118    -5359356.82549  -4163940.33749  25399881.4294   25399890.0084
  25042279.514    -8573905.26049  -6646812.03749  25042282.4234   25042289.0984
  21195267.615   -16617181.31249 -12945951.92049  21195269.7604   21195275.5344
  22103984.977   -20783426.93449 -16187200.11049  22103987.1094   22103993.5474
 96  4 20 17 42 30.0030000  0  7  7 19 31 15 26 27  2
  23143602.237   -16180232.30749 -12596754.44549  23143604.5824   23143611.7134
  22503873.554     4655269.11549   3625019.63549  22503876.5344   22503882.5274
  25436101.660     8077532.51549   6298467.80549  25436103.6194   25436110.6504
  25390332.290    -5409526.19449  -4203033.28749  25390334.1944   25390341.7824
  25028485.048    -8646397.94849  -6703299.83249  25028488.4554   25028493.0924
  21196094.206   -16612836.95449 -12942566.71049  21196096.6114   21196102.1724
  22103039.441   -20788396.65749 -16191072.62249  22103041.3924   22103047.6764
 96  4 20 17 43  0.0030000  0  7  7 19 31 15 26 27  2
  23127765.288   -16263457.54249 -12661605.25249  23127767.5334   23127774.2314
  22515727.874     4717563.89149   3673560.99849  22515730.3064   22515736.7384
  25457269.963     8188766.51849   6385143.57949  25457270.4884   25457277.4094
  25380846.903    -5459364.61649  -4241868.35849  25380850.1134   25380857.3514
  25014752.632    -8718561.28849  -6759530.99949  25014755.4374   25014761.7394
  21196997.751   -16608090.88249 -12938868.47549  21196999.7124   21197005.3034
  22102139.538   -20793124.09849 -16194756.34149  22102141.6354   22102147.9814
 96  4 20 17 43 30.0030000  0  7  7 19 31 15 26 27  2
  23111993.060   -16346339.35749 -12726188.46349  23111995.6704   23112002.4774
  22527637.569     4780149.99749   3722329.36249  22527640.1214   22527646.7694
  25478476.248     8300208.92449   6471981.77549  25478477.4744   25478486.0904
  25371424.813    -5508877.02349  -4280449.39949  25371427.4674   25371435.8994
  25001082.230    -8790399.94849  -6815509.16449  25001084.4774   25001090.5254
  21197977.905   -16602938.77449 -12934853.84749  21197980.0594   21197985.5714
  22101285.788   -20797610.89849 -16198252.55249  22101287.7604   22101294.1824
